[[{"header":{"parameterUnit":"m.s-1","parameterCategory":1,"la1":30.6,"la2":28.766,"lo1":-90.7593,"lo2":-88.6598,"dy":0.0162,"dx":0.0183,"nx":116,"ny":114,"refTime":"2023-08-05T12:00:00:Z","depth":0,"parameterNumber":2,"parameterNumberName":"U-component_of_WINDS"},"data":[0.0,0.0,0.0,0.0,0.0,0.0,0.0,0.0,0.0,0.0,0.0,0.0,0.0,0.0,0.0,0.0,0.0,0.0,0.0,0.0,0.0,0.0,0.0,0.0,0.0,0.0,0.0,0.0,0.0,0.0,0.0,0.0,0.0,0.0,0.0,0.0,0.0,0.0,0.0,0.0,0.0,0.0,0.0,0.0,0.0,0.0,0.0,0.0,0.0,0.0,0.0,0.0,0.0,0.0,0.0,0.0,0.0,0.0,0.0,0.0,0.0,0.0,0.0,0.0,0.0,0.0,0.0,0.0,0.0,0.0,0.0,0.0,0.0,0.0,0.0,0.0,0.0,0.0,0.0,0.0,0.0,0.0,0.0,0.0,0.0,0.0,0.0,0.0,0.0,0.0,0.0,0.0,0.0,0.0,0.0,0.0,0.0,0.0,0.0,0.0,0.0,0.0,0.0,0.0,0.0,0.0,0.0,0.0,0.0,0.0,0.0,0.0,0.0,0.0,0.0,0.0,0.0,0.0,0.0,0.0,0.0,0.0,0.0,0.0,0.0,0.0,0.0,0.0,0.0,0.0,0.0,0.0,0.0,0.0,0.0,0.0,0.0,0.0,0.0,0.0,0.0,0.0,0.0,0.0,0.0,0.0,0.0,0.0,0.0,0.0,0.0,0.0,0.0,0.0,0.0,0.0,0.0,0.0,0.0,0.0,0.0,0.0,0.0,0.0,0.0,0.0,0.0,0.0,0.0,0.0,0.0,0.0,0.0,0.0,0.0,0.0,0.0,0.0,0.0,0.0,0.0,0.0,0.0,0.0,0.0,0.0,0.0,0.0,0.0,0.0,0.0,0.0,0.0,0.0,0.0,0.0,0.0,0.0,0.0,0.0,0.0,0.0,0.0,0.0,0.0,0.0,0.0,0.0,0.0,0.0,0.0,0.0,0.0,0.0,0.0,0.0,0.0,0.0,0.0,0.0,0.0,0.0,0.0,0.0,0.0,0.0,0.0,0.0,0.0,0.0,0.0,0.0,0.0,0.0,0.0,0.0,0.0,0.0,0.0,0.0,0.0,0.0,0.0,0.0,0.0,0.0,0.0,0.0,0.0,0.0,0.0,0.0,0.0,0.0,0.0,0.0,0.0,0.0,0.0,0.0,0.0,0.0,0.0,0.0,0.0,0.0,0.0,0.0,0.0,0.0,0.0,0.0,0.0,0.0,0.0,0.0,0.0,0.0,0.0,0.0,0.0,0.0,0.0,0.0,0.0,0.0,0.0,0.0,0.0,0.0,0.0,0.0,0.0,0.0,0.0,0.0,0.0,0.0,0.0,0.0,0.0,0.0,0.0,0.0,0.0,0.0,0.0,0.0,0.0,0.0,0.0,0.0,0.0,0.0,0.0,0.0,0.0,0.0,0.0,0.0,0.0,0.0,0.0,0.0,0.0,0.0,0.0,0.0,0.0,0.0,0.0,0.0,0.0,0.0,0.0,0.0,0.0,0.0,0.0,0.0,0.0,0.0,0.0,0.0,0.0,0.0,0.0,0.0,0.0,0.0,0.0,0.0,0.0,0.0,0.0,0.0,0.0,0.0,0.0,0.0,0.0,0.0,0.0,0.0,0.0,0.0,0.0,0.0,0.0,0.0,0.0,0.0,0.0,0.0,0.0,0.0,0.0,0.0,0.0,0.0,0.0,0.0,0.0,0.0,0.0,0.0,0.0,0.0,0.0,0.0,0.0,0.0,0.0,0.0,0.0,0.0,0.0,0.0,0.0,0.0,0.0,0.0,0.0,0.0,0.0,0.0,0.0,0.0,0.0,0.0,0.0,0.0,0.0,0.0,0.0,0.0,0.0,0.0,0.0,0.0,0.0,0.0,0.0,0.0,0.0,0.0,0.0,0.0,0.0,0.0,0.0,0.0,0.0,0.0,0.0,0.0,0.0,0.0,0.0,0.0,0.0,0.0,0.0,0.0,0.0,0.0,0.0,0.0,0.0,0.0,0.0,0.0,0.0,0.0,0.0,0.0,0.0,0.0,0.0,0.0,0.0,0.0,0.0,0.0,0.0,0.0,0.0,0.0,0.0,0.0,0.0,0.0,0.0,0.0,0.0,0.0,0.0,0.0,0.0,0.0,0.0,0.0,0.0,0.0,0.0,0.0,0.0,0.0,0.0,0.0,0.0,0.0,0.0,0.0,0.0,0.0,0.0,0.0,0.0,0.0,0.0,0.0,0.0,0.0,0.0,0.0,0.0,0.0,0.0,0.0,0.0,0.0,0.0,0.0,0.0,0.0,0.0,0.0,0.0,0.0,0.0,0.0,0.0,0.0,0.0,0.0,0.0,0.0,0.0,0.0,0.0,0.0,0.0,0.0,0.0,0.0,0.0,0.0,0.0,0.0,0.0,0.0,0.0,0.0,0.0,0.0,0.0,0.0,0.0,0.0,0.0,0.0,0.0,0.0,0.0,0.0,0.0,0.0,0.0,0.0,0.0,0.0,0.0,0.0,0.0,0.0,0.0,0.0,0.0,0.0,0.0,0.0,0.0,0.0,0.0,0.0,0.0,0.0,0.0,0.0,0.0,0.0,0.0,0.0,0.0,0.0,0.0,0.0,0.0,0.0,0.0,0.0,0.0,0.0,0.0,0.0,0.0,0.0,0.0,0.0,0.0,0.0,0.0,0.0,0.0,0.0,0.0,0.0,0.0,0.0,0.0,0.0,0.0,0.0,0.0,0.0,0.0,0.0,0.0,0.0,0.0,0.0,0.0,0.0,0.0,0.0,0.0,0.0,0.0,0.0,0.0,0.0,0.0,0.0,0.0,0.0,0.0,0.0,0.0,0.0,0.0,0.0,0.0,0.0,0.0,0.0,0.0,0.0,0.0,0.0,0.0,0.0,0.0,0.0,0.0,0.0,0.0,0.0,0.0,0.0,0.0,0.0,0.0,0.0,0.0,0.0,0.0,0.0,0.0,0.0,0.0,0.0,0.0,0.0,0.0,0.0,0.0,0.0,0.0,0.0,0.0,0.0,0.0,0.0,0.0,0.0,0.0,0.0,0.0,0.0,0.0,0.0,0.0,0.0,0.0,0.0,0.0,0.0,0.0,0.0,0.0,0.0,0.0,0.0,0.0,0.0,0.0,0.0,0.0,0.0,0.0,0.0,0.0,0.0,0.0,0.0,0.0,0.0,0.0,0.0,0.0,0.0,0.0,0.0,0.0,0.0,0.0,0.0,0.0,0.0,0.0,0.0,0.0,0.0,0.0,0.0,0.0,0.0,0.0,0.0,0.0,0.0,0.0,0.0,0.0,0.0,0.0,0.0,0.0,0.0,0.0,0.0,0.0,0.0,0.0,0.0,0.0,0.0,0.0,0.0,0.0,0.0,0.0,0.0,0.0,0.0,0.0,0.0,0.0,0.0,0.0,0.0,0.0,0.0,0.0,0.0,0.0,0.0,0.0,0.0,0.0,0.0,0.0,0.0,0.0,0.0,0.0,0.0,0.0,0.0,0.0,0.0,0.0,0.0,0.0,0.0,0.0,0.0,0.0,0.0,0.0,0.0,0.0,0.0,0.0,0.0,0.0,0.0,0.0,0.0,0.0,0.0,0.0,0.0,0.0,0.0,0.0,0.0,0.0,0.0,0.0,0.0,0.0,0.0,0.0,0.0,0.0,0.0,0.0,0.0,0.0,0.0,0.0,0.0,0.0,0.0,0.0,0.0,0.0,0.0,0.0,0.0,0.0,0.0,0.0,0.0,0.0,0.0,0.0,0.0,0.0,0.0,0.0,0.0,0.0,0.0,0.0,0.0,0.0,0.0,0.0,0.0,0.0,0.0,0.0,0.0,0.0,0.0,0.0,0.0,0.0,0.0,0.0,0.0,0.0,0.0,0.0,0.0,0.0,0.0,0.0,0.0,0.0,0.0,0.0,0.0,0.0,0.0,0.0,0.0,0.0,0.0,0.0,0.0,0.0,0.0,0.0,0.0,0.0,0.0,0.0,0.0,0.0,0.0,0.0,0.0,0.0,0.0,0.0,0.0,0.0,0.0,0.0,0.0,0.0,0.0,0.0,0.0,0.0,0.0,0.0,0.0,0.0,0.0,0.0,0.0,0.0,0.0,0.0,0.0,0.0,0.0,0.0,0.0,0.0,0.0,0.0,0.0,0.0,0.0,0.0,0.0,0.0,0.0,0.0,0.0,0.0,0.0,0.0,0.0,0.0,0.0,0.0,0.0,0.0,0.0,0.0,0.0,0.0,0.0,0.0,0.0,0.0,0.0,0.0,0.0,0.0,0.0,0.0,0.0,0.0,0.0,0.0,0.0,0.0,0.0,0.0,0.0,0.0,0.0,0.0,0.0,0.0,0.0,0.0,0.0,0.0,0.0,0.0,0.0,0.0,0.0,0.0,0.0,0.0,0.0,0.0,0.0,0.0,0.0,0.0,0.0,0.0,0.0,0.0,0.0,0.0,0.0,0.0,0.0,0.0,0.0,0.0,0.0,0.0,0.0,0.0,0.0,0.0,0.0,0.0,0.0,0.0,0.0,0.0,0.0,0.0,0.0,0.0,0.0,0.0,0.0,0.0,0.0,0.0,0.0,0.0,0.0,0.0,0.0,0.0,0.0,0.0,0.0,0.0,0.0,0.0,0.0,0.0,0.0,0.0,0.0,0.0,0.0,0.0,0.0,0.0,0.0,0.0,0.0,0.0,0.0,0.0,0.0,0.0,0.0,0.0,0.0,0.0,0.0,0.0,0.0,0.0,0.0,0.0,0.0,0.0,0.0,0.0,0.0,0.0,0.0,0.0,0.0,0.0,0.0,0.0,0.0,0.0,0.0,0.0,0.0,0.0,0.0,0.0,0.0,0.0,0.0,0.0,0.0,0.0,0.0,0.0,0.0,0.0,0.0,0.0,0.0,0.0,0.0,0.0,0.0,0.0,0.0,0.0,0.0,0.0,0.0,0.0,0.0,0.0,0.0,0.0,0.0,0.0,0.0,0.0,0.0,0.0,0.0,0.0,0.0,0.0,0.0,0.0,0.0,0.0,0.0,0.0,0.0,0.0,0.0,0.0,0.0,0.0,0.0,0.0,0.0,0.0,0.0,0.0,0.0,0.0,0.0,0.0,0.0,0.0,0.0,0.0,0.0,0.0,0.0,0.0,0.0,0.0,0.0,0.0,0.0,0.0,0.0,0.0,0.0,0.0,0.0,0.0,0.0,0.0,0.0,0.0,0.0,0.0,0.0,0.0,0.0,0.0,0.0,0.0,0.0,0.0,0.0,0.0,0.0,0.0,0.0,0.0,0.0,0.0,0.0,0.0,0.0,0.0,0.0,0.0,0.0,0.0,0.0,0.0,0.0,0.0,0.0,0.0,0.0,0.0,0.0,0.0,0.0,0.0,0.0,0.0,0.0,0.0,0.0,0.0,0.0,0.0,0.0,0.0,0.0,0.0,0.0,0.0,0.0,0.0,0.0,0.0,0.0,0.0,0.0,0.0,0.0,0.0,0.0,0.0,0.0,0.0,0.0,0.0,0.0,0.0,0.0,0.0,0.0,0.0,0.0,0.0,0.0,0.0,0.0,0.0,0.0,0.0,0.0,0.0,0.0,0.0,0.0,0.0,0.0,0.0,0.0,0.0,0.0,0.0,0.0,0.0,0.0,0.0,0.0,0.0,0.0,0.0,0.0,0.0,0.0,0.0,0.0,0.0,0.0,0.0,0.0,0.0,0.0,0.0,0.0,0.0,0.0,0.0,0.0,0.0,0.0,0.0,0.0,0.0,0.0,0.0,0.0,0.0,0.0,0.0,0.0,0.0,0.0,0.0,0.0,0.0,0.0,0.0,0.0,0.0,0.0,0.0,0.0,0.0,0.0,0.0,0.0,0.0,0.0,0.0,0.0,0.0,0.0,0.0,0.0,0.0,0.0,0.0,0.0,0.0,0.0,0.0,0.0,0.0,0.0,0.0,0.0,0.0,0.0,0.0,0.0,0.0,0.0,0.0,0.0,0.0,0.0,0.0,0.0,0.0,0.0,0.0,0.0,0.0,0.0,0.0,0.0,0.0,0.0,0.0,0.0,0.0,0.0,0.0,0.0,0.0,0.0,0.0,0.0,0.0,0.0,-6.3602,0.0,0.0,0.0,0.0,0.0,0.0,0.0,0.0,0.0,0.0,0.0,0.0,0.0,0.0,0.0,0.0,0.0,0.0,0.0,0.0,0.0,0.0,0.0,0.0,0.0,0.0,0.0,0.0,0.0,0.0,0.0,0.0,0.0,0.0,0.0,0.0,0.0,0.0,0.0,0.0,0.0,0.0,0.0,0.0,0.0,0.0,0.0,0.0,0.0,0.0,0.0,0.0,0.0,0.0,0.0,0.0,0.0,0.0,0.0,0.0,0.0,0.0,0.0,0.0,0.0,0.0,0.0,0.0,0.0,0.0,0.0,0.0,0.0,0.0,0.0,0.0,0.0,0.0,0.0,0.0,0.0,0.0,0.0,0.0,0.0,0.0,0.0,0.0,0.0,0.0,0.0,0.0,0.0,0.0,0.0,0.0,0.0,0.0,0.0,0.0,0.0,0.0,0.0,0.0,0.0,0.0,0.0,0.0,0.0,0.0,0.0,0.0,0.0,0.0,0.0,0.0,-6.3602,0.0,0.0,0.0,0.0,0.0,0.0,0.0,0.0,0.0,0.0,0.0,0.0,0.0,0.0,0.0,0.0,0.0,0.0,0.0,0.0,0.0,0.0,0.0,0.0,0.0,0.0,0.0,0.0,0.0,0.0,0.0,0.0,0.0,0.0,0.0,0.0,0.0,0.0,0.0,0.0,0.0,0.0,0.0,0.0,0.0,0.0,0.0,0.0,0.0,0.0,0.0,0.0,0.0,0.0,0.0,0.0,0.0,0.0,0.0,0.0,0.0,0.0,0.0,0.0,0.0,0.0,0.0,0.0,0.0,0.0,0.0,0.0,0.0,0.0,0.0,0.0,0.0,0.0,0.0,0.0,0.0,0.0,0.0,0.0,0.0,0.0,0.0,0.0,0.0,0.0,0.0,0.0,0.0,0.0,0.0,0.0,0.0,0.0,0.0,0.0,0.0,0.0,0.0,0.0,0.0,0.0,0.0,0.0,0.0,-6.3193,-6.3193,-6.3193,-6.3193,-6.3193,-6.3193,-6.3338,-6.3557,0.0,0.0,0.0,0.0,0.0,0.0,0.0,0.0,0.0,0.0,0.0,0.0,0.0,0.0,0.0,0.0,0.0,0.0,0.0,0.0,0.0,0.0,0.0,0.0,0.0,0.0,0.0,0.0,0.0,0.0,0.0,0.0,0.0,0.0,0.0,0.0,0.0,0.0,0.0,-4.9032,-4.9001,-4.9094,-4.9229,0.0,0.0,0.0,0.0,0.0,0.0,0.0,0.0,0.0,0.0,0.0,0.0,0.0,0.0,0.0,0.0,0.0,0.0,0.0,0.0,0.0,0.0,0.0,0.0,0.0,0.0,0.0,0.0,0.0,0.0,0.0,0.0,0.0,0.0,0.0,0.0,0.0,0.0,0.0,0.0,0.0,0.0,0.0,0.0,-5.8693,-5.9084,0.0,0.0,0.0,0.0,0.0,0.0,0.0,0.0,0.0,0.0,0.0,0.0,0.0,0.0,-6.1354,-6.1373,-6.141,-6.1521,-6.1521,-6.1521,-6.1521,-6.1521,-6.1521,-6.1521,-6.1521,0.0,-6.3424,-6.3424,0.0,0.0,0.0,0.0,0.0,0.0,0.0,0.0,0.0,0.0,0.0,0.0,0.0,0.0,0.0,0.0,0.0,0.0,0.0,0.0,0.0,0.0,0.0,0.0,0.0,0.0,0.0,0.0,0.0,0.0,0.0,0.0,0.0,0.0,0.0,0.0,-4.7572,-4.8274,-4.9001,-4.9001,-4.8813,-4.8416,-4.7389,-4.7103,-4.7373,-4.6464,0.0,0.0,0.0,0.0,0.0,0.0,0.0,0.0,0.0,0.0,0.0,0.0,0.0,0.0,0.0,0.0,0.0,0.0,0.0,0.0,0.0,0.0,0.0,0.0,0.0,0.0,0.0,0.0,0.0,0.0,0.0,0.0,0.0,0.0,0.0,0.0,0.0,0.0,0.0,-5.7977,-5.9121,-5.9485,-5.9537,-5.9673,0.0,0.0,0.0,0.0,0.0,0.0,0.0,0.0,0.0,-6.0386,-6.0549,-6.0698,-6.0818,-6.059,-6.0723,-6.1206,-6.1206,-6.1206,-6.1206,-6.1206,-6.1206,-6.1206,-6.1206,-6.1467,-6.1939,-6.2026,-6.2048,-6.2048,0.0,0.0,0.0,0.0,0.0,-5.9616,0.0,0.0,0.0,0.0,0.0,0.0,0.0,0.0,0.0,0.0,0.0,0.0,0.0,0.0,0.0,0.0,0.0,0.0,0.0,0.0,0.0,0.0,0.0,0.0,0.0,0.0,0.0,0.0,-4.7721,-4.8096,-4.845,-4.8829,-4.8513,-4.7572,-4.7051,-4.6864,-4.6934,-4.6394,-4.5925,0.0,0.0,0.0,0.0,0.0,0.0,0.0,0.0,0.0,0.0,0.0,0.0,0.0,0.0,0.0,0.0,0.0,0.0,0.0,0.0,0.0,0.0,0.0,0.0,0.0,0.0,0.0,0.0,0.0,0.0,0.0,0.0,0.0,0.0,0.0,0.0,0.0,0.0,-5.8404,-5.9502,-5.9887,-5.9918,-6.0057,0.0,0.0,0.0,0.0,0.0,0.0,-6.08,-6.08,-6.0641,-6.0307,-5.9965,-5.9927,-6.0173,-5.9779,-5.9924,-6.0574,-6.0574,-6.0574,-6.0574,-6.0574,-6.0574,-6.0574,-6.0574,-6.0447,-6.0248,-6.0741,-6.0926,-6.0885,-6.0748,-6.066,0.0,-6.0328,-5.9793,-5.9005,0.0,0.0,0.0,0.0,0.0,0.0,0.0,0.0,0.0,0.0,0.0,0.0,0.0,0.0,0.0,0.0,0.0,0.0,0.0,0.0,0.0,0.0,0.0,0.0,0.0,0.0,0.0,-4.5805,-4.7204,-4.7556,-4.6949,-4.8354,-4.821,-4.6846,-4.6811,-4.655,-4.602,-4.5505,-4.5368,-4.5515,0.0,0.0,0.0,0.0,0.0,0.0,0.0,0.0,0.0,0.0,0.0,0.0,0.0,0.0,0.0,0.0,0.0,0.0,0.0,0.0,0.0,0.0,0.0,0.0,0.0,0.0,0.0,0.0,0.0,0.0,0.0,0.0,0.0,0.0,0.0,0.0,0.0,0.0,0.0,-6.0237,-6.0279,0.0,0.0,0.0,0.0,-6.08,-6.08,-6.08,-6.08,-6.08,-6.0641,-6.0307,-5.9965,-5.9643,-5.9271,-5.8921,-5.8791,-5.8846,-5.8846,-5.8846,-5.8846,-5.8846,-5.8846,-5.8846,-5.8846,-5.8744,-5.873,-6.0215,-6.0748,-6.0614,-6.0472,-6.0496,-6.0498,-5.9604,-5.9245,-5.8913,0.0,0.0,0.0,0.0,0.0,0.0,0.0,0.0,0.0,0.0,0.0,0.0,0.0,0.0,0.0,0.0,0.0,0.0,0.0,0.0,0.0,0.0,0.0,0.0,0.0,0.0,-4.52,-4.5697,-4.6218,-4.683,-4.7522,-4.8032,-4.777,-4.6811,-4.6811,-4.6234,-4.5305,-4.5241,-4.5331,-4.5515,-4.5698,-4.5807,0.0,0.0,0.0,0.0,0.0,0.0,0.0,0.0,0.0,0.0,0.0,0.0,0.0,0.0,0.0,0.0,0.0,0.0,0.0,0.0,0.0,0.0,0.0,0.0,0.0,0.0,0.0,0.0,0.0,0.0,0.0,0.0,0.0,0.0,0.0,0.0,0.0,-6.0494,-6.0604,0.0,0.0,-6.08,-6.08,-6.08,-6.08,-6.08,-6.08,-6.08,-6.0746,-6.0629,-6.0293,-5.995,-5.9588,-5.9215,-5.8906,-5.8716,-5.8716,-5.8716,-5.8696,-5.8614,-5.8553,-5.8553,-5.8526,-5.844,-5.8345,-5.8895,-5.9108,-5.9044,-5.8906,-5.8864,-5.8892,-5.8552,-5.8437,-5.827,0.0,0.0,0.0,0.0,0.0,0.0,0.0,0.0,0.0,0.0,0.0,0.0,0.0,0.0,0.0,0.0,0.0,0.0,0.0,0.0,0.0,0.0,0.0,0.0,0.0,-4.4435,-4.4783,-4.5311,-4.5604,-4.6218,-4.7171,-4.7406,-4.7153,-4.6429,-4.6515,-4.5965,-4.5002,-4.522,-4.5368,-4.5515,-4.5484,-4.5468,-4.5395,0.0,0.0,0.0,0.0,0.0,0.0,0.0,0.0,0.0,0.0,0.0,0.0,0.0,0.0,0.0,0.0,0.0,0.0,0.0,0.0,0.0,0.0,0.0,0.0,0.0,0.0,0.0,0.0,0.0,0.0,0.0,0.0,0.0,0.0,0.0,-6.0131,-6.0648,-6.0734,-6.0777,-6.08,-6.08,-6.08,-6.08,-6.08,-6.08,-6.08,-6.08,-6.08,-6.08,-6.0462,-6.0308,-6.0364,-5.9882,-5.9664,-5.9706,-5.9597,-5.9552,-5.9552,-5.9387,-5.9344,-5.9344,-5.925,-5.9139,-5.9007,-5.9007,-5.8984,-5.8883,-5.8263,-5.7997,-5.7997,-5.7997,-5.7997,-5.7886,0.0,0.0,0.0,0.0,0.0,0.0,0.0,0.0,0.0,0.0,0.0,0.0,0.0,0.0,0.0,0.0,0.0,0.0,0.0,0.0,0.0,0.0,0.0,0.0,-4.4281,-4.4281,-4.4396,-4.4572,-4.5311,-4.566,-4.5697,-4.6429,-4.6394,-4.5697,-4.5913,-4.5708,-4.522,-4.5405,-4.5478,-4.5426,-4.4993,-4.4812,-4.4737,0.0,0.0,0.0,0.0,0.0,0.0,0.0,0.0,0.0,0.0,0.0,0.0,0.0,0.0,0.0,0.0,0.0,0.0,0.0,0.0,0.0,0.0,0.0,0.0,0.0,0.0,0.0,0.0,0.0,0.0,0.0,0.0,0.0,-5.8566,-5.9843,-6.0617,-6.0673,-6.0697,-6.0741,-6.08,-6.08,-6.08,-6.08,-6.08,-6.08,-6.08,-6.0819,-6.0839,-6.0839,-6.0552,-6.0766,-6.153,-6.0891,-6.0924,-6.1694,-6.1344,-6.1184,-6.1184,-6.1056,-6.0993,-6.097,-6.0853,-6.072,-6.0585,-6.0585,-6.0515,-6.0254,-5.8676,-5.807,-5.807,-5.807,-5.8052,-5.7875,0.0,0.0,0.0,0.0,0.0,0.0,0.0,0.0,0.0,0.0,0.0,0.0,0.0,0.0,0.0,0.0,0.0,0.0,0.0,0.0,0.0,0.0,0.0,0.0,-4.3871,-4.4127,-4.432,-4.4396,-4.4708,-4.5179,-4.5697,-4.5913,-4.5913,-4.5697,-4.5913,-4.5708,-4.522,-4.5405,-4.53,-4.4993,-4.4849,-4.4812,-4.4699,0.0,0.0,0.0,0.0,0.0,0.0,0.0,0.0,0.0,0.0,0.0,0.0,0.0,0.0,0.0,0.0,0.0,0.0,0.0,0.0,0.0,0.0,0.0,0.0,0.0,0.0,0.0,0.0,0.0,0.0,0.0,0.0,-5.716,-5.8539,-5.9513,-6.0213,-6.052,-6.0635,-6.0697,-6.0741,-6.0777,-6.08,-6.08,-6.08,-6.08,-6.08,-6.1408,-6.1755,-6.1755,-6.2208,-6.2464,-6.2448,-6.193,-6.1675,-6.1694,-6.1156,-6.0966,-6.1056,-6.0812,-6.0702,-6.0702,-6.0562,-6.0491,-6.0449,-6.0449,-6.0425,-6.0364,-5.9924,-5.974,-5.974,-5.974,-5.9373,-5.8626,0.0,0.0,0.0,0.0,0.0,0.0,0.0,0.0,0.0,0.0,0.0,0.0,0.0,0.0,0.0,0.0,0.0,0.0,0.0,0.0,0.0,0.0,0.0,-4.3714,-4.369,-4.4026,-4.4205,-4.4281,-4.4496,-4.4971,-4.5697,-4.5384,-4.5458,-4.5805,-4.5692,-4.5395,-4.498,-4.5136,-4.488,-4.4396,-4.4128,-4.4051,-4.3935,-4.2996,-4.2607,-4.2581,-4.2242,-4.2092,-4.2092,-4.2092,0.0,0.0,0.0,0.0,0.0,0.0,0.0,0.0,0.0,0.0,0.0,0.0,0.0,0.0,0.0,0.0,0.0,0.0,0.0,0.0,0.0,0.0,0.0,0.0,-5.5821,-5.7332,-5.8238,-5.9367,-6.0217,-6.0472,-6.0578,-6.0642,-6.0667,-6.0729,-6.0765,-6.0765,-6.1115,-6.1351,-6.1351,-6.2127,-6.2589,-6.2589,-6.3026,-6.3342,-6.3512,-6.2886,-6.269,-6.2918,-6.216,-6.1874,-6.2011,-6.1739,-6.1621,0.0,-6.1459,-6.141,-6.141,-6.141,-6.141,0.0,0.0,0.0,0.0,0.0,-6.0107,-5.9487,0.0,0.0,0.0,0.0,0.0,0.0,0.0,0.0,0.0,0.0,0.0,0.0,0.0,0.0,0.0,0.0,0.0,0.0,0.0,0.0,0.0,-4.199,-4.2739,-4.3305,-4.3651,-4.3871,-4.4104,-4.4281,-4.4511,-4.4918,-4.5551,-4.4896,-4.5046,-4.5857,-4.541,-4.498,-4.461,-4.4752,-4.4396,-4.3771,-4.322,-4.2981,-4.2915,-4.231,-4.2092,-4.2092,-4.2092,-4.2092,-4.2092,-4.2092,0.0,0.0,0.0,0.0,0.0,0.0,0.0,0.0,0.0,0.0,0.0,0.0,0.0,0.0,0.0,0.0,0.0,0.0,0.0,0.0,0.0,0.0,0.0,0.0,-5.6042,-5.7483,-5.796,-5.9396,-6.0417,-6.0485,-6.0499,-6.0525,-6.0578,-6.0731,-6.082,-6.0851,-6.1707,-6.2224,-6.2224,0.0,0.0,0.0,0.0,-6.3841,-6.4615,-6.374,-6.3728,-6.4575,-6.3602,-6.3237,-6.3354,-6.3099,-6.2978,-6.2978,-6.2855,-6.278,-6.278,-6.278,-6.278,-6.2652,-6.1245,-6.0676,-6.0658,-6.0566,-6.0548,0.0,0.0,0.0,0.0,0.0,0.0,0.0,0.0,0.0,0.0,0.0,0.0,0.0,0.0,0.0,0.0,0.0,0.0,0.0,0.0,0.0,-4.1254,-4.199,-4.2155,-4.2618,-4.3384,-4.3793,-4.4026,-4.4065,-4.4435,-4.4685,-4.4821,-4.4685,-4.4799,-4.512,-4.5167,-4.498,-4.461,-4.4752,-4.4167,-4.314,-4.3061,-4.2981,-4.2915,-4.231,-4.2092,-4.2092,-4.2092,-4.2092,-4.2092,-4.2092,-4.2092,-4.2092,-4.2092,0.0,0.0,0.0,0.0,0.0,0.0,0.0,0.0,0.0,0.0,0.0,0.0,0.0,0.0,0.0,0.0,0.0,0.0,0.0,0.0,-5.5106,-5.6417,-5.7673,-5.8724,-5.9739,-6.0403,-6.0417,-6.0472,-6.0512,-6.0512,-6.1185,-6.1633,-6.1741,-6.2522,-6.2996,-6.2996,-6.379,0.0,-6.4191,-6.4811,-6.5219,-6.5392,-6.447,-6.4143,-6.4426,0.0,0.0,-6.3075,-6.2904,-6.283,-6.283,-6.2805,-6.278,-6.278,-6.278,-6.278,-6.2762,-6.2475,-6.2321,-6.2273,-6.1612,-6.1374,-6.1098,0.0,0.0,0.0,0.0,0.0,0.0,0.0,0.0,0.0,0.0,0.0,0.0,0.0,0.0,0.0,0.0,0.0,0.0,0.0,-3.9984,-4.0273,-4.0589,-4.1029,-4.1505,-4.192,-4.2831,-4.3284,-4.3284,-4.4174,-4.461,-4.461,-4.4685,-4.4852,-4.5055,-4.4927,-4.4663,-4.4251,-4.3989,-4.3379,-4.2541,-4.2541,-4.2541,-4.25,-4.2201,-4.2092,-4.2092,-4.2092,-4.2092,-4.2092,-4.2092,-4.2092,-4.2092,-4.2092,-4.25,-4.322,0.0,0.0,0.0,0.0,0.0,0.0,0.0,0.0,0.0,0.0,0.0,0.0,0.0,0.0,-5.3185,0.0,0.0,-5.4816,-5.5404,-5.7018,-5.8406,-5.9024,-5.9854,-6.0403,-6.0403,-6.0431,-6.0597,-6.1018,-6.1469,-6.1964,-6.2464,-6.3309,-6.3802,-6.3802,-6.4607,-6.5041,-6.4994,-6.5355,-6.546,-6.5257,-6.4518,-6.4116,-6.4033,-6.321,-6.2855,-6.3002,-6.2855,-6.278,-6.278,-6.278,-6.278,-6.278,-6.278,-6.278,-6.278,-6.278,-6.278,-6.2743,-6.2346,-6.2199,-6.1977,0.0,0.0,0.0,0.0,0.0,0.0,0.0,0.0,0.0,0.0,0.0,0.0,0.0,0.0,0.0,0.0,0.0,0.0,0.0,-3.9011,-3.9237,-3.921,-3.9899,-4.0418,-4.0603,-4.1767,-4.2342,-4.2342,-4.3506,-4.4174,-4.4343,-4.4556,-4.4761,-4.5017,-4.4739,-4.4251,-4.3693,-4.322,-4.2648,-4.2092,-4.2092,-4.2092,-4.2092,-4.2092,-4.2092,-4.2092,-4.2092,-4.2092,-4.2092,-4.2092,-4.2092,-4.2092,-4.2092,-4.2581,-4.3354,-4.4412,-4.4996,0.0,0.0,0.0,0.0,0.0,0.0,0.0,0.0,0.0,-5.1915,-5.2431,-5.289,-5.324,-5.3387,-5.4577,-5.5607,-5.5927,-5.7746,-5.9153,-5.9338,-5.995,-6.046,-6.0599,-6.0618,-6.0886,-6.1535,-6.1955,-6.2494,-6.3197,-6.4096,-6.4616,-6.4616,-6.5235,-6.558,-6.5552,-6.5509,-6.5276,-6.4877,-6.437,-6.395,-6.3643,-6.308,-6.2855,-6.2953,-6.2855,-6.278,-6.278,-6.278,-6.278,-6.278,-6.278,-6.278,-6.278,-6.278,-6.278,-6.278,-6.278,-6.278,-6.261,0.0,0.0,0.0,0.0,0.0,0.0,0.0,0.0,0.0,0.0,0.0,0.0,0.0,0.0,0.0,0.0,0.0,0.0,-3.8602,-3.8298,-3.844,-3.9166,-3.9285,-3.9768,-4.0589,-4.1155,-4.1463,-4.1463,-4.2017,-4.2684,-4.3442,-4.3663,-4.3966,-4.4396,-4.4549,-4.4058,-4.3101,-4.3021,-4.2648,-4.2092,-4.2092,-4.2092,-4.2092,-4.2092,-4.2092,-4.2092,-4.2092,-4.2092,-4.2092,-4.2092,-4.2092,-4.2092,-4.2092,-4.289,-4.4033,-4.5133,0.0,-4.6532,-4.8072,-4.8758,-4.8872,-4.8208,-4.9398,-5.0857,0.0,0.0,-5.2454,-5.2995,-5.3164,-5.3427,-5.4124,-5.4949,-5.6002,-5.7486,-5.8505,-5.9376,-6.0141,-6.0346,-6.0656,-6.1382,-6.1478,-6.1497,-6.1593,-6.3021,-6.3987,-6.414,-6.4915,-6.5375,-6.5375,-6.5451,-6.5479,-6.5425,-6.5409,-6.5217,-6.4829,-6.4331,-6.3911,-6.3513,-6.3032,-6.2823,-6.2805,-6.2823,-6.278,-6.278,-6.278,-6.278,-6.278,-6.278,-6.278,-6.278,-6.278,-6.278,-6.278,-6.278,-6.278,-6.261,0.0,0.0,0.0,0.0,0.0,0.0,0.0,0.0,0.0,0.0,0.0,0.0,0.0,0.0,0.0,0.0,0.0,0.0,-3.8602,-3.8161,-3.807,-3.844,-3.8427,-3.8607,-3.8997,-4.0014,-4.0504,-4.0504,-4.1505,-4.2196,-4.2548,-4.2976,-4.3309,-4.3482,-4.3615,-4.3418,-4.2996,-4.2622,-4.231,-4.2092,-4.2092,-4.2092,-4.2092,-4.2092,-4.2092,-4.215,-4.2498,-4.2615,0.0,0.0,-4.2615,-4.2626,-4.2617,-4.3569,-4.4901,-4.5834,-4.6829,0.0,-4.8742,-4.9399,-4.9722,0.0,-4.9976,-5.0937,-5.1493,-5.2012,-5.2563,-5.3082,-5.3573,-5.4014,-5.4344,-5.5625,-5.6893,0.0,-5.884,-5.9729,-6.0318,-6.079,-6.1211,-6.1554,-6.249,-6.3102,-6.3102,-6.377,-6.4397,-6.4904,-6.5248,-6.544,-6.544,-6.544,-6.5425,-6.5394,-6.5394,-6.5313,-6.5086,-6.4909,-6.4713,-6.4543,-6.4356,-6.4255,-6.4255,-6.4255,-6.4016,-6.3558,-6.3558,-6.3282,-6.278,-6.278,-6.278,-6.278,-6.278,-6.278,-6.278,-6.278,-6.278,-6.2661,0.0,0.0,0.0,0.0,0.0,0.0,0.0,0.0,0.0,0.0,0.0,0.0,0.0,0.0,0.0,0.0,0.0,0.0,0.0,-3.8194,-3.7979,-3.79,-3.79,-3.79,-3.79,-3.8997,-3.9533,-3.9533,-4.0703,-4.1394,-4.1645,-4.2234,-4.2559,-4.2655,-4.29,-4.2915,-4.2729,-4.2284,-4.2092,-4.2092,-4.2092,-4.2092,-4.2092,-4.2092,-4.2194,-4.2397,-4.2832,-4.2992,0.0,0.0,-4.3268,-4.3308,-4.3556,-4.4514,-4.5771,-4.6769,-4.8137,-4.9238,-4.899,0.0,0.0,-4.9838,-5.0363,-5.1131,-5.15,-5.2132,-5.2794,-5.3396,-5.3995,-5.4546,-5.4987,-5.633,-5.7595,-5.824,-5.9158,-5.9937,-6.0328,-6.1096,-6.1688,-6.1936,-6.3293,-6.4301,-6.4496,-6.4516,-6.4764,-6.5356,-6.5394,-6.5394,-6.5394,-6.5394,-6.5509,-6.5757,-6.5626,-6.5602,-6.5674,-6.5528,-6.5398,-6.5319,-6.5319,-6.5319,-6.5319,-6.5319,-6.4989,-6.442,-6.442,-6.3943,-6.3172,-6.3172,-6.3025,-6.278,-6.278,-6.278,-6.278,-6.278,-6.278,-6.2705,0.0,0.0,0.0,0.0,0.0,0.0,0.0,0.0,0.0,0.0,0.0,0.0,0.0,0.0,0.0,0.0,0.0,0.0,0.0,-3.8362,-3.8089,-3.79,-3.79,-3.79,-3.79,-3.8389,-3.8647,-3.8647,-3.9127,-3.9823,-4.0646,-4.1337,-4.1782,-4.2073,-4.2699,-4.2688,-4.2133,-4.2092,-4.2092,-4.2092,-4.2092,-4.2092,-4.2092,-4.2092,-4.2455,-4.2977,-4.2977,0.0,0.0,0.0,-4.3964,-4.4122,-4.495,-4.5662,0.0,-4.8052,-4.9863,-5.0851,0.0,0.0,-5.0729,-4.927,-5.0258,-5.1594,-5.1594,-5.2408,-5.3405,-5.4197,-5.4381,-5.4876,-5.6436,-5.7106,-5.78,-5.8953,-5.9518,-5.9937,-6.0328,-6.1096,-6.1917,-6.2758,-6.3637,-6.4496,0.0,-6.5356,-6.5375,-6.5394,-6.5394,-6.5394,-6.5394,-6.5394,-6.5796,-6.6636,-6.6218,-6.6163,-6.6556,-6.612,-6.5699,-6.5319,-6.5319,-6.5319,-6.5319,-6.5319,-6.5301,-6.5264,-6.5264,-6.4806,-6.4053,-6.4053,-6.3558,-6.278,-6.278,-6.278,-6.278,-6.278,-6.278,-6.261,0.0,0.0,0.0,0.0,0.0,0.0,0.0,0.0,0.0,0.0,0.0,0.0,0.0,0.0,0.0,0.0,0.0,0.0,0.0,-3.8427,-3.8167,-3.8089,-3.7979,-3.7979,-3.8089,-3.8421,-3.8679,-3.8787,-3.9158,-3.9469,-3.9749,-4.0603,-4.1043,-4.1184,-4.2007,-4.2284,-4.2092,-4.2092,-4.2092,-4.2092,-4.2092,-4.2092,-4.2136,-4.2542,-4.2818,-4.3108,0.0,0.0,0.0,0.0,-4.4589,-4.4763,-4.5597,-4.6377,-4.7342,-4.9347,-5.0627,-5.1139,-4.992,0.0,-5.0865,-4.9884,-5.0363,-5.1131,-5.1398,-5.2432,-5.3504,-5.4129,-5.5111,-5.6049,-5.6671,-5.7361,-5.8012,-5.8694,-5.8911,-5.9233,-5.9906,-6.1197,-6.2265,-6.2824,-6.4133,0.0,0.0,0.0,0.0,-6.5394,-6.5394,-6.5394,-6.5394,-6.5948,-6.6407,-6.6693,-6.6771,-6.6994,-6.7401,-6.6932,-6.6766,-6.688,-6.688,-6.688,-6.688,-6.688,-6.6604,-6.6109,-6.6109,-6.565,-6.4897,-6.4897,-6.442,-6.3668,-6.3668,-6.3319,-6.278,-6.278,-6.278,-6.2661,0.0,0.0,0.0,0.0,0.0,0.0,0.0,0.0,0.0,0.0,0.0,0.0,0.0,0.0,0.0,0.0,0.0,0.0,0.0,0.0,-3.8427,-3.8362,-3.8194,-3.8194,-3.8362,-3.8679,-3.8904,-3.9056,-3.9305,-3.9452,-3.9452,-4.0314,-4.0702,-4.0744,-4.1662,-4.2092,-4.2092,-4.2092,-4.2223,-4.2411,-4.2411,-4.2571,-4.2818,-4.3195,-4.3485,0.0,0.0,0.0,0.0,-4.5727,-4.5654,-4.5843,-4.7007,-4.784,-4.866,-5.0071,-5.0883,-5.1122,-5.0376,-5.0629,-5.0925,-5.0183,-5.0341,-5.0822,-5.1296,-5.2391,-5.3544,-5.4374,-5.5642,-5.6717,-5.7079,-5.7625,-5.8119,-5.8524,-5.8828,-5.9207,-5.973,-6.1494,-6.2767,-6.2886,-6.4382,0.0,0.0,0.0,0.0,-6.5394,-6.5394,-6.5547,-6.5853,-6.6407,-6.698,-6.7572,-6.7482,-6.7687,-6.8264,-6.7625,-6.7439,-6.7687,-6.7687,-6.7687,-6.7687,-6.7687,-6.7412,-6.6916,-6.6916,-6.6476,-6.5742,-6.5742,-6.5081,-6.409,-6.409,-6.3576,-6.278,-6.278,-6.2661,-6.2386,0.0,0.0,0.0,0.0,0.0,0.0,0.0,0.0,0.0,0.0,0.0,0.0,0.0,0.0,0.0,0.0,0.0,0.0,0.0,0.0,0.0,-3.8602,-3.8602,-3.8602,-3.8602,-3.9083,-3.9305,-3.9247,-3.9554,-3.97,-3.9642,-4.0314,-4.0659,-4.073,-4.1606,-4.2051,-4.2092,-4.2121,-4.2469,-4.2992,-4.3021,-4.3427,-4.3993,-4.4023,0.0,0.0,0.0,0.0,0.0,0.0,0.0,0.0,-4.8876,-4.9789,-5.024,-5.0249,-5.0624,-5.0889,-5.0198,-5.0486,-5.0861,-5.0154,-5.0222,-5.0624,-5.128,-5.2326,-5.3519,-5.495,-5.6017,-5.689,0.0,0.0,-5.8119,-5.8521,-5.9213,-5.9726,-5.9793,-6.1864,-6.327,0.0,0.0,0.0,0.0,0.0,0.0,-6.5394,0.0,-6.5776,-6.6655,-6.6751,-6.7499,-6.9107,-6.8317,-6.8243,-6.9069,-6.816,-6.7687,-6.7687,-6.7687,-6.7687,-6.7687,-6.7687,-6.7687,-6.7687,-6.7687,-6.7265,-6.6549,-6.6549,-6.5613,-6.4145,-6.4145,-6.3594,-6.278,-6.278,-6.2438,-6.1869,0.0,0.0,0.0,0.0,0.0,0.0,0.0,0.0,0.0,0.0,0.0,0.0,0.0,0.0,0.0,0.0,0.0,0.0,0.0,0.0,0.0,0.0,0.0,0.0,0.0,0.0,0.0,0.0,0.0,-3.9543,-3.8805,-3.9516,-4.0258,-4.093,-4.0986,-4.1395,-4.2121,-4.2571,-4.2847,-4.3036,0.0,-4.3834,-4.4037,0.0,0.0,0.0,0.0,0.0,0.0,0.0,0.0,0.0,0.0,-4.8418,-4.9463,-4.9289,-4.975,-5.0235,-5.0057,-5.0049,-5.0025,-4.9818,-4.9767,-5.0161,-5.1641,-5.2688,-5.3814,-5.5577,-5.6678,-5.7436,0.0,0.0,0.0,-5.8142,-5.8326,0.0,-5.967,-6.089,0.0,-6.3215,0.0,-6.5068,-6.5364,-6.5394,0.0,0.0,-6.5394,-6.5776,-6.6655,-6.7267,-6.7937,-6.8672,-6.8744,-6.8709,-6.859,-6.8,-6.7687,-6.7687,-6.7687,-6.7687,-6.7687,-6.7687,-6.7687,-6.7687,-6.7687,-6.7577,-6.7375,-6.7375,-6.6439,-6.4989,-6.4989,-6.4108,-6.278,-6.278,-6.2705,-6.2412,0.0,0.0,0.0,0.0,0.0,0.0,0.0,0.0,0.0,0.0,0.0,0.0,0.0,0.0,0.0,0.0,0.0,0.0,0.0,0.0,0.0,0.0,0.0,0.0,0.0,0.0,0.0,0.0,0.0,0.0,0.0,-3.9516,-4.0085,-4.1001,-4.117,-4.1577,-4.2136,0.0,0.0,0.0,0.0,0.0,0.0,0.0,0.0,0.0,0.0,0.0,0.0,0.0,0.0,-4.8281,-4.7855,-4.8349,-4.9115,-4.9298,0.0,-4.9982,-4.9879,-4.9778,-4.9679,-4.9619,-4.9471,-4.9808,-5.1416,-5.2534,-5.3723,-5.5374,-5.6708,0.0,0.0,0.0,0.0,0.0,0.0,0.0,-5.9671,-6.0853,-6.2041,0.0,-6.4157,0.0,-6.5101,-6.5298,-6.5394,0.0,-6.5394,-6.5929,-6.7152,-6.7649,-6.825,-6.9057,-6.9078,-6.8776,-6.8109,-6.781,-6.7687,-6.7687,-6.7687,-6.7687,-6.7687,-6.7687,-6.7687,-6.7687,0.0,-6.7687,-6.7687,-6.7687,-6.6751,-6.5319,-6.5319,-6.4292,-6.278,-6.278,-6.2464,-6.186,0.0,0.0,0.0,0.0,0.0,0.0,0.0,0.0,0.0,0.0,0.0,0.0,0.0,0.0,0.0,0.0,0.0,0.0,0.0,0.0,0.0,0.0,0.0,0.0,0.0,0.0,0.0,0.0,0.0,0.0,0.0,0.0,0.0,0.0,0.0,0.0,0.0,0.0,0.0,0.0,0.0,0.0,0.0,0.0,0.0,0.0,0.0,0.0,0.0,0.0,-4.827,-4.8248,-4.8542,-4.8729,-4.9022,-4.9652,-4.9898,-4.9935,-4.9761,-4.9679,-4.9619,-4.9488,-4.9405,-4.9674,-5.1018,-5.2345,-5.3654,-5.4963,0.0,-5.7601,-5.7601,-5.7792,-5.7973,-5.7997,0.0,-5.9237,-5.9789,-6.1137,-6.2299,-6.2966,-6.403,-6.4757,-6.4863,-6.5185,-6.5379,-6.5314,-6.5314,-6.6058,-6.7719,-6.7814,-6.8358,-6.9567,-6.9155,-6.852,-6.7714,-6.7687,-6.7687,-6.7687,-6.7687,-6.7687,-6.7687,-6.7687,-6.7687,-6.7687,0.0,0.0,-6.7687,-6.7577,-6.6659,-6.5301,-6.5191,-6.4182,-6.278,-6.278,-6.2041,-6.1015,0.0,0.0,0.0,0.0,0.0,0.0,0.0,0.0,0.0,0.0,-3.79,0.0,0.0,0.0,0.0,0.0,0.0,0.0,0.0,0.0,0.0,0.0,0.0,0.0,0.0,0.0,0.0,0.0,0.0,0.0,0.0,0.0,0.0,0.0,0.0,0.0,0.0,0.0,0.0,0.0,0.0,0.0,0.0,0.0,0.0,0.0,0.0,0.0,0.0,0.0,-4.8664,-4.8064,-4.7378,-4.7968,-4.8925,-4.9058,-4.9396,-4.9744,-4.9713,-4.95,-4.929,-4.926,-4.9596,-5.0317,-5.1709,-5.3131,0.0,0.0,-5.6884,-5.7601,-5.7601,-5.7721,-5.7862,-5.7973,0.0,0.0,0.0,0.0,-6.1513,0.0,0.0,0.0,0.0,0.0,0.0,0.0,0.0,0.0,-6.7235,-6.7311,-6.773,-6.8628,-6.8191,-6.7863,-6.7714,-6.7687,-6.7687,-6.7687,-6.7687,-6.7687,-6.7687,-6.7687,-6.7687,-6.7687,0.0,0.0,-6.7659,-6.6971,-6.6145,-6.5246,-6.4567,-6.3686,-6.278,-6.278,-6.2342,-6.164,0.0,0.0,0.0,0.0,0.0,0.0,0.0,0.0,0.0,-3.79,-3.79,-3.79,0.0,0.0,0.0,0.0,0.0,0.0,0.0,0.0,0.0,0.0,0.0,0.0,0.0,0.0,0.0,0.0,0.0,0.0,0.0,0.0,0.0,0.0,0.0,0.0,0.0,0.0,0.0,0.0,0.0,0.0,0.0,0.0,0.0,0.0,0.0,0.0,0.0,0.0,-4.9407,-4.9061,-4.8166,-4.8366,-4.8944,-4.9222,-4.9496,-4.9649,-4.95,-4.932,-4.9199,-4.9107,-4.9605,-5.0365,-5.1441,0.0,0.0,0.0,-5.6678,-5.7528,-5.7601,-5.7697,0.0,0.0,0.0,0.0,0.0,0.0,0.0,0.0,0.0,0.0,0.0,0.0,0.0,0.0,0.0,0.0,-6.6783,-6.7484,-6.7984,-6.84,-6.7948,-6.7687,-6.7687,-6.7687,-6.7687,-6.7687,-6.7687,-6.7687,-6.7687,-6.7687,-6.7687,-6.7687,0.0,0.0,-6.7045,-6.6659,-6.5778,-6.464,-6.4237,-6.3576,-6.2755,-6.2438,-6.1933,-6.1283,0.0,0.0,0.0,0.0,0.0,0.0,0.0,-3.7901,-3.7505,-3.7762,-3.7808,-3.7854,-3.79,-3.79,-3.79,0.0,0.0,0.0,0.0,0.0,0.0,0.0,0.0,0.0,0.0,0.0,0.0,0.0,0.0,0.0,0.0,0.0,0.0,0.0,0.0,0.0,0.0,0.0,0.0,0.0,0.0,0.0,0.0,0.0,0.0,0.0,0.0,0.0,0.0,0.0,-5.0506,-5.0435,-4.9814,-4.9488,-4.946,-4.9859,-4.9919,-4.9795,-4.9341,-4.9168,-4.9138,-4.9032,-4.9678,-5.049,-5.1082,-5.2808,0.0,0.0,-5.6322,-5.7289,-5.751,0.0,0.0,0.0,0.0,0.0,0.0,0.0,0.0,0.0,0.0,0.0,0.0,0.0,0.0,0.0,0.0,0.0,0.0,-6.7435,-6.808,-6.8222,-6.7889,-6.7687,-6.7687,-6.7687,-6.7687,-6.7687,-6.7687,-6.7595,-6.743,-6.743,-6.7338,-6.7173,0.0,0.0,0.0,-6.6054,-6.5228,-6.4071,-6.3888,-6.3411,-6.273,-6.2131,-6.1482,-6.0808,0.0,0.0,0.0,0.0,0.0,0.0,0.0,-3.7527,-3.7214,-3.7505,-3.7551,-3.7611,-3.7854,-3.79,-3.79,0.0,0.0,0.0,0.0,0.0,0.0,0.0,0.0,0.0,0.0,0.0,0.0,0.0,0.0,0.0,0.0,0.0,0.0,0.0,0.0,0.0,0.0,0.0,0.0,0.0,0.0,0.0,0.0,0.0,0.0,0.0,0.0,0.0,0.0,0.0,0.0,-5.1992,-5.1912,-5.1455,-5.0875,-5.0802,0.0,0.0,-4.9447,-4.9107,-4.9001,-4.9001,-5.0067,-5.1133,-5.1168,0.0,0.0,-5.5208,-5.5991,-5.6749,-5.7313,0.0,0.0,0.0,0.0,0.0,0.0,0.0,0.0,0.0,0.0,0.0,0.0,0.0,0.0,0.0,0.0,0.0,0.0,-6.6413,-6.7014,-6.7731,-6.7741,-6.7687,-6.7687,-6.7687,-6.7687,-6.7687,-6.7687,-6.7302,-6.6604,-6.6604,-6.6219,-6.5521,0.0,0.0,0.0,-6.4622,-6.4218,-6.4016,-6.3227,-6.2879,-6.273,-6.2131,-6.1482,-6.0808,0.0,0.0,0.0,0.0,0.0,0.0,0.0,-3.7836,-3.7364,-3.7253,-3.7413,-3.7551,-3.7657,-3.7808,-3.79,0.0,0.0,0.0,0.0,0.0,0.0,0.0,0.0,0.0,0.0,0.0,0.0,-4.117,-4.1395,0.0,0.0,0.0,0.0,0.0,0.0,0.0,0.0,0.0,0.0,0.0,0.0,0.0,0.0,0.0,0.0,0.0,0.0,0.0,0.0,0.0,0.0,0.0,-5.3452,-5.3097,0.0,0.0,-5.0615,-5.026,-4.9328,-4.9032,-4.9001,-4.9001,-5.0118,-5.1185,-5.1185,0.0,0.0,-5.5231,-5.5915,-5.6582,-5.7289,0.0,0.0,0.0,0.0,0.0,0.0,0.0,0.0,0.0,0.0,0.0,0.0,0.0,0.0,0.0,0.0,0.0,0.0,-6.5423,-6.5925,-6.6256,-6.6256,-6.6256,-6.6256,-6.6256,-6.6256,-6.6256,-6.6256,-6.609,-6.5778,-6.5778,-6.5613,-6.5319,0.0,0.0,0.0,-6.4218,-6.3778,-6.3282,-6.2952,-6.278,-6.2661,-6.165,-6.112,-6.0748,0.0,0.0,0.0,0.0,0.0,0.0,-3.8812,-3.8041,-3.7445,-3.7275,-3.727,-3.7307,-3.7505,-3.7657,-3.7808,-3.79,0.0,0.0,0.0,0.0,0.0,0.0,0.0,0.0,0.0,0.0,-4.1071,-4.1881,-4.2155,-4.2493,0.0,0.0,0.0,0.0,0.0,0.0,0.0,0.0,0.0,0.0,0.0,0.0,0.0,0.0,0.0,0.0,0.0,0.0,0.0,0.0,0.0,0.0,0.0,0.0,0.0,0.0,-5.1066,-5.0586,-4.9605,-4.9171,-4.9001,-4.9001,-5.0118,-5.1185,0.0,0.0,0.0,-5.5236,-5.5733,-5.6294,-5.7188,0.0,0.0,0.0,0.0,0.0,0.0,0.0,0.0,0.0,0.0,0.0,0.0,0.0,0.0,0.0,0.0,0.0,0.0,-6.4255,-6.4806,-6.5283,-6.5319,-6.5319,-6.5319,-6.5319,-6.5319,-6.5319,-6.5319,-6.5191,-6.4952,-6.4952,-6.4806,0.0,0.0,0.0,0.0,-6.3723,-6.3356,-6.278,-6.278,-6.278,-6.2636,-6.1379,-6.0897,-6.0718,0.0,0.0,0.0,0.0,0.0,0.0,0.0,-3.7951,-3.7283,-3.7571,-3.7077,-3.6909,-3.7459,-3.7505,-3.7611,-3.7854,0.0,0.0,0.0,0.0,0.0,0.0,0.0,0.0,0.0,0.0,-4.229,-4.229,-4.268,-4.2896,-4.2896,-4.3373,-4.3624,0.0,0.0,0.0,0.0,0.0,0.0,0.0,0.0,0.0,0.0,0.0,0.0,0.0,0.0,0.0,0.0,0.0,0.0,0.0,0.0,0.0,0.0,0.0,-5.2372,-5.154,-5.0413,-4.956,-4.9001,-4.9001,-5.0118,-5.1185,0.0,0.0,-5.3849,-5.5134,-5.5385,-5.5791,-5.6966,-5.7412,0.0,0.0,0.0,0.0,0.0,0.0,0.0,0.0,0.0,0.0,0.0,0.0,0.0,0.0,0.0,0.0,0.0,0.0,-6.3594,-6.5264,-6.5319,-6.5319,-6.5319,-6.5319,-6.5319,-6.5319,-6.5319,-6.4879,-6.4108,-6.4108,0.0,0.0,0.0,0.0,0.0,-6.2798,-6.2798,-6.278,-6.278,-6.278,-6.2636,-6.1379,-6.0897,-6.0718,0.0,0.0,0.0,0.0,0.0,0.0,0.0,-3.8567,-3.8114,-3.7432,-3.7454,-3.745,-3.7253,-3.7551,-3.7808,-3.79,0.0,0.0,0.0,0.0,0.0,0.0,0.0,0.0,0.0,0.0,-4.2589,-4.3205,-4.3585,-4.4028,-4.448,-4.4896,-4.5348,-4.5758,-4.5363,0.0,0.0,0.0,0.0,0.0,0.0,0.0,0.0,0.0,0.0,0.0,0.0,0.0,0.0,0.0,0.0,0.0,0.0,0.0,0.0,-5.3577,0.0,0.0,-5.1097,-5.0693,-5.0507,-5.0507,-5.1234,-5.1961,-5.1961,0.0,-5.3734,-5.4565,-5.5087,-5.5647,-5.6447,-5.7145,0.0,0.0,0.0,0.0,0.0,0.0,0.0,0.0,0.0,0.0,0.0,0.0,0.0,0.0,0.0,0.0,0.0,0.0,-6.3037,-6.3551,-6.3594,-6.3594,-6.3594,-6.3594,-6.3594,-6.3594,-6.3594,-6.3466,-6.3209,-6.3209,0.0,0.0,0.0,0.0,0.0,-6.278,-6.278,-6.278,-6.278,-6.2559,-6.2086,-6.1236,-6.0646,-6.0174,0.0,0.0,0.0,0.0,0.0,0.0,0.0,-3.9057,-3.8668,-3.7914,-3.7741,-3.7575,-3.742,-3.7542,-3.7657,-3.79,0.0,0.0,0.0,0.0,0.0,0.0,0.0,0.0,-4.2655,-4.2976,-4.3427,-4.3981,-4.4366,-4.4799,-4.522,-4.5868,-4.6407,-4.6777,-4.6636,0.0,0.0,0.0,0.0,0.0,0.0,0.0,-5.2151,0.0,0.0,0.0,0.0,0.0,0.0,0.0,0.0,0.0,0.0,0.0,0.0,0.0,-5.3195,-5.2587,0.0,-5.1388,-5.1185,-5.1185,-5.1758,0.0,0.0,0.0,-5.3668,-5.4281,-5.4918,-5.5589,-5.6201,-5.7,0.0,0.0,0.0,0.0,0.0,0.0,0.0,0.0,0.0,0.0,0.0,0.0,0.0,0.0,0.0,0.0,0.0,0.0,-6.278,-6.278,-6.278,-6.278,-6.278,-6.278,-6.278,-6.278,-6.278,-6.278,-6.278,0.0,0.0,0.0,0.0,0.0,0.0,-6.278,-6.278,-6.278,-6.2559,-6.2237,-6.1769,-6.0903,-6.0313,-5.9838,0.0,0.0,0.0,0.0,0.0,0.0,0.0,0.0,0.0,0.0,-3.8001,-3.7516,-3.7859,-3.748,-3.7392,0.0,0.0,0.0,0.0,0.0,0.0,0.0,0.0,0.0,-4.3403,-4.4174,-4.461,-4.461,-4.5055,-4.5241,-4.5278,-4.634,-4.688,-4.6983,-4.7622,-4.7917,0.0,0.0,0.0,0.0,0.0,-5.2152,0.0,0.0,0.0,0.0,0.0,0.0,0.0,0.0,0.0,0.0,0.0,0.0,0.0,0.0,0.0,0.0,0.0,-5.1894,0.0,0.0,0.0,0.0,0.0,-5.2959,0.0,-5.4218,-5.4887,-5.556,-5.6128,-5.6992,0.0,0.0,0.0,0.0,0.0,0.0,0.0,0.0,0.0,0.0,0.0,0.0,0.0,0.0,0.0,0.0,0.0,0.0,0.0,-6.278,-6.278,-6.278,-6.278,-6.278,-6.278,-6.278,-6.278,-6.278,-6.278,0.0,0.0,0.0,0.0,0.0,0.0,-6.278,-6.278,-6.273,-6.2131,-6.1869,-6.1668,-6.0384,-5.9899,-5.9683,0.0,0.0,0.0,0.0,0.0,0.0,0.0,0.0,0.0,0.0,-3.8968,-3.8756,-3.7996,-3.8157,-3.8205,0.0,0.0,0.0,0.0,0.0,0.0,0.0,0.0,0.0,-4.4305,-4.4496,-4.461,-4.461,-4.54,-4.5857,-4.5969,-4.695,-4.7786,-4.8398,-4.8031,-4.816,0.0,0.0,0.0,0.0,-5.1678,-5.253,0.0,0.0,0.0,0.0,-5.4335,-5.4239,0.0,0.0,0.0,0.0,0.0,0.0,0.0,0.0,-5.3501,-5.3467,-5.3281,0.0,-5.2959,-5.2959,-5.3095,-5.323,0.0,0.0,-5.3534,-5.3668,-5.4614,-5.5443,-5.5589,0.0,0.0,0.0,0.0,0.0,0.0,0.0,0.0,0.0,0.0,0.0,0.0,0.0,0.0,0.0,0.0,0.0,0.0,0.0,0.0,-6.2798,-6.2596,-6.2596,-6.2798,-6.278,-6.278,-6.278,-6.278,-6.278,-6.278,0.0,0.0,0.0,0.0,0.0,0.0,-6.278,-6.278,-6.273,-6.2131,-6.1584,-6.0961,-5.9646,-5.8841,-5.8281,0.0,0.0,0.0,0.0,0.0,0.0,0.0,0.0,0.0,0.0,0.0,0.0,0.0,0.0,0.0,0.0,0.0,0.0,0.0,0.0,0.0,0.0,0.0,-4.3903,-4.4587,-4.461,-4.4761,-4.5104,-4.5713,-4.6253,-4.6728,-4.7671,-4.84,-4.8883,-4.8855,-4.9073,-4.9436,-4.983,-5.0442,-5.1154,-5.1895,0.0,0.0,0.0,0.0,0.0,-5.4143,-5.4045,0.0,-5.3882,-5.375,-5.3601,0.0,0.0,0.0,0.0,-5.3501,-5.3501,-5.3501,-5.3501,-5.3501,-5.3501,-5.3501,-5.3501,-5.3501,0.0,0.0,0.0,0.0,0.0,0.0,0.0,0.0,0.0,0.0,0.0,0.0,0.0,0.0,0.0,0.0,0.0,0.0,0.0,0.0,0.0,0.0,0.0,0.0,0.0,0.0,0.0,-6.2467,-6.2493,-6.2705,-6.2705,-6.2705,-6.2705,-6.2755,-6.278,-6.278,0.0,0.0,0.0,0.0,0.0,-6.278,-6.278,-6.278,-6.2668,-6.1408,-6.0698,-6.0202,-5.8521,-5.7704,-5.7288,0.0,0.0,0.0,0.0,0.0,0.0,0.0,0.0,0.0,0.0,0.0,0.0,0.0,0.0,0.0,0.0,0.0,0.0,0.0,0.0,0.0,0.0,0.0,-4.4381,-4.4587,-4.4723,-4.5067,-4.5697,-4.6092,-4.6692,-4.7423,-4.8368,-4.8903,-4.9101,-4.9725,-5.0011,-5.0011,-5.0011,-5.0373,-5.0981,-5.1722,0.0,0.0,0.0,0.0,0.0,0.0,0.0,0.0,-5.3684,-5.3568,-5.3501,-5.3501,0.0,0.0,0.0,0.0,0.0,-5.3501,-5.3416,-5.3348,-5.3467,-5.3501,-5.3501,-5.3501,0.0,0.0,0.0,0.0,0.0,0.0,-5.6021,0.0,0.0,0.0,0.0,0.0,0.0,0.0,0.0,0.0,0.0,0.0,0.0,0.0,0.0,0.0,0.0,0.0,0.0,0.0,0.0,-6.2053,-6.205,-6.2168,-6.2296,-6.2395,-6.2395,-6.2393,-6.2388,-6.2388,-6.2413,0.0,0.0,0.0,0.0,-6.2438,-6.2438,-6.2438,-6.224,-6.0356,-5.9605,-5.9371,-5.7341,-5.6615,-5.6512,0.0,0.0,0.0,0.0,0.0,0.0,0.0,0.0,0.0,0.0,0.0,0.0,0.0,0.0,0.0,0.0,0.0,0.0,0.0,0.0,0.0,-4.3762,-4.4127,-4.4381,-4.4587,-4.5216,-4.5588,-4.5697,-4.6967,-4.7737,-4.8014,-4.8934,-4.9547,-4.983,-4.9935,-5.0011,-5.0011,-5.0011,-5.008,-5.0206,-5.0845,0.0,0.0,0.0,0.0,0.0,0.0,0.0,0.0,-5.3584,-5.3534,-5.3501,-5.3501,0.0,0.0,0.0,0.0,0.0,-5.3501,-5.301,-5.2655,-5.3331,-5.3501,-5.3501,-5.3501,-5.3501,0.0,0.0,0.0,0.0,0.0,0.0,0.0,0.0,0.0,0.0,0.0,0.0,0.0,0.0,0.0,0.0,0.0,0.0,0.0,0.0,0.0,0.0,0.0,0.0,0.0,0.0,0.0,-6.009,-6.0227,-6.1022,-6.1401,-6.1401,-6.0877,-6.0597,-6.0597,-6.0719,-6.0768,0.0,0.0,0.0,-6.0768,-6.0768,-6.0768,-6.0628,-5.9303,-5.8774,-5.8541,-5.654,-5.5788,-5.5684,0.0,0.0,0.0,0.0,0.0,0.0,0.0,0.0,0.0,0.0,0.0,0.0,0.0,0.0,0.0,0.0,0.0,0.0,0.0,0.0,0.0,-4.4127,-4.4746,-4.5104,-4.5179,-4.5531,-4.6111,-4.6898,-4.7572,-4.824,-4.8855,-4.9471,-4.9848,-5.0011,-5.0011,-5.0011,-5.0011,-4.9889,-5.0054,-5.0484,0.0,0.0,0.0,0.0,0.0,0.0,0.0,0.0,0.0,0.0,-5.3501,-5.3501,-5.3501,0.0,0.0,0.0,0.0,0.0,-5.3501,-5.323,-5.2942,-5.2875,-5.2553,-5.2266,-5.2266,-5.257,0.0,0.0,0.0,0.0,0.0,0.0,0.0,0.0,0.0,0.0,0.0,0.0,0.0,0.0,0.0,0.0,0.0,0.0,0.0,0.0,0.0,0.0,0.0,0.0,0.0,0.0,0.0,0.0,-5.9701,-5.968,-5.9939,-6.0435,-6.0197,-6.009,-6.009,-6.0213,-6.0304,0.0,0.0,-6.0401,-6.0401,-6.0401,-6.0231,-5.9834,-5.8528,-5.7818,-5.7323,-5.5633,-5.5029,-5.4977,0.0,0.0,0.0,0.0,0.0,0.0,0.0,0.0,0.0,0.0,0.0,0.0,0.0,0.0,0.0,0.0,0.0,0.0,0.0,0.0,-4.4217,-4.422,-4.5163,-4.5697,-4.5697,-4.604,-4.6761,-4.7885,-4.8064,-4.8623,-4.9518,-4.9772,-4.9906,-5.0011,-4.9935,-4.9935,-4.9935,-4.9914,-5.0249,-5.0802,0.0,0.0,0.0,0.0,0.0,0.0,0.0,0.0,0.0,0.0,0.0,0.0,0.0,0.0,0.0,-5.3501,-5.3501,-5.3501,-5.3501,-5.3365,-5.3078,-5.2452,-5.2029,-5.1657,-5.1269,-5.1928,-5.2536,0.0,0.0,0.0,0.0,0.0,0.0,0.0,0.0,0.0,0.0,0.0,0.0,0.0,0.0,0.0,0.0,0.0,0.0,0.0,0.0,0.0,0.0,0.0,0.0,0.0,0.0,0.0,-5.9054,-5.8438,-5.8562,-5.947,-5.9415,-5.9375,-5.94,-5.9523,-5.9615,-5.964,-5.9736,-5.9808,-5.985,-5.985,-5.9523,-5.8901,-5.7711,-5.6761,-5.5986,-5.489,-5.4512,-5.4512,0.0,0.0,0.0,0.0,0.0,0.0,0.0,0.0,0.0,0.0,0.0,0.0,0.0,0.0,0.0,0.0,0.0,0.0,0.0,0.0,-4.468,-4.4042,-4.5089,-4.5697,-4.5697,-4.7035,-4.7787,-4.7885,-4.8593,-4.9124,-4.9518,-4.9518,-4.9713,-5.0011,-4.9813,-4.9708,-4.9759,-5.03,-5.0581,-5.0683,-5.1279,0.0,0.0,0.0,0.0,0.0,0.0,0.0,0.0,0.0,0.0,0.0,0.0,0.0,-5.3501,-5.3501,-5.3501,-5.3501,-5.3501,-5.2959,-5.2367,-5.2317,-5.2824,-5.2959,-5.1539,-5.2367,-5.3213,-5.2452,0.0,0.0,0.0,0.0,0.0,0.0,0.0,0.0,0.0,0.0,0.0,0.0,0.0,0.0,0.0,0.0,0.0,0.0,0.0,0.0,0.0,0.0,0.0,0.0,0.0,0.0,-5.7369,-5.7315,-5.7695,-5.85,-5.7883,-5.7594,-5.7594,-5.7717,-5.7856,-5.7956,-5.7998,-5.8069,-5.8162,-5.8162,-5.7819,-5.7228,-5.6626,-5.5677,-5.4644,-5.4529,-5.4512,-5.4512,0.0,0.0,0.0,0.0,0.0,0.0,0.0,0.0,0.0,0.0,0.0,0.0,0.0,0.0,0.0,0.0,0.0,0.0,0.0,-4.5662,-4.5795,-4.6168,-4.7146,-4.7929,-4.8423,-4.8067,-4.8129,-4.8576,-4.8954,-4.9199,-4.9337,-4.9905,-5.0009,-4.97,-5.0103,-5.0005,-4.9577,-4.9687,-5.0291,-5.1177,-5.1259,-5.2059,0.0,0.0,0.0,0.0,0.0,0.0,0.0,0.0,-5.3501,0.0,0.0,0.0,-5.2858,-5.3348,-5.3145,-5.2858,-5.3365,-5.2909,-5.23,-5.23,-5.2536,0.0,0.0,-5.1674,-5.2672,-5.2367,-5.3298,0.0,0.0,0.0,0.0,0.0,0.0,0.0,0.0,0.0,0.0,0.0,0.0,0.0,0.0,0.0,0.0,0.0,0.0,0.0,0.0,0.0,0.0,0.0,0.0,0.0,0.0,-5.7188,-5.7351,-5.7641,-5.7402,-5.7282,-5.7264,-5.7412,-5.7553,-5.7673,-5.7768,-5.7881,-5.7997,-5.7997,-5.7449,-5.6519,-5.556,-5.4896,-5.4512,-5.4512,-5.4512,-5.4512,0.0,0.0,0.0,0.0,0.0,0.0,0.0,0.0,0.0,0.0,0.0,0.0,0.0,0.0,0.0,0.0,0.0,0.0,-4.656,-4.6429,-4.6659,-4.7478,-4.8407,-4.9273,-5.0089,-4.9327,-4.9169,-4.9695,-4.9788,-4.9865,-4.9943,-5.0563,-5.0503,-4.9863,-5.0332,-5.0114,-4.9398,-4.9454,-5.0071,-5.1087,-5.1148,-5.1843,0.0,0.0,0.0,0.0,0.0,0.0,0.0,0.0,0.0,0.0,0.0,0.0,0.0,0.0,-5.2384,-5.208,-5.2621,-5.2553,-5.2249,-5.2012,0.0,0.0,-5.0794,-5.1606,-5.2604,-5.235,-5.3518,-5.4752,-5.526,0.0,0.0,0.0,0.0,0.0,0.0,0.0,0.0,0.0,0.0,0.0,0.0,0.0,0.0,0.0,0.0,0.0,0.0,0.0,0.0,0.0,0.0,0.0,0.0,-5.6915,-5.701,-5.7188,-5.7188,-5.7188,-5.7188,-5.7307,-5.7412,-5.7534,-5.7673,-5.7815,-5.795,-5.7973,-5.7327,-5.6193,-5.497,-5.4512,-5.4512,-5.4512,-5.4356,-5.4149,0.0,0.0,0.0,0.0,0.0,0.0,0.0,0.0,0.0,0.0,0.0,0.0,0.0,0.0,0.0,0.0,0.0,0.0,-4.6644,-4.6868,-4.7165,-4.7516,-4.8444,-4.9325,-5.0105,-5.0842,-5.1202,-5.1185,-5.1185,-5.1314,-5.1522,-5.149,-5.1194,-5.0602,-5.0464,-4.9977,-4.925,-4.9825,-5.0084,-5.0152,-5.0913,-5.1185,-5.1269,0.0,0.0,0.0,0.0,0.0,0.0,0.0,-5.3501,0.0,0.0,0.0,0.0,0.0,-5.1185,-5.1185,-5.1217,-5.1742,-5.2131,-5.142,0.0,0.0,-5.1589,-5.2418,-5.3281,-5.2486,-5.3534,-5.4583,-5.4583,0.0,0.0,0.0,0.0,0.0,0.0,0.0,0.0,0.0,0.0,0.0,0.0,0.0,0.0,0.0,0.0,0.0,0.0,0.0,0.0,0.0,0.0,0.0,0.0,-5.6284,-5.6582,-5.7188,-5.717,-5.7188,-5.7188,-5.7188,-5.7264,-5.7406,-5.7534,-5.7655,-5.7792,-5.7909,-5.7309,-5.6148,-5.4953,-5.4494,-5.4494,-5.4494,-5.4029,-5.3391,0.0,0.0,0.0,0.0,0.0,0.0,0.0,0.0,0.0,0.0,0.0,0.0,0.0,0.0,0.0,0.0,0.0,0.0,-4.7295,-4.809,-4.8903,-4.9729,-5.0717,-5.168,-5.2488,-5.2724,-5.23,-5.1185,-5.1185,-5.1217,-5.1298,-5.1807,-5.1686,-5.1024,-5.0992,-5.0536,-4.9808,-4.9472,-4.9627,-5.0152,-5.0913,-5.1522,-5.2063,0.0,0.0,0.0,0.0,0.0,0.0,0.0,0.0,0.0,0.0,0.0,0.0,0.0,-5.1185,-5.1319,-5.1843,-5.1758,0.0,-5.2604,0.0,0.0,0.0,-5.3179,0.0,0.0,0.0,-5.4583,-5.4583,0.0,0.0,0.0,0.0,0.0,0.0,0.0,0.0,0.0,0.0,0.0,0.0,0.0,0.0,0.0,0.0,0.0,0.0,0.0,0.0,0.0,0.0,0.0,0.0,0.0,-5.5571,-5.5713,-5.5613,-5.6156,-5.7188,-5.7188,-5.7264,-5.737,-5.6927,-5.6624,-5.6308,-5.5067,-5.4357,-5.3961,-5.3189,-5.286,-5.286,-5.286,-5.2722,-5.258,0.0,0.0,0.0,0.0,0.0,0.0,0.0,0.0,0.0,0.0,-4.2199,-4.3163,0.0,0.0,0.0,0.0,0.0,0.0,0.0,-4.8846,-4.9821,-5.1278,-5.1951,-5.2694,-5.3467,-5.3501,-5.3044,-5.2131,-5.2131,-5.2131,-5.2131,-5.257,-5.2215,-5.1185,-5.1185,-5.0642,-4.9627,-4.9187,-4.9424,-5.0135,-5.0591,-5.12,-5.1961,0.0,0.0,0.0,0.0,0.0,0.0,0.0,0.0,0.0,0.0,0.0,0.0,-5.0507,-5.0541,-5.0811,-5.0947,-5.1319,0.0,-5.2063,-5.2131,-5.2367,-5.3298,0.0,0.0,0.0,0.0,0.0,0.0,0.0,0.0,0.0,0.0,0.0,0.0,0.0,0.0,0.0,0.0,0.0,0.0,0.0,0.0,0.0,0.0,0.0,0.0,0.0,0.0,0.0,0.0,0.0,0.0,0.0,0.0,-5.4293,-5.4214,-5.4665,-5.5587,-5.6071,-5.6332,-5.6388,-5.5837,-5.5529,-5.5284,-5.3742,-5.3096,-5.3039,-5.2441,-5.2188,-5.2188,-5.2188,-5.1998,-5.174,0.0,0.0,0.0,0.0,0.0,0.0,0.0,0.0,0.0,0.0,-4.2284,-4.3307,0.0,0.0,0.0,0.0,0.0,0.0,0.0,0.0,-5.029,-5.2236,-5.2378,-5.2747,-5.3467,-5.3501,-5.3501,-5.3501,-5.3501,-5.3501,-5.3501,-5.3433,-5.2655,-5.1319,-5.1219,-5.0473,-4.9204,-4.9204,-4.9593,-5.0202,-5.0253,-5.0693,-5.1403,-5.2131,0.0,0.0,0.0,0.0,0.0,0.0,0.0,0.0,0.0,0.0,-5.0898,-4.9441,-4.9509,-4.9965,-4.9373,0.0,0.0,-5.071,-5.1961,0.0,-5.3501,-5.3501,-5.3501,0.0,0.0,0.0,0.0,0.0,0.0,0.0,0.0,0.0,0.0,0.0,0.0,0.0,0.0,0.0,0.0,0.0,0.0,0.0,0.0,0.0,0.0,0.0,0.0,0.0,0.0,0.0,0.0,0.0,0.0,0.0,-5.2895,-5.2888,-5.2933,-5.4223,-5.4828,-5.4798,-5.4395,-5.433,-5.443,-5.3281,-5.28,-5.2744,-5.2216,-5.1981,-5.1981,-5.1981,-5.1597,-5.1011,0.0,0.0,0.0,0.0,0.0,0.0,0.0,0.0,0.0,0.0,0.0,0.0,0.0,0.0,0.0,0.0,0.0,0.0,0.0,0.0,-5.161,-5.2272,-5.2903,-5.3314,-5.3518,-5.3501,-5.3501,-5.3501,-5.3501,-5.3501,-5.3501,-5.2858,-5.2384,-5.2046,-5.1471,-5.0999,-5.0744,-5.0744,-5.0828,-5.1014,-5.1589,-5.1928,-5.2147,-5.2942,-5.3247,0.0,0.0,0.0,0.0,0.0,0.0,0.0,-5.1708,-5.1185,-5.0898,-4.9441,-4.9509,-5.0185,0.0,-5.1082,0.0,0.0,0.0,0.0,0.0,0.0,0.0,0.0,0.0,0.0,0.0,0.0,0.0,0.0,0.0,0.0,0.0,0.0,0.0,0.0,0.0,0.0,0.0,0.0,0.0,0.0,0.0,0.0,0.0,0.0,0.0,0.0,0.0,0.0,-5.1424,-5.1308,-5.1329,0.0,-5.1284,-5.1216,-5.1279,-5.3289,-5.4186,-5.4145,-5.3243,-5.2638,-5.2201,-5.1119,-5.0662,-5.0662,-5.0535,-5.0476,-5.0476,-5.0476,-5.0373,-5.0252,0.0,0.0,0.0,0.0,0.0,0.0,0.0,0.0,0.0,0.0,0.0,0.0,0.0,0.0,0.0,0.0,0.0,0.0,0.0,0.0,0.0,-5.2834,-5.328,-5.3501,-5.3501,-5.3501,-5.3501,-5.3501,-5.3501,-5.3501,-5.3501,-5.3078,-5.2672,-5.2283,-5.1911,-5.1539,-5.1185,-5.1185,-5.142,-5.1775,-5.2147,-5.2536,-5.2926,-5.3348,-5.3501,-5.3501,-5.3501,0.0,0.0,0.0,0.0,0.0,0.0,0.0,-5.0456,-4.934,-4.9779,-5.0642,0.0,0.0,0.0,0.0,0.0,0.0,0.0,0.0,0.0,0.0,0.0,0.0,0.0,0.0,0.0,0.0,0.0,0.0,0.0,0.0,0.0,0.0,0.0,0.0,0.0,0.0,0.0,0.0,0.0,0.0,0.0,0.0,0.0,0.0,0.0,0.0,-5.0168,-5.0087,-5.0034,-5.0034,-4.9946,-5.0039,-5.0366,-5.1775,-5.2462,-5.2489,-5.1759,-5.1289,-5.1017,-5.0302,-5.0011,-5.0011,-5.0011,-5.0011,-5.0011,-5.0011,-5.0011,-5.0011,0.0,0.0,0.0,0.0,0.0,0.0,0.0,0.0,0.0,0.0,0.0,0.0,0.0,0.0,0.0,0.0,0.0,0.0,0.0,0.0,0.0,-5.3467,-5.3501,-5.3501,-5.3501,-5.3501,-5.3501,-5.3501,-5.3501,-5.3433,-5.3298,-5.3298,-5.2875,-5.2131,-5.2249,-5.1961,-5.142,-5.1555,-5.1961,-5.252,-5.252,-5.2909,-5.3501,-5.3501,-5.3501,-5.3501,-5.3501,-5.3501,-5.3501,-5.3501,0.0,0.0,0.0,0.0,-4.9949,-4.9221,-4.9965,-5.0913,0.0,0.0,0.0,0.0,0.0,0.0,0.0,0.0,0.0,0.0,0.0,0.0,0.0,0.0,0.0,0.0,0.0,0.0,0.0,0.0,0.0,0.0,0.0,0.0,0.0,0.0,0.0,0.0,0.0,0.0,0.0,0.0,0.0,0.0,0.0,-4.961,-4.9018,-4.9001,-4.9001,-4.9001,-4.9001,-4.926,-4.9744,-5.0192,-5.0589,-5.0885,-5.0512,-5.0418,-5.046,-5.0086,-4.9964,-5.0011,-5.0011,-5.0011,-5.0011,-5.0011,-5.0011,-5.0011,0.0,0.0,0.0,0.0,0.0,0.0,0.0,0.0,0.0,0.0,-4.5121,0.0,0.0,0.0,0.0,0.0,0.0,0.0,-5.1614,0.0,0.0,-5.3501,-5.3501,-5.3501,-5.3501,-5.3501,-5.3501,-5.3501,-5.3501,-5.3145,-5.2469,-5.2469,-5.2063,-5.1354,-5.2012,-5.2249,-5.2198,-5.2909,-5.3264,-5.3348,-5.3348,-5.3399,-5.3501,-5.3501,-5.3501,-5.3501,-5.3501,-5.3501,-5.3501,-5.3501,-5.2976,0.0,0.0,0.0,-4.9949,-4.9221,-4.9593,-5.0355,0.0,0.0,0.0,0.0,0.0,0.0,0.0,0.0,0.0,0.0,0.0,0.0,0.0,0.0,0.0,0.0,0.0,0.0,0.0,0.0,0.0,0.0,0.0,0.0,0.0,0.0,0.0,0.0,0.0,0.0,0.0,0.0,-4.9255,-4.9154,-4.9154,0.0,-4.9001,-4.9001,-4.9001,-4.9001,-4.9001,-4.9032,-4.9107,-4.9182,-4.9855,-5.0858,-5.0366,-5.03,-5.046,-4.9936,-4.986,-5.0011,-5.0011,-5.0011,-5.0011,-5.0011,-5.0011,-5.0011,0.0,0.0,0.0,0.0,0.0,0.0,0.0,0.0,0.0,0.0,0.0,-4.6385,0.0,0.0,0.0,-4.8702,-4.9773,-5.1096,-5.2679,-5.323,-5.3501,-5.3501,-5.3501,-5.3501,-5.3501,-5.3501,-5.3501,-5.3501,-5.3501,-5.3095,-5.2317,-5.2756,-5.257,-5.186,-5.2638,-5.2976,-5.301,-5.3348,-5.3501,-5.3501,-5.3501,-5.323,-5.2892,-5.3331,-5.323,-5.2892,-5.3348,-5.3213,-5.2841,-5.2841,-5.2046,-5.0997,-5.0693,0.0,0.0,0.0,-5.0135,0.0,0.0,0.0,0.0,0.0,0.0,0.0,0.0,0.0,0.0,0.0,0.0,0.0,0.0,0.0,0.0,0.0,0.0,0.0,0.0,0.0,0.0,0.0,0.0,0.0,0.0,0.0,0.0,0.0,0.0,0.0,0.0,-4.9001,-4.9001,-4.9001,-4.9001,0.0,-4.9001,-4.9001,-4.9001,-4.9001,-4.9001,-4.9001,-4.9001,-4.9001,-4.9303,-4.9826,-4.9774,-4.982,-4.9919,-4.9901,-4.9935,-5.0011,-5.0011,-5.0011,-5.0011,-5.0011,-5.0011,-5.0011,0.0,0.0,0.0,0.0,0.0,0.0,0.0,0.0,0.0,0.0,0.0,0.0,0.0,0.0,0.0,0.0,-4.9931,-5.1299,-5.3348,-5.3501,-5.3501,-5.3501,-5.3501,-5.3501,-5.3501,-5.3501,-5.3399,-5.3196,-5.3196,-5.279,-5.2046,-5.2841,-5.2875,-5.2334,-5.3145,-5.3501,-5.3501,-5.3501,-5.3501,-5.345,-5.3061,-5.2556,-5.2068,-5.2286,-5.2,-5.1547,-5.2371,-5.2236,-5.1764,-5.1963,-5.1166,-5.0084,-5.0084,-4.9593,0.0,0.0,0.0,0.0,0.0,0.0,0.0,0.0,0.0,0.0,0.0,0.0,0.0,0.0,0.0,0.0,0.0,0.0,0.0,0.0,0.0,0.0,0.0,0.0,0.0,0.0,0.0,0.0,0.0,0.0,0.0,0.0,0.0,0.0,-4.9001,-4.9001,-4.9001,-4.9001,-4.9001,-4.9001,-4.9001,-4.9001,-4.9001,-4.9001,-4.9001,-4.9001,-4.9001,-4.9001,-4.9001,-4.9001,-4.9307,-4.9458,-4.9518,-4.9801,-4.9964,-5.0011,-5.0011,-5.0011,-5.0011,-5.0011,-5.0011,-5.0011,0.0,0.0,0.0,0.0,0.0,0.0,0.0,0.0,0.0,0.0,0.0,0.0,-4.7309,-4.7309,-4.8046,-4.9891,-5.0242,-5.1299,-5.3348,-5.3501,-5.3501,-5.3501,-5.3501,0.0,-5.3501,-5.3501,-5.3129,-5.2367,-5.2367,-5.1995,-5.1252,-5.2029,-5.2334,-5.2334,-5.3145,-5.3501,-5.3501,-5.3501,-5.3501,-5.3366,-5.1911,-5.1302,-5.1116,-4.9755,-4.9193,-4.9268,-5.0017,-5.0256,-5.0325,-5.1024,-5.0744,-5.0084,-5.0084,-4.9593,-4.9018,0.0,0.0,0.0,0.0,0.0,0.0,0.0,0.0,0.0,0.0,0.0,0.0,0.0,0.0,0.0,0.0,0.0,0.0,0.0,0.0,0.0,0.0,0.0,0.0,0.0,0.0,0.0,0.0,0.0,0.0,0.0,0.0,0.0,-4.9001,-4.9001,-4.9001,-4.9001,-4.9001,-4.9001,-4.9001,-4.9001,-4.9001,-4.9001,-4.9001,-4.9001,-4.9001,-4.9001,-4.9001,-4.9001,-4.9138,-4.932,-4.9518,-4.9666,-4.983,-5.0011,-5.0011,-5.0011,-5.0011,-5.0011,-5.0011,-5.0011,0.0,0.0,0.0,0.0,0.0,0.0,0.0,0.0,0.0,0.0,0.0,0.0,0.0,-4.7055,-4.8046,-4.9931,-5.141,-5.2574,-5.3433,-5.3501,-5.3501,-5.3501,-5.3501,-5.3501,-5.3501,-5.2993,-5.2587,-5.23,-5.1843,-5.1471,-5.1217,-5.1488,-5.186,-5.2334,-5.3145,-5.3501,-5.3501,-5.3501,-5.3212,-5.2646,-5.1619,-5.0622,-4.9717,-4.9644,-4.9102,-4.8456,-4.9616,-4.9758,-4.9443,-4.9693,-4.9616,-4.939,-4.939,-4.9221,-4.9086,-4.956,-5.0422,0.0,0.0,0.0,0.0,0.0,0.0,0.0,0.0,0.0,0.0,0.0,0.0,0.0,0.0,0.0,0.0,0.0,0.0,0.0,0.0,0.0,0.0,0.0,0.0,0.0,0.0,0.0,0.0,0.0,0.0,0.0,-4.9001,-4.9001,-4.9001,-4.9001,-4.9001,-4.9001,-4.9001,-4.9001,-4.9001,-4.9001,-4.9001,-4.9001,-4.9001,-4.9001,-4.9001,-4.9001,-4.9138,-4.932,-4.9518,-4.9801,-4.9935,-5.0011,-5.0011,-5.0011,-5.0011,-5.0011,-4.9935,-4.9813,0.0,0.0,0.0,0.0,0.0,0.0,0.0,0.0,0.0,-4.4915,0.0,0.0,0.0,0.0,-4.7787,-4.9915,-5.1954,-5.3179,-5.3382,-5.3467,-5.3501,-5.3501,-5.3247,-5.3112,-5.3112,-5.2334,0.0,0.0,0.0,0.0,0.0,-5.0845,-5.1369,-5.2317,-5.2858,-5.3247,-5.3467,-5.3212,-5.2799,-5.2189,-5.067,-4.9576,-4.8854,-4.8632,-4.8258,-4.7979,0.0,0.0,0.0,-4.863,-4.8642,-4.8688,-4.8923,-4.9001,-4.9137,-4.9864,-5.0439,-5.0896,-5.1117,0.0,0.0,0.0,0.0,0.0,0.0,0.0,0.0,0.0,0.0,0.0,0.0,0.0,0.0,0.0,0.0,0.0,0.0,0.0,0.0,0.0,0.0,0.0,0.0,0.0,0.0,0.0,0.0,0.0,-4.8258,-4.8482,-4.875,-4.9001,-4.9001,-4.9001,-4.9001,-4.9001,-4.9001,-4.9001,-4.9001,-4.9001,-4.9001,-4.9001,-4.9001,-4.9001,-4.9138,-4.932,-4.9518,-4.9801,-4.9889,-4.9889,-4.9889,-4.986,-4.9848,-4.9848,-4.9742,-4.9619,0.0,0.0,0.0,0.0,0.0,0.0,0.0,0.0,-4.4287,-4.4287,0.0,0.0,0.0,0.0,0.0,-4.9843,-5.178,-5.2905,-5.3111,-5.3315,-5.3433,-5.3433,-5.2689,-5.2266,-5.2266,0.0,0.0,0.0,0.0,0.0,0.0,0.0,-5.0845,-5.2233,-5.2233,-5.2689,-5.3382,0.0,-5.2272,-5.196,0.0,-4.8184,-4.8527,-4.6416,0.0,0.0,-4.6924,-4.7169,0.0,-4.7852,0.0,0.0,-4.8767,-4.9001,-4.9137,-4.9847,-5.005,-5.0219,0.0,0.0,0.0,0.0,0.0,0.0,0.0,0.0,0.0,0.0,0.0,0.0,0.0,0.0,0.0,0.0,0.0,0.0,0.0,0.0,0.0,0.0,0.0,0.0,0.0,0.0,0.0,0.0,0.0,-4.6811,-4.6811,-4.7489,-4.8242,-4.897,-4.9001,-4.9001,-4.9001,-4.9001,-4.9001,-4.9001,-4.9001,-4.9001,-4.9001,-4.9001,-4.9001,-4.9001,-4.9138,-4.932,-4.9518,-4.9649,-4.9708,-4.9708,-4.9708,-4.9619,-4.9518,-4.9518,-4.9488,-4.9488,0.0,0.0,0.0,0.0,0.0,0.0,-4.2835,-4.3319,-4.3559,0.0,0.0,0.0,-4.4586,-4.6205,-4.7891,-4.9321,-5.0597,-5.138,-5.1597,-5.1745,-5.186,-5.186,-5.164,-5.1522,-5.1522,0.0,0.0,0.0,0.0,0.0,0.0,0.0,0.0,0.0,-5.0777,-5.1204,-5.2117,-5.2046,0.0,-5.0403,-4.8412,-4.7433,0.0,0.0,0.0,0.0,0.0,-4.609,-4.6295,0.0,-4.7035,-4.8032,-4.8767,-4.9001,-4.9035,-4.9238,-4.9306,-4.9357,-4.956,0.0,0.0,0.0,0.0,0.0,0.0,0.0,0.0,0.0,0.0,0.0,0.0,0.0,0.0,0.0,0.0,0.0,0.0,0.0,0.0,0.0,0.0,0.0,0.0,0.0,0.0,0.0,0.0,-4.6811,-4.6811,-4.7489,-4.8242,-4.897,-4.9001,-4.9001,-4.9001,-4.9001,-4.9001,-4.9001,-4.9001,-4.9001,-4.9001,-4.9001,-4.9001,-4.9001,-4.9032,-4.9138,-4.929,-4.9471,-4.9577,-4.9577,-4.9577,-4.953,-4.9518,-4.9518,-4.9411,-4.929,0.0,0.0,0.0,0.0,0.0,0.0,-4.321,-4.329,-4.329,0.0,0.0,0.0,-4.4287,-4.6121,-4.7643,-4.8485,-4.9813,-5.0627,-5.0726,-5.0892,-5.0973,-5.0973,-5.0687,-5.0518,-5.0518,0.0,0.0,0.0,0.0,0.0,0.0,0.0,0.0,0.0,0.0,0.0,0.0,0.0,0.0,0.0,-4.7731,0.0,0.0,-4.5957,-4.5727,0.0,0.0,0.0,-4.6112,-4.5792,-4.6499,0.0,0.0,-4.8545,-4.8593,-4.8909,-4.9001,-4.9001,-4.9001,-4.8767,-4.8545,0.0,0.0,0.0,0.0,-4.8542,0.0,0.0,0.0,0.0,0.0,0.0,0.0,0.0,0.0,0.0,0.0,0.0,0.0,0.0,0.0,0.0,0.0,0.0,0.0,0.0,-4.6056,-4.602,-4.6324,-4.6761,-4.7439,-4.8513,-4.8545,-4.8688,-4.9001,-4.9001,-4.9001,-4.9001,-4.9001,-4.9001,-4.9001,-4.9001,-4.9001,-4.9001,-4.9001,-4.9032,-4.9124,-4.9246,-4.932,-4.9381,-4.9381,-4.9337,-4.9307,-4.9307,-4.9216,-4.9124,0.0,0.0,0.0,0.0,0.0,0.0,0.0,-4.329,-4.329,0.0,-4.329,-4.3554,-4.4258,-4.5726,-4.694,-4.7547,-4.9167,-5.0176,-5.0176,-5.0326,-5.0458,-5.0458,-4.9823,-4.9471,-4.9471,0.0,0.0,0.0,0.0,0.0,0.0,0.0,0.0,0.0,0.0,0.0,0.0,0.0,0.0,-4.8934,-4.7062,-4.6793,0.0,0.0,-4.6345,-4.7246,-4.5936,-4.5932,-4.6466,-4.5902,-4.6182,0.0,0.0,0.0,0.0,-4.8688,-4.8829,-4.8767,-4.8861,-4.8338,-4.7787,-4.7787,0.0,0.0,-4.7721,-4.777,-4.7704,0.0,0.0,0.0,0.0,0.0,0.0,0.0,0.0,0.0,0.0,0.0,0.0,0.0,0.0,0.0,0.0,0.0,0.0,-4.5588,-4.4971,-4.4933,-4.566,-4.5697,-4.6394,-4.7852,-4.7885,-4.8257,-4.9001,-4.9001,-4.9001,-4.9001,-4.9001,-4.9001,-4.9001,-4.9001,-4.9001,-4.9001,-4.9001,-4.9001,-4.9001,-4.9001,-4.9063,-4.9168,-4.9168,-4.9107,-4.9001,-4.9001,-4.9001,-4.9001,-4.1561,0.0,0.0,0.0,0.0,0.0,0.0,-4.329,-4.329,-4.329,-4.329,-4.3611,-4.4365,-4.535,-4.6203,-4.692,-4.7966,-4.8611,-4.8611,-4.8822,-4.8934,-4.8934,-4.8768,-4.8701,-4.8701,-4.855,0.0,0.0,0.0,0.0,0.0,0.0,0.0,0.0,0.0,0.0,0.0,0.0,0.0,-4.6452,-4.6494,0.0,-4.6229,-4.5437,-4.5054,-4.4941,-4.4665,-4.4772,-4.5104,-4.5541,-4.6182,-4.6811,0.0,0.0,0.0,-4.8064,0.0,-4.7355,-4.7967,-4.7589,-4.7017,0.0,0.0,0.0,-4.7716,-4.6991,-4.6468,0.0,0.0,0.0,0.0,0.0,0.0,0.0,0.0,0.0,0.0,0.0,0.0,0.0,0.0,0.0,0.0,0.0,-4.5458,-4.4858,-4.4685,-4.4933,-4.566,-4.5697,-4.6394,-4.7852,-4.7885,-4.8257,-4.9001,-4.9001,-4.9001,-4.9001,-4.9001,-4.9001,-4.9001,-4.9001,-4.9001,-4.9001,-4.9001,-4.9001,-4.9001,-4.9001,-4.9001,-4.9032,-4.9032,-4.9032,-4.9001,-4.9001,-4.9001,-4.9001,-4.1908,0.0,0.0,0.0,0.0,0.0,0.0,-4.329,-4.329,-4.329,-4.329,-4.3448,-4.3849,-4.4999,-4.5841,-4.6218,-4.7371,-4.8115,-4.8115,-4.8179,-4.8244,-4.8244,-4.8244,-4.8244,-4.8244,-4.7869,0.0,0.0,0.0,0.0,0.0,0.0,0.0,0.0,0.0,0.0,0.0,0.0,-4.5455,-4.5556,-4.5955,0.0,-4.5439,-4.4747,-4.4354,-4.4127,-4.4127,-4.4281,-4.4511,-4.4896,-4.5311,0.0,0.0,-4.6499,-4.6864,0.0,-4.7085,-4.688,0.0,0.0,0.0,-4.6253,0.0,0.0,0.0,-4.6223,-4.59,0.0,0.0,0.0,0.0,0.0,0.0,0.0,0.0,0.0,0.0,0.0,0.0,0.0,0.0,0.0,0.0,0.0,-4.5008,-4.461,-4.461,-4.4761,-4.5142,-4.5142,-4.5841,-4.7305,-4.7355,-4.7869,-4.9001,-4.9001,-4.9001,-4.9001,-4.9001,-4.9001,-4.9001,-4.9001,-4.9001,-4.9001,-4.9001,-4.9001,-4.9001,-4.9001,-4.9001,-4.9001,-4.9001,-4.9001,-4.9001,-4.9001,-4.9001,-4.9001,-4.2237,-4.2835,0.0,0.0,0.0,0.0,0.0,0.0,-4.329,-4.329,-4.329,-4.329,-4.329,-4.4586,-4.5478,-4.5478,-4.674,-4.7605,-4.7737,-4.7638,-4.7638,-4.7737,-4.7638,-4.7571,-4.7571,-4.6931,0.0,0.0,0.0,0.0,0.0,0.0,0.0,0.0,0.0,0.0,0.0,0.0,0.0,-4.493,0.0,-4.5147,-4.4794,-4.4249,-4.4016,-4.3949,-4.4026,-4.4166,-4.432,-4.4358,-4.4572,-4.4896,-4.5348,-4.5604,0.0,0.0,0.0,0.0,0.0,0.0,0.0,0.0,0.0,-4.4761,0.0,0.0,0.0,0.0,0.0,0.0,0.0,0.0,0.0,0.0,0.0,0.0,0.0,0.0,0.0,0.0,0.0,0.0,0.0,0.0,-4.4471,-4.461,-4.4341,-4.4249,-4.4409,-4.4302,-4.4883,-4.6338,-4.6407,-4.7078,-4.8578,-4.8578,-4.8578,-4.8578,-4.8578,-4.8578,-4.8578,-4.8578,-4.8578,-4.8578,-4.8578,-4.8578,-4.8578,-4.8578,-4.8578,-4.8612,-4.8883,-4.9001,-4.8984,-4.8849,-4.8798,-4.8781,-4.317,-4.325,-4.329,0.0,0.0,0.0,0.0,0.0,-4.329,-4.329,-4.329,-4.329,-4.329,-4.4105,-4.4624,-4.4624,-4.5442,-4.6234,-4.6896,-4.634,-4.6269,-4.6896,0.0,-4.5949,-4.5949,-4.5877,-4.5841,0.0,0.0,0.0,0.0,0.0,0.0,0.0,-4.3448,0.0,0.0,0.0,-4.4018,0.0,-4.4197,-4.4417,0.0,-4.4308,-4.4053,-4.3754,-4.4143,-4.4281,-4.432,0.0,-4.503,-4.5494,0.0,-4.5179,-4.5697,-4.5805,0.0,0.0,0.0,0.0,0.0,0.0,-4.4648,0.0,0.0,0.0,0.0,0.0,0.0,0.0,0.0,0.0,0.0,0.0,0.0,0.0,0.0,0.0,0.0,0.0,0.0,0.0,0.0,0.0,0.0,-4.4579,-4.3494,-4.3079,-4.3685,-4.314,-4.349,-4.4884,-4.495,-4.5616,-4.7039,-4.7039,-4.7039,-4.7039,-4.7039,-4.7039,-4.7039,-4.7039,-4.7039,-4.7039,-4.7039,-4.7039,-4.7039,-4.7039,-4.7039,-4.7175,-4.8494,-4.9001,-4.8934,-4.8291,-4.8007,-4.7922,-4.329,-4.329,-4.329,0.0,0.0,0.0,0.0,0.0,-4.329,-4.329,-4.329,-4.329,-4.329,-4.4028,-4.451,-4.451,-4.5258,-4.5841,0.0,-4.5877,-4.5841,-4.6147,0.0,0.0,-4.5697,-4.5258,-4.4999,0.0,-4.4182,0.0,0.0,0.0,0.0,0.0,-4.329,0.0,-4.3305,0.0,-4.3544,0.0,0.0,0.0,0.0,-4.3708,-4.3624,-4.3503,-4.3832,-4.4026,-4.4166,0.0,-4.4723,0.0,0.0,0.0,0.0,0.0,0.0,0.0,0.0,0.0,0.0,0.0,0.0,0.0,-4.461,0.0,-4.461,0.0,0.0,0.0,0.0,0.0,0.0,0.0,0.0,0.0,0.0,0.0,0.0,0.0,0.0,0.0,0.0,0.0,0.0,0.0,0.0,-4.2725,-4.2987,-4.2756,-4.3255,-4.4641,-4.4707,-4.5369,-4.6786,-4.6786,-4.6786,-4.6786,-4.6786,-4.6786,-4.6786,-4.6786,-4.6786,-4.6786,-4.6786,-4.6786,-4.6786,-4.6786,-4.6786,-4.6853,-4.7479,-4.7716,-4.7682,-4.7378,-4.7259,-4.7225,-4.329,-4.329,-4.329,0.0,0.0,0.0,0.0,0.0,0.0,0.0,0.0,0.0,-4.329,-4.381,-4.4182,-4.4182,-4.4699,-4.5147,0.0,0.0,-4.5147,0.0,0.0,0.0,0.0,0.0,0.0,0.0,0.0,0.0,0.0,0.0,0.0,0.0,0.0,-4.329,-4.329,0.0,0.0,-4.329,-4.329,-4.329,-4.329,-4.329,-4.329,-4.3329,-4.3596,-4.3847,-4.4026,-4.4181,-4.4396,0.0,-4.4549,0.0,0.0,0.0,0.0,0.0,-4.461,0.0,0.0,0.0,0.0,0.0,0.0,0.0,0.0,0.0,0.0,0.0,0.0,0.0,0.0,-4.461,0.0,0.0,0.0,0.0,0.0,0.0,0.0,0.0,0.0,0.0,0.0,0.0,-4.2525,0.0,-4.2325,-4.214,-4.2676,-4.4042,-4.4091,-4.4777,-4.6177,-4.6194,-4.6194,-4.6194,-4.6194,-4.6194,-4.6194,-4.6194,-4.6194,-4.6194,-4.6194,-4.6194,-4.6194,-4.6194,-4.6194,-4.6194,-4.6194,-4.6194,-4.621,-4.6413,-4.6498,-4.6435,-4.329,-4.329,-4.329,0.0,0.0,0.0,0.0,0.0,0.0,0.0,0.0,0.0,0.0,0.0,0.0,0.0,0.0,-4.3708,-4.4488,0.0,-4.3732,0.0,0.0,-4.3369,0.0,0.0,0.0,0.0,0.0,0.0,0.0,0.0,0.0,0.0,0.0,-4.329,-4.329,-4.329,-4.329,-4.329,-4.329,-4.329,-4.329,0.0,-4.329,-4.3329,-4.3596,0.0,0.0,-4.4026,-4.4281,0.0,0.0,0.0,0.0,0.0,0.0,0.0,0.0,0.0,0.0,-4.461,0.0,0.0,0.0,0.0,-4.461,0.0,0.0,0.0,0.0,-4.461,-4.461,-4.461,-4.461,0.0,0.0,0.0,0.0,0.0,0.0,0.0,0.0,0.0,0.0,0.0,-4.1335,0.0,-4.1586,-4.097,-4.1187,-4.2522,-4.2585,-4.3265,-4.4654,-4.4682,-4.4682,-4.4682,-4.4682,-4.4682,-4.4682,-4.4682,-4.4682,-4.4682,-4.4682,-4.4682,-4.4682,-4.4682,-4.4682,-4.4682,-4.4682,-4.4682,-4.4767,-4.5466,-4.5737,-4.5532,-4.329,-4.329,-4.329,0.0,0.0,0.0,0.0,-4.329,0.0,0.0,0.0,0.0,0.0,-4.329,-4.329,0.0,0.0,-4.3409,-4.3708,-4.3448,0.0,0.0,0.0,-4.329,0.0,0.0,0.0,0.0,0.0,0.0,0.0,0.0,0.0,0.0,0.0,-4.329,0.0,0.0,0.0,0.0,0.0,-4.329,-4.329,0.0,0.0,-4.3329,-4.3596,-4.3729,0.0,-4.4089,-4.4281,-4.4396,-4.4473,-4.4549,-4.461,-4.461,-4.461,0.0,0.0,0.0,-4.461,-4.461,0.0,0.0,0.0,0.0,0.0,0.0,0.0,0.0,0.0,-4.461,-4.461,-4.461,-4.461,-4.461,0.0,0.0,0.0,0.0,0.0,0.0,0.0,0.0,0.0,-4.194,-4.1028,-4.0597,0.0,-4.0628,-4.1109,-4.2458,-4.252,-4.3183,-4.4587,-4.4615,-4.4615,-4.4615,-4.4615,-4.4615,-4.4615,-4.4615,-4.4615,-4.4615,-4.4615,-4.4615,-4.4615,-4.4615,-4.4615,-4.4615,-4.4615,-4.4615,-4.4632,-4.4874,-4.4959,-4.4766,-4.329,-4.329,0.0,0.0,0.0,0.0,0.0,0.0,0.0,0.0,-4.329,0.0,-4.329,0.0,-4.329,0.0,-4.329,-4.329,-4.329,-4.329,0.0,-4.329,-4.329,0.0,0.0,0.0,0.0,0.0,0.0,-4.329,0.0,0.0,0.0,0.0,0.0,0.0,-4.329,0.0,-4.329,0.0,0.0,-4.329,0.0,0.0,-4.329,0.0,0.0,-4.3596,-4.3729,-4.3895,-4.405,-4.4205,-4.4243,-4.4396,-4.4496,-4.4496,-4.4534,-4.461,-4.461,-4.461,0.0,0.0,-4.461,0.0,-4.461,0.0,0.0,0.0,0.0,0.0,0.0,0.0,-4.461,-4.461,-4.461,-4.461,0.0,-4.4409,0.0,0.0,0.0,0.0,0.0,0.0,-4.1494,-4.1232,-4.0751,-4.0489,0.0,0.0,-4.1109,-4.2458,-4.252,-4.3183,-4.4587,-4.4615,-4.4615,-4.4615,-4.4615,-4.4615,-4.4615,-4.4615,-4.4615,-4.4615,-4.4615,-4.4615,-4.4615,-4.4615,-4.4615,-4.4615,-4.4615,-4.4615,-4.4615,-4.4615,-4.4281,-4.371,-4.329,0.0,0.0,0.0,-4.329,0.0,0.0,0.0,-4.329,0.0,-4.329,-4.329,-4.329,-4.329,-4.329,-4.329,-4.329,-4.329,-4.329,-4.329,0.0,0.0,-4.329,-4.329,-4.329,0.0,0.0,0.0,0.0,0.0,0.0,0.0,0.0,0.0,-4.329,0.0,-4.329,-4.329,-4.329,-4.329,-4.329,-4.329,-4.329,-4.329,0.0,-4.329,-4.329,-4.3463,-4.3636,-4.3384,-4.3621,-4.3949,-4.3754,-4.3988,-4.4281,-4.4281,-4.4435,-4.461,-4.461,-4.461,-4.461,-4.461,0.0,0.0,0.0,0.0,-4.461,0.0,0.0,0.0,0.0,0.0,-4.461,-4.461,-4.461,-4.461,-4.4579,-4.4009,0.0,0.0,0.0,0.0,0.0,-4.194,-4.1263,-4.0551,-4.0489,-4.0489,0.0,0.0,0.0,-4.2426,-4.2489,-4.3152,-4.4542,-4.457,-4.4615,-4.4615,-4.4615,-4.4615,-4.4615,-4.4615,-4.4615,-4.4615,-4.4615,-4.4615,-4.4615,-4.4615,-4.4615,-4.4615,-4.4615,-4.457,-4.4542,-4.4542,-4.368,-4.2363,-4.329,-4.329,-4.329,0.0,-4.329,-4.329,0.0,0.0,0.0,0.0,-4.329,-4.329,-4.329,-4.329,-4.329,-4.329,-4.329,0.0,0.0,0.0,0.0,-4.329,-4.329,-4.329,-4.329,-4.329,0.0,-4.329,0.0,0.0,-4.329,0.0,0.0,0.0,0.0,0.0,-4.329,-4.329,-4.329,-4.329,-4.329,-4.329,0.0,0.0,-4.329,-4.329,-4.329,-4.3329,-4.3423,-4.3557,-4.3675,-4.3793,-4.391,-4.4104,-4.4281,-4.4281,-4.4435,-4.461,-4.461,-4.461,-4.461,-4.461,-4.461,-4.461,0.0,0.0,0.0,0.0,0.0,0.0,0.0,0.0,0.0,-4.461,-4.461,-4.444,-4.3932,0.0,0.0,-4.291,0.0,0.0,0.0,-4.1217,-4.0689,-4.0505,-4.0489,0.0,0.0,0.0,0.0,-4.1739,-4.2237,-4.2923,-4.3781,-4.4338,-4.4615,-4.4615,-4.4615,-4.4615,-4.4615,-4.4615,-4.4615,-4.4615,-4.4615,-4.4615,-4.4615,-4.4615,-4.4615,-4.4615,-4.4615,-4.4281,-4.3764,-4.3764,-4.2923,-4.1739,-4.329,0.0,0.0,-4.329,0.0,0.0,-4.329,0.0,0.0,-4.329,-4.329,0.0,-4.329,-4.329,-4.329,-4.329,-4.329,0.0,-4.329,0.0,0.0,-4.329,-4.329,-4.329,-4.329,-4.329,0.0,-4.329,0.0,0.0,-4.329,0.0,0.0,0.0,0.0,-4.329,0.0,-4.329,-4.329,-4.329,-4.329,0.0,0.0,-4.329,-4.329,-4.329,-4.329,-4.329,-4.3329,-4.3463,-4.3518,-4.3542,-4.366,-4.3856,-4.4026,-4.4026,-4.4243,-4.4473,-4.4473,-4.4534,-4.461,-4.461,-4.461,-4.461,-4.461,-4.461,-4.461,0.0,0.0,0.0,0.0,0.0,0.0,-4.4225,-4.4178,-4.3947,0.0,0.0,0.0,0.0,0.0,0.0,0.0,0.0,0.0,0.0,0.0,0.0,0.0,0.0,0.0,0.0,-4.1868,-4.252,-4.3482,-4.3914,-4.4281,-4.4615,-4.4615,-4.4615,-4.4615,-4.4615,-4.4615,-4.4615,-4.4615,-4.4615,-4.4615,-4.4615,-4.4615,-4.457,-4.4236,-4.3499,-4.2645,-4.2645,-4.2141,-4.1459,-4.329,0.0,0.0,0.0,0.0,0.0,0.0,-4.329,0.0,-4.329,0.0,-4.329,-4.329,-4.329,-4.329,-4.329,0.0,-4.329,-4.329,-4.329,-4.329,-4.329,-4.329,-4.329,-4.329,-4.329,-4.329,0.0,0.0,0.0,0.0,0.0,0.0,0.0,0.0,0.0,0.0,-4.329,-4.329,0.0,-4.329,-4.329,-4.329,-4.329,-4.329,-4.329,-4.329,-4.329,-4.329,-4.329,-4.329,-4.329,-4.329,-4.3463,-4.3729,-4.3729,-4.4026,-4.432,-4.432,-4.4473,-4.461,-4.461,-4.461,-4.461,-4.461,-4.461,-4.461,-4.461,-4.461,0.0,0.0,0.0,0.0,0.0,0.0,0.0,0.0,0.0,0.0,0.0,0.0,0.0,0.0,0.0,0.0,0.0,0.0,0.0,0.0,0.0,0.0,0.0,-4.1459,0.0,-4.3227,0.0,-4.3735,-4.444,-4.444,-4.4514,-4.4615,-4.4615,-4.4615,-4.4615,-4.4615,-4.4542,-4.444,-4.444,-4.4412,-4.4253,-4.3617,-4.2614,-4.1492,-4.1492,-4.1459,-4.1276,0.0,0.0,0.0,0.0,0.0,-4.329,-4.329,-4.329,-4.329,-4.329,-4.329,-4.329,-4.329,-4.329,-4.329,-4.329,-4.329,0.0,0.0,0.0,0.0,-4.329,-4.329,-4.329,-4.329,-4.329,-4.329,0.0,0.0,0.0,0.0,0.0,0.0,0.0,0.0,0.0,-4.329,-4.329,0.0,-4.329,-4.329,-4.329,-4.329,-4.329,-4.329,-4.329,-4.329,-4.329,-4.329,-4.329,-4.329,-4.329,-4.329,-4.3463,-4.3729,-4.391,-4.4089,-4.4358,-4.4496,-4.4572,-4.461,-4.461,-4.461,-4.461,-4.461,-4.461,-4.461,-4.461,-4.461,-4.444,-4.3886,0.0,0.0,0.0,0.0,0.0,0.0,0.0,0.0,0.0,0.0,0.0,0.0,0.0,0.0,0.0,0.0,0.0,0.0,0.0,0.0,0.0,0.0,0.0,0.0,0.0,0.0,-4.3676,-4.3676,-4.4001,-4.4615,-4.4615,-4.4615,-4.4615,-4.4615,-4.4236,-4.3676,-4.3676,-4.3363,-4.2878,-4.2738,-4.2205,-4.1492,-4.1492,-4.1158,-4.0646,0.0,0.0,0.0,0.0,0.0,0.0,0.0,-4.329,0.0,-4.329,-4.329,-4.329,-4.329,-4.329,-4.329,-4.329,-4.329,-4.329,-4.329,-4.329,-4.329,-4.329,-4.329,0.0,-4.329,-4.329,-4.329,-4.329,0.0,0.0,0.0,0.0,0.0,0.0,0.0,-4.329,0.0,0.0,0.0,-4.329,-4.329,-4.329,-4.329,-4.329,-4.329,-4.329,-4.329,-4.329,-4.329,-4.329,-4.329,-4.329,-4.329,-4.3384,-4.3503,-4.3621,-4.3895,-4.4181,-4.4243,-4.4435,-4.461,-4.461,-4.461,-4.461,-4.461,-4.461,-4.4517,-4.4163,-4.4086,-4.3886,-4.3187,-4.2817,0.0,0.0,0.0,0.0,0.0,0.0,0.0,0.0,0.0,0.0,0.0,0.0,0.0,0.0,0.0,0.0,0.0,0.0,0.0,0.0,0.0,0.0,0.0,0.0,0.0,-4.2984,-4.3317,-4.3676,-4.4047,-4.4047,-4.4047,-4.4018,-4.3663,-4.332,-4.2984,-4.2984,-4.2583,-4.1981,-4.1981,-4.1575,-4.099,-4.099,-4.0768,-4.0489,0.0,-4.329,0.0,0.0,-4.329,0.0,0.0,-4.329,-4.329,-4.329,-4.329,-4.329,-4.329,-4.329,-4.329,-4.329,-4.329,-4.329,-4.329,-4.329,-4.329,-4.329,-4.329,-4.329,-4.329,-4.329,-4.329,0.0,0.0,0.0,0.0,0.0,0.0,0.0,0.0,0.0,0.0,0.0,-4.329,-4.329,-4.329,-4.329,-4.329,-4.329,-4.329,-4.329,-4.329,-4.329,-4.329,-4.329,-4.329,-4.329,-4.329,-4.3329,-4.3369,-4.3423,-4.3738,-4.405,-4.4104,-4.4358,-4.461,-4.461,-4.4502,-4.4409,-4.4409,-4.4302,-4.4055,-4.3516,-4.3285,-4.2987,-4.2479,-4.2279,0.0,0.0,0.0,0.0,0.0,0.0,0.0,0.0,0.0,0.0,0.0,0.0,0.0,0.0,0.0,0.0,0.0,0.0,0.0,0.0,0.0,0.0,-4.1276,0.0,-4.1608,0.0,-4.2831,-4.3136,-4.3287,-4.3287,-4.3287,-4.3257,-4.2575,-4.2119,-4.1849,-4.1692,-4.1326,-4.0869,-4.0869,-4.052,-4.0059,-4.0059,-4.0059,-4.0059,0.0,0.0,0.0,0.0,0.0,0.0,0.0,-4.329,-4.329,-4.329,-4.329,-4.329,-4.329,-4.329,-4.329,-4.329,-4.329,-4.329,-4.329,-4.329,-4.329,-4.329,-4.329,-4.329,-4.329,-4.329,-4.329,0.0,0.0,0.0,0.0,0.0,0.0,0.0,0.0,0.0,0.0,-4.329,-4.329,-4.329,-4.329,-4.329,-4.329,-4.329,-4.329,-4.329,-4.329,-4.329,-4.329,-4.329,-4.329,-4.329,-4.329,-4.3463,-4.369,-4.3871,-4.4089,-4.432,-4.4496,-4.4572,-4.461,-4.461,-4.4148,-4.3701,-4.3701,-4.3217,-4.2771,-4.2709,-4.2217,-4.1771,-4.1709,-4.117,-4.0674,0.0,0.0,0.0,0.0,0.0,0.0,0.0,0.0,0.0,0.0,0.0,0.0,0.0,0.0,0.0,0.0,0.0,0.0,0.0,0.0,-4.0524,-4.0578,-4.0578,0.0,-4.1575,-4.1641,-4.2013,-4.2583,-4.2583,-4.2583,-4.255,-4.1871,-4.0887,-3.9739,-3.9118,-3.8841,-3.8791,-3.8791,-3.8725,-3.8708,-3.8708,-3.8708,-3.8708,0.0,0.0,0.0,0.0,0.0,0.0,0.0,-4.329,-4.329,-4.329,-4.329,-4.329,-4.329,-4.329,-4.329,-4.329,-4.329,-4.329,-4.329,-4.329,-4.329,-4.329,-4.329,-4.329,-4.329,-4.329,-4.329,0.0,0.0,0.0,0.0,0.0,0.0,0.0,0.0,-4.329,-4.329,-4.329,-4.329,-4.329,-4.329,-4.329,-4.329,-4.329,-4.329,-4.329,-4.329,-4.329,-4.329,-4.329,-4.329,-4.329,-4.329,-4.3384,-4.3463,-4.3542,-4.3529,-4.3533,-4.3609,-4.3508,-4.3402,-4.3402,-4.3202,-4.2987,-4.2987,-4.2786,-4.2494,-4.2094,-4.1447,-4.0955,-4.0955,-4.0689,-4.0489,0.0,0.0,0.0,0.0,0.0,0.0,0.0,0.0,0.0,0.0,0.0,0.0,0.0,0.0,0.0,0.0,0.0,0.0,-4.0489,0.0,-4.0489,-4.0489,-4.0489,-4.0612,-4.0888,-4.1309,-4.1641,-4.1885,-4.1486,-4.0849,-4.0085,-3.9817,-3.939,-3.8899,-3.8591,-3.8508,-3.8508,-3.8508,-3.8508,-3.8508,-3.8508,-3.8508,-3.8446,-4.329,0.0,-4.329,0.0,-4.329,-4.329,-4.329,-4.329,-4.329,-4.329,-4.329,-4.329,-4.329,-4.329,-4.329,-4.329,-4.329,-4.329,-4.329,-4.329,-4.329,-4.329,-4.329,0.0,-4.329,-4.329,-4.329,-4.329,-4.329,0.0,0.0,0.0,0.0,0.0,-4.329,-4.329,-4.329,-4.329,-4.329,-4.329,-4.329,-4.329,-4.329,-4.329,-4.317,-4.3045,-4.3045,-4.2925,-4.2761,-4.2761,-4.2761,-4.2791,-4.2985,-4.3084,-4.3094,-4.2884,-4.2817,-4.281,-4.281,-4.2698,-4.2602,-4.2602,-4.2463,-4.2309,-4.2309,-4.2155,-4.1863,-4.1386,-4.0843,-4.0489,-4.0489,-4.0489,-4.0489,0.0,0.0,0.0,0.0,0.0,0.0,0.0,-4.0489,-4.0489,-4.0489,0.0,0.0,0.0,0.0,0.0,0.0,0.0,0.0,0.0,0.0,0.0,0.0,0.0,-4.0489,-4.0489,-4.0787,-4.0912,-4.088,-4.0223,-3.9307,-3.8215,-3.8215,-3.8108,-3.7923,-3.7923,-3.7923,-3.7923,-3.7923,-3.7923,-3.7923,-3.7923,-3.7923,-3.7846,-4.329,-4.329,-4.329,-4.329,-4.329,-4.329,-4.329,-4.329,-4.329,-4.329,-4.329,-4.329,-4.329,-4.329,-4.329,-4.329,-4.329,-4.329,-4.329,-4.329,-4.329,0.0,0.0,-4.329,-4.329,-4.329,-4.329,-4.329,0.0,0.0,-4.241,0.0,0.0,-4.329,-4.329,-4.329,-4.329,-4.329,-4.329,-4.329,-4.329,-4.329,-4.329,-4.329,-4.294,-4.241,-4.241,-4.1991,-4.1399,-4.1399,-4.1399,-4.1557,-4.2201,-4.2541,-4.2575,-4.1919,-4.1984,-4.2331,-4.2331,-4.2441,-4.2602,-4.2602,-4.2109,-4.1617,-4.1617,-4.1063,-4.052,-4.0505,-4.0505,-4.0489,-4.0489,-4.0489,-4.0489,-4.0489,0.0,0.0,0.0,0.0,0.0,0.0,-4.0489,-4.0489,-4.0489,0.0,0.0,0.0,0.0,0.0,0.0,0.0,0.0,-4.0489,-4.0489,0.0,-4.0489,-4.0489,-4.0489,-4.0489,-3.9847,-3.9524,-3.9508,-3.8831,-3.8154,-3.7507,-3.7507,-3.7138,-3.6507,-3.6507,-3.6507,-3.6507,-3.6507,-3.6507,-3.6507,-3.6507,-3.6507,-3.6507,-4.329,-4.329,-4.329,-4.329,-4.329,-4.329,-4.329,-4.329,-4.329,-4.329,-4.329,-4.329,-4.329,-4.329,-4.329,0.0,-4.329,-4.329,0.0,-4.329,-4.3036,-4.2456,-4.24,-4.2099,-4.1491,-4.1449,-4.1755,-4.24,0.0,0.0,0.0,-4.3015,-4.2895,-4.2671,-4.2671,-4.2417,-4.1998,-4.1998,-4.1998,-4.1998,-4.1998,-4.1998,-4.1998,-4.1998,-4.1878,-4.1737,-4.1737,-4.1587,-4.1422,-4.1422,-4.1422,-4.1339,-4.11,-4.1377,-4.1768,-4.1558,-4.1481,-4.1425,-4.1425,-4.1291,-4.1151,-4.1151,-4.0997,-4.0863,-4.0863,-4.0659,-4.0489,-4.0489,-4.0489,-4.0489,-4.0489,-4.0489,-4.0489,-4.0489,0.0,0.0,0.0,0.0,0.0,0.0,0.0,-4.0489,0.0,-4.0489,0.0,0.0,0.0,0.0,0.0,0.0,0.0,0.0,-4.0489,0.0,-4.0489,-4.0489,-4.0259,-3.9797,-3.9582,-3.9031,-3.8138,-3.7923,-3.7446,-3.6815,-3.6815,-3.6692,-3.6492,-3.6492,-3.6492,-3.6492,-3.6492,-3.6492,-3.6492,-3.6492,-3.6492,-3.6492,-4.297,-4.3125,-4.329,-4.329,-4.329,-4.329,-4.329,-4.329,-4.317,-4.2875,-4.2795,-4.2699,-4.2304,-4.2304,0.0,-4.2795,-4.2482,0.0,-4.2304,-4.2304,-4.2058,-4.1505,-4.1463,-4.138,-4.1113,0.0,0.0,-4.2144,-4.1583,-4.1722,-4.2557,-4.2253,-4.2084,-4.2036,-4.2036,-4.1796,-4.1422,-4.1422,-4.1422,-4.1422,-4.1422,-4.1422,-4.1422,-4.1422,-4.122,-4.101,-4.101,-4.0846,-4.0651,-4.0651,-4.0651,-4.0576,-4.0172,-4.0307,-4.0651,-4.0651,-4.0573,-4.0546,-4.0582,-4.0527,-4.0436,-4.0489,-4.0489,-4.0489,-4.0489,-4.0489,-4.0489,-4.0489,-4.0489,-4.0489,-4.0489,-4.0489,-4.0489,-4.0489,0.0,-4.0489,0.0,0.0,0.0,0.0,0.0,0.0,0.0,-4.0489,0.0,0.0,0.0,0.0,0.0,0.0,0.0,-4.0489,-4.0489,0.0,-4.012,-4.0105,-3.9782,-3.9105,-3.8893,-3.8185,-3.7123,-3.7123,-3.6892,-3.6492,-3.6492,-3.6492,-3.6492,-3.6492,-3.6492,-3.6492,-3.6492,-3.6492,-3.6492,-3.6492,-3.6492,-3.6492,-4.2336,-4.2776,0.0,0.0,-4.3155,0.0,-4.3155,-4.3115,-4.2782,-4.1983,-4.1819,-4.1473,-4.0605,-4.042,-4.0732,-4.1598,0.0,0.0,0.0,-4.0491,-4.0463,-4.0377,-4.0377,0.0,-4.1556,-4.098,-4.1135,-4.2073,-4.0759,-4.0505,-4.1293,-4.0543,-4.0606,-4.1347,-4.1347,-4.128,-4.125,-4.125,-4.125,-4.125,-4.125,-4.125,-4.125,-4.125,-4.0861,-4.0337,-4.0337,-3.9933,-3.9388,-3.9388,-3.9388,-3.9388,-3.9388,-3.9388,-3.9388,-3.9388,-3.9553,-3.9732,-3.996,-4.0137,-4.0331,-4.047,-4.0489,-4.0489,-4.0489,-4.0489,-4.0489,-4.0489,-4.0489,-4.0489,-4.0489,-4.0489,-4.0489,-4.0489,-4.0489,-4.0489,-4.0489,0.0,0.0,0.0,0.0,0.0,0.0,-4.0428,-4.0397,0.0,0.0,0.0,0.0,0.0,0.0,-4.0428,-4.0382,-4.0043,-3.9428,-3.9447,-3.9075,-3.8431,-3.7754,-3.7092,-3.6492,-3.6492,-3.6492,-3.6492,-3.6492,-3.6492,-3.6492,-3.6492,-3.6492,-3.6492,-3.6492,-3.6492,-3.6492,-3.6492,-3.6492,-3.6492,0.0,0.0,-4.1848,-4.1848,-4.1848,-4.1848,-4.1848,-4.1302,-4.0787,-4.0589,-4.0029,-3.9527,-3.9322,-3.8658,-3.8321,-3.8532,-3.9369,-3.9901,-3.9901,-3.9534,-3.8991,-3.8279,-3.8236,-3.8024,-3.751,-3.7332,-3.7721,-3.8671,-3.9628,-4.0217,-4.0412,-4.0882,-4.0949,-4.0636,-4.0636,-4.0352,-3.9888,-3.9888,-3.9888,-3.9888,-3.9888,-3.9888,-3.9888,-3.9888,-3.9783,-3.9649,-3.9649,-3.9508,-3.9388,-3.9388,-3.9388,-3.9388,-3.9388,-3.9388,-3.9388,-3.9388,-3.9553,-3.9732,-3.996,-4.0137,-4.0331,-4.047,-4.0489,-4.0489,-4.0489,-4.0489,-4.0489,-4.0489,-4.0489,-4.0489,-4.0489,-4.0489,-4.0489,-4.0489,-4.0489,-4.0489,-4.0489,0.0,0.0,0.0,-4.0489,-4.029,-3.9782,-3.9721,-3.9505,0.0,0.0,0.0,0.0,0.0,-3.9198,-3.9705,-3.9262,-3.8908,-3.8754,-3.8754,-3.8415,-3.7738,-3.7061,-3.6645,-3.6492,-3.6492,-3.6492,-3.6492,-3.6492,-3.6492,-3.6492,-3.6492,-3.6492,-3.6492,-3.6492,-3.6492,-3.6492,-3.6492,-3.6492,-3.6492,-4.0935,-4.1175,-4.1255,-4.0882,-4.1126,-4.1141,-4.0364,-4.0178,-3.9794,-3.9033,-3.8544,-3.8104,-3.7686,-3.7192,-3.685,-3.685,-3.7603,-3.8036,-3.8036,-3.7779,-3.739,-3.6893,-3.685,-3.6807,-3.6721,-3.6425,-3.6597,-3.722,-3.7826,-3.8263,-3.8656,-3.9136,-3.9373,-3.9417,-3.9801,-3.9753,-3.9388,-3.9388,-3.9388,-3.9388,-3.9388,-3.9388,-3.9388,-3.9388,-3.9388,-3.9388,-3.9388,-3.9388,-3.9388,-3.9388,-3.9388,-3.9388,-3.9388,-3.9388,-3.9388,-3.9388,-3.9553,-3.9732,-3.996,-4.0137,-4.0331,-4.047,-4.0489,-4.0489,-4.0489,-4.0489,-4.0489,-4.0489,-4.0489,-4.0489,-4.0489,-4.0489,-4.0397,-4.0074,-4.0028,-3.992,-3.9613,-3.9582,0.0,-3.9582,-3.9582,-3.9428,-3.9093,-3.9046,-3.8908,-3.8539,0.0,0.0,-3.8508,-3.8215,-3.8354,-3.9031,-3.8708,-3.8354,-3.8061,-3.7738,-3.74,-3.703,-3.6661,-3.6492,-3.6492,-3.6492,-3.6492,-3.6492,-3.6492,-3.6492,-3.6492,-3.6492,-3.6492,-3.6492,-3.6492,-3.6492,-3.6492,-3.6492,-3.6492,-3.6492,-4.0247,-4.0711,-4.0867,-4.0119,-4.0509,-4.0433,-3.9019,-3.9164,-3.8911,-3.7412,-3.7119,-3.671,-3.5935,-3.5848,-3.5848,-3.5848,-3.5848,-3.5887,-3.5979,-3.59,-3.5848,-3.5848,-3.5848,-3.6224,-3.6993,-3.6465,-3.6266,-3.6529,-3.5963,-3.6122,-3.688,-3.7049,-3.7577,-3.8389,-3.9119,-3.9388,-3.9388,-3.9388,-3.9388,-3.9388,-3.9388,-3.9388,-3.9388,-3.9388,-3.9388,-3.9388,-3.9388,-3.9388,-3.9388,-3.9388,-3.9388,-3.9388,-3.9388,-3.9388,-3.9388,-3.9388,-3.9553,-3.9732,-3.996,-4.0172,-4.0366,-4.0455,-4.0489,-4.0489,-4.0489,-4.0413,-4.0336,-4.0336,-4.0259,-4.0197,-4.0197,-4.0197,-3.9997,-3.9428,-3.9336,-3.917,-3.8585,0.0,-3.8508,-3.8508,-3.8508,-3.8477,-3.8369,-3.8354,-3.8323,-3.8215,-3.82,0.0,0.0,-3.7661,-3.7615,-3.8185,-3.82,-3.7923,-3.7353,-3.6784,-3.6492,-3.6492,-3.6492,-3.6492,-3.6492,-3.6492,-3.6492,-3.6492,-3.6492,-3.6492,-3.6492,-3.6492,-3.6492,-3.6492,-3.6492,-3.6492,-3.6492,-3.6492,-3.6492,-3.6492,-3.9574,-3.9649,-3.9687,-3.9526,-3.9069,-3.8606,-3.8341,-3.7217,-3.629,-3.6021,-3.534,-3.4826,-3.4659,-3.4659,-3.4659,-3.4659,-3.4659,-3.4881,-3.5391,-3.4946,-3.4659,-3.4659,-3.4659,-3.4743,-3.4868,-3.4776,-3.4767,-3.4786,-3.5386,-3.6122,-3.6933,-3.7653,-3.8427,-3.9228,-3.9337,-3.9388,-3.9388,-3.9388,-3.9388,-3.9388,-3.9388,-3.9388,-3.9388,-3.9388,-3.9388,-3.9388,-3.9388,-3.9388,-3.9388,-3.9388,-3.9388,-3.9388,-3.9388,-3.9388,-3.9388,-3.9388,-3.9553,-3.9732,-3.996,-4.0226,-4.0455,-4.0489,-4.0489,-4.0489,-4.0489,-4.0043,-3.9677,-3.9677,-3.9216,-3.8831,-3.8831,-3.8831,-3.8785,-3.8677,-3.8662,-3.8631,0.0,0.0,-3.8508,-3.8508,-3.8508,-3.8292,-3.7707,-3.7661,-3.7415,-3.6846,-3.6799,-3.6799,-3.6799,-3.6707,-3.6692,-3.6799,-3.6799,-3.6753,-3.6645,-3.6538,-3.6492,-3.6492,-3.6492,-3.6492,-3.6492,-3.6492,-3.6492,-3.6492,-3.6492,-3.6492,-3.6492,-3.6492,-3.6492,-3.6492,-3.6492,-3.6492,-3.6492,-3.6492,-3.6492,-3.6492,-3.8159,-3.8032,-3.7919,-3.7501,-3.7462,-3.7193,-3.6294,-3.591,-3.5548,-3.5073,-3.4634,-3.4397,-3.4397,-3.4397,-3.4397,-3.4397,-3.4397,-3.4515,-3.4789,-3.4554,-3.4397,-3.4397,-3.4397,-3.4397,-3.4397,-3.4397,-3.4397,-3.4397,-3.4799,-3.5182,-3.5561,-3.6452,-3.7271,-3.8069,-3.8523,-3.8995,-3.9388,-3.9388,-3.9388,-3.9388,-3.9388,-3.9388,-3.9388,-3.9388,-3.9388,-3.9388,-3.9388,-3.9388,-3.9388,-3.9388,-3.9388,-3.9349,-3.899,-3.8871,-3.8796,-3.8437,-3.8983,-3.9677,-3.9595,-3.9661,-3.9741,-3.9505,-3.9413,-3.9413,-3.9413,-3.9167,-3.897,-3.897,-3.8723,-3.8508,-3.8508,-3.8508,-3.8385,-3.8031,-3.7969,0.0,0.0,-3.7415,-3.7415,-3.7415,-3.7415,-3.7292,-3.6984,-3.6953,-3.683,-3.6507,-3.6492,-3.6492,-3.6492,-3.6492,-3.6492,-3.6492,-3.6492,-3.6492,-3.6492,-3.6492,-3.6492,-3.6492,-3.6492,-3.6492,-3.6492,-3.6492,-3.6492,-3.6492,-3.6492,-3.6492,-3.6492,-3.6492,-3.6492,-3.6492,-3.6492,-3.6492,-3.6492,-3.6492,-3.6492,-3.6492,-3.7372,-3.7204,-3.6933,-3.6122,-3.6346,-3.6188,-3.4909,-3.5114,-3.5155,-3.4481,-3.4397,-3.4397,-3.4397,-3.4397,-3.4397,-3.4397,-3.4397,-3.4397,-3.4397,-3.4397,-3.4397,-3.4397,-3.4397,-3.4397,-3.4397,-3.4397,-3.4397,-3.4397,-3.4397,-3.4522,-3.4716,-3.5588,-3.6413,-3.7256,-3.8098,-3.8811,-3.9388,-3.9388,-3.9388,-3.9388,-3.9388,-3.9388,-3.9394,-3.9245,-3.9185,-3.9155,-3.9005,-3.8945,-3.8945,-3.8945,-3.8945,-3.8856,-3.8332,-3.8167,-3.8063,-3.7554,-3.8242,-3.9144,-3.896,-3.8959,-3.8904,-3.8565,-3.8508,-3.8508,-3.8508,-3.8385,-3.8277,-3.8277,-3.8138,-3.8046,-3.8046,-3.8046,-3.7877,-3.7353,0.0,0.0,0.0,-3.6492,-3.6492,-3.6492,-3.6492,-3.6492,-3.6492,-3.6492,-3.6492,-3.6492,-3.6492,-3.6492,-3.6492,-3.6492,-3.6492,-3.6492,-3.6492,-3.6492,-3.6492,-3.6492,-3.6492,-3.6492,-3.6492,-3.6492,-3.6492,-3.6492,-3.6492,-3.6492,-3.6492,-3.6492,-3.6492,-3.6492,-3.6492,-3.6492,-3.6492,-3.6492,-3.6492,-3.6492,-3.6492,-3.6492,-3.8277,-3.8113,-3.7834,-3.6972,-3.6241,-3.5749,-3.5629,-3.495,-3.4481,-3.4397,-3.4397,-3.4397,-3.4397,-3.4397,-3.4397,-3.4397,-3.4397,-3.4397,-3.4397,-3.4397,-3.4397,-3.4397,-3.4397,-3.4397,-3.4397,-3.4397,-3.4397,-3.4397,-3.4397,-3.4799,-3.5629,-3.6413,-3.7285,-3.815,-3.8958,-3.9337,-3.9388,-3.9388,-3.9388,-3.9388,-3.9388,-3.9388,-3.9313,-3.8706,-3.8467,-3.8377,-3.7778,-3.7554,-3.7554,-3.7554,-3.7554,-3.7554,-3.7494,-3.7479,-3.7464,-3.7419,-3.7479,-3.7657,-3.7982,-3.8202,-3.8387,-3.849,-3.8508,-3.8508,-3.8508,-3.8031,-3.7569,-3.7569,-3.7076,-3.6645,-3.6645,-3.6645,-3.6615,-3.6569,0.0,0.0,-3.6507,-3.6492,-3.6492,-3.6492,-3.6492,-3.6492,-3.6492,-3.6492,-3.6492,-3.6492,-3.6492,-3.6492,-3.6492,-3.6492,-3.6492,-3.6492,-3.6492,-3.6492,-3.6492,-3.6492,-3.6492,-3.6492,-3.6492,-3.6492,-3.6492,-3.6492,-3.6492,-3.6492,-3.6492,-3.6492,-3.6492,-3.6492,-3.6492,-3.6492,-3.6492,-3.6492,-3.6492,-3.6492,-3.6492,-3.6492,-3.7577,-3.7372,-3.7295,-3.6972,-3.6241,-3.5709,-3.5709,-3.495,-3.4397,-3.4397,-3.4397,-3.4397,-3.4397,-3.4397,-3.4397,-3.4397,-3.4397,-3.4397,-3.4397,-3.4397,-3.4397,-3.4397,-3.4397,-3.4397,-3.4397,-3.4397,-3.4397,-3.4397,-3.4397,-3.4551,-3.4909,-3.5196,-3.6096,-3.7396,-3.7275,-3.7821,-3.8751,-3.8347,-3.8167,-3.8167,-3.8167,-3.8167,-3.8138,-3.7883,-3.7778,-3.7749,-3.7494,-3.7404,-3.7404,-3.7404,-3.7404,-3.7345,-3.6956,-3.6836,-3.6761,-3.6342,-3.6222,-3.6289,-3.665,-3.7132,-3.7458,-3.7305,-3.7261,-3.7261,-3.7261,-3.7061,-3.6876,-3.6876,-3.6676,-3.6492,-3.6492,-3.6492,-3.6492,-3.6492,0.0,-3.6492,-3.6492,-3.6492,-3.6492,-3.6492,-3.6492,-3.6492,-3.6492,-3.6492,-3.6492,-3.6492,-3.6492,-3.6492,-3.6492,-3.6492,-3.6492,-3.6492,-3.6492,-3.6492,-3.6492,-3.6492,-3.6492,-3.6492,-3.6492,-3.6492,-3.6492,-3.6492,-3.6492,-3.6492,-3.6492,-3.6492,-3.6492,-3.6492,-3.6492,-3.6492,-3.6492,-3.6492,-3.6492,-3.6492,-3.6492,-3.6492,-3.6699,-3.6503,-3.6425,-3.6148,-3.5655,-3.5264,-3.5264,-3.4799,-3.4397,-3.4397,-3.4397,-3.4397,-3.4397,-3.4397,-3.4397,-3.4397,-3.4397,-3.4397,-3.4397,-3.4397,-3.4397,-3.4397,-3.4397,-3.4397,-3.4397,-3.4397,-3.4397,-3.4397,-3.4228,-3.4149,-3.4136,-3.4458,-3.5218,-3.6342,-3.6356,-3.699,-3.8048,-3.7599,-3.7404,-3.7404,-3.7404,-3.7404,-3.7389,-3.7195,-3.712,-3.709,-3.6881,-3.6806,-3.6806,-3.6806,-3.6806,-3.6731,-3.6312,-3.6178,-3.6088,-3.5639,-3.5504,-3.5569,-3.5925,-3.6322,-3.6677,-3.6552,-3.6492,-3.6492,-3.6492,-3.6492,-3.6492,-3.6492,-3.6492,-3.6492,-3.6492,-3.6492,-3.6492,-3.6492,-3.6492,-3.6492,-3.6492,-3.6492,-3.6492,-3.6492,-3.6492,-3.6492,-3.6492,-3.6492,-3.6492,-3.6492,-3.6492,-3.6492,-3.6492,-3.6492,-3.6492,-3.6492,-3.6492,-3.6492,-3.6492,-3.6492,-3.6492,-3.6492,-3.6492,-3.6492,-3.6492,-3.6492,-3.6492,-3.6492,-3.6492,-3.6492,-3.6492,-3.6492,-3.6492,-3.6492,-3.6492,-3.6492,-3.6492,-3.6492,-3.6492,-3.6492,-3.5856,-3.5709,-3.5426,-3.4551,-3.4397,-3.4397,-3.4397,-3.4397,-3.4397,-3.4397,-3.4397,-3.4397,-3.4397,-3.4397,-3.4397,-3.4397,-3.4397,-3.4397,-3.4397,-3.4397,-3.4397,-3.4384,-3.4397,-3.4397,-3.4384,-3.4384,-3.4384,-3.4384,-3.3849,-3.3587,-3.3602,-3.4599,-3.5096,-3.5184,-3.6681,-3.7404,-3.7404,-3.7404,-3.7404,-3.7404,-3.7404,-3.7404,-3.733,-3.6716,-3.6477,-3.6387,-3.5744,-3.5504,-3.5504,-3.5504,-3.5504,-3.5504,-3.5504,-3.5504,-3.5504,-3.5504,-3.5504,-3.5554,-3.591,-3.6005,-3.6068,-3.6429,-3.6492,-3.6492,-3.6492,-3.6492,-3.6492,-3.6492,-3.6492,-3.6492,-3.6492,-3.6492,-3.6492,-3.6492,-3.6492,-3.6492,-3.6492,-3.6492,-3.6492,-3.6492,-3.6492,-3.6492,-3.6492,-3.6492,-3.6492,-3.6492,-3.6492,-3.6492,-3.6492,-3.6492,-3.6492,-3.6492,-3.6492,-3.6492,-3.6492,-3.6492,-3.6492,-3.6492,-3.6492,-3.6492,-3.6492,-3.6492,-3.6492,-3.6492,-3.6492,-3.6492,-3.6492,-3.6492,-3.6492,-3.6492,-3.6492,-3.6492,-3.6492,-3.6492,-3.6492,-3.6492,-3.6699,-3.6543,-3.6464,-3.6188,-3.5696,-3.5305,-3.5305,-3.4799,-3.4397,-3.4397,-3.4397,-3.4397,-3.4397,-3.4397,-3.4397,-3.4397,-3.4397,-3.4397,-3.4397,-3.4397,-3.4228,-3.3849,-3.4188,-3.4214,-3.3849,-3.3835,-3.3626,-3.3208,-3.3038,-3.296,-3.3,-3.3794,-3.4499,-3.5119,-3.5637,-3.6207,-3.6731,-3.6267,-3.6073,-3.6073,-3.6073,-3.6073,-3.6058,-3.5863,-3.5804,-3.5774,-3.5579,-3.5504,-3.5504,-3.5504,-3.5504,-3.5504,-3.5504,-3.5504,-3.5537,-3.5621,-3.5638,-3.5703,-3.6053,-3.6148,-3.6179,-3.6429,-3.6492,-3.6492,-3.6492,-3.6492,-3.6492,-3.6492,-3.6492,-3.6492,-3.6492,-3.6492,-3.6492,-3.6492,-3.6492,-3.6492,-3.6492,-3.6492,-3.6492,-3.6492,-3.6492,-3.6492,-3.6492,-3.6492,-3.6492,-3.6492,-3.6492,-3.6492,-3.6492,-3.6492,-3.6492,-3.6492,-3.6492,-3.6492,-3.6492,-3.6492,-3.6492,-3.6492,-3.6492,-3.6492,-3.6492,-3.6492,-3.6492,-3.6492,-3.6492,-3.6492,-3.6492,-3.6492,-3.6492,-3.6492,-3.6492,-3.6492,-3.6492,-3.6492,-3.6492,-3.6492,-3.6996,-3.666,-3.6425,-3.6425,-3.5736,-3.5196,-3.5196,-3.4758,-3.4397,-3.4397,-3.4397,-3.4397,-3.4397,-3.4397,-3.4397,-3.4397,-3.4397,-3.4397,-3.4397,-3.4201,-3.3927,-3.36,-3.3679,-3.3574,-3.3247,-3.3234,-3.3064,-3.2685,-3.2463,-3.2346,-3.2346,-3.3182,-3.3841,-3.4387,-3.5042,-3.5625,-3.6073,-3.5669,-3.5504,-3.5504,-3.5504,-3.5504,-3.5504,-3.5504,-3.5504,-3.5504,-3.5504,-3.5504,-3.5504,-3.5504,-3.5504,-3.5504,-3.5504,-3.5522,-3.5604,-3.5671,-3.5752,-3.5847,-3.6148,-3.6196,-3.6242,-3.646,-3.6492,-3.6492,-3.6492,-3.6492,-3.6492,-3.6492,-3.6492,-3.6492,-3.6492,-3.6492,-3.6492,-3.6492,-3.6492,-3.6492,-3.6492,-3.6492,-3.6492,-3.6492,-3.6492,-3.6492,-3.6492,-3.6492,-3.6492,-3.6492,-3.6492,-3.6492,-3.6492,-3.6492,-3.6492,-3.6492,-3.6492,-3.6492,-3.6492,-3.6492,-3.6492,-3.6492,-3.6492,-3.6492,-3.6492,-3.6492,-3.6492,-3.6492,-3.6492,-3.6492,-3.6492,-3.6492,-3.6492,-3.6492,-3.6492,-3.6492,-3.6492,-3.6492,-3.6492,-3.6492,-3.6724,-3.6201,-3.5776,-3.5709,-3.5101,-3.4592,-3.4522,-3.4522,-3.4481,-3.4397,-3.4397,-3.4397,-3.4397,-3.4397,-3.4397,-3.4397,-3.4358,-3.4332,-3.4332,-3.3809,-3.3496,-3.343,-3.2908,-3.2594,-3.2542,-3.2594,-3.2594,-3.2542,-3.198,-3.1732,-3.1744,-3.2745,-3.3178,-3.3262,-3.482,-3.5504,-3.5504,-3.5504,-3.5504,-3.5504,-3.5504,-3.5504,-3.5504,-3.5504,-3.5504,-3.5504,-3.5504,-3.5504,-3.5537,-3.5537,-3.5504,-3.5504,-3.5504,-3.5604,-3.5688,-3.572,-3.5863,-3.6068,-3.6179,-3.6242,-3.6274,-3.646,-3.6492,-3.6492,-3.6492,-3.6492,-3.6492,-3.6492,-3.6492,-3.6492,-3.6492,-3.6492,-3.6492,-3.6492,-3.6492,-3.6492,-3.6492,-3.6492,-3.6492,-3.6492,-3.6492,-3.6492,-3.6492,-3.6492,-3.6492,-3.6492,-3.6492,-3.6492,-3.6492,-3.6492,-3.6492,-3.6492,-3.6492,-3.6492,-3.6492,-3.6492,-3.6492,-3.6492,-3.6492,-3.6492,-3.6492,-3.6492,-3.6492,-3.6492,-3.6492,-3.6492,-3.6492,-3.6492,-3.6492,-3.6492,-3.6492,-3.6492,-3.6492,-3.6492,-3.6492,-3.6492,-3.5238,-3.5883,-3.6425,-3.5816,-3.6082,-3.6148,-3.5507,-3.5426,-3.5155,-3.4481,-3.4397,-3.4397,-3.4397,-3.4397,-3.4397,-3.4397,-3.4018,-3.377,-3.377,-3.3208,-3.2685,-3.2202,-3.2058,-3.181,-3.1365,-3.1797,-3.181,-3.1352,-3.1235,-3.1169,-3.1207,-3.2552,-3.3178,-3.3262,-3.482,-3.5504,-3.5504,-3.5504,-3.5504,-3.5504,-3.5504,-3.5504,-3.5504,-3.5504,-3.5504,-3.5504,-3.5504,-3.5587,-3.5671,-3.5671,-3.5604,-3.5504,-3.5504,-3.5604,-3.572,-3.5894,-3.6053,-3.6211,-3.6383,-3.6414,-3.646,-3.6492,-3.6492,-3.6492,-3.6492,-3.6492,-3.6492,-3.6492,-3.6492,-3.6492,-3.6492,-3.6492,-3.6492,-3.6492,-3.6492,-3.6492,-3.6492,-3.6492,-3.6492,-3.6492,-3.6492,-3.6492,-3.6492,-3.6492,-3.6492,-3.6492,-3.6492,-3.6492,-3.6492,-3.6492,-3.6492,-3.6492,-3.6492,-3.6492,-3.6492,-3.6492,-3.6492,-3.6492,-3.6492,-3.6492,-3.6492,-3.6492,-3.6492,-3.6492,-3.6492,-3.6492,-3.6492,-3.6492,-3.6492,-3.6492,-3.6492,-3.6492,-3.6492,-3.6492,-3.6492,-3.6492,-3.5418,-3.5811,-3.6201,-3.5776,-3.5696,-3.5561,-3.5142,-3.5073,-3.4909,-3.4481,-3.4397,-3.4397,-3.4397,-3.4397,-3.4293,-3.4031,-3.3757,-3.347,-3.3182,-3.262,-3.2111,-3.181,-3.1536,-3.13,-3.0999,-3.1274,-3.1287,-3.0986,-3.0986,-3.0986,-3.1011,-3.216,-3.2861,-3.3262,-3.4423,-3.5184,-3.5604,-3.5537,-3.5522,-3.5604,-3.5537,-3.5504,-3.5504,-3.5504,-3.5504,-3.5504,-3.5572,-3.5718,-3.5831,-3.5831,-3.5782,-3.5748,-3.5748,-3.5846,-3.5943,-3.6053,-3.6211,-3.6383,-3.646,-3.6492,-3.6492,-3.6492,-3.6492,-3.6492,-3.6492,-3.6492,-3.6492,-3.6492,-3.6492,-3.6492,-3.6492,-3.6492,-3.6492,-3.6492,-3.6492,-3.6492,-3.6492,-3.6492,-3.6492,-3.6492,-3.6492,-3.6492,-3.6492,-3.6492,-3.6492,-3.6492,-3.6492,-3.6492,-3.6492,-3.6492,-3.6492,-3.6492,-3.6492,-3.6492,-3.6492,-3.6492,-3.6492,-3.6492,-3.6492,-3.6492,-3.6492,-3.6492,-3.6492,-3.6492,-3.6492,-3.6492,-3.6492,-3.6492,-3.6492,-3.6492,-3.6492,-3.6445,-3.6383,-3.646,-3.6492,-3.6492,-3.5878,-3.5845,-3.5826,-3.5666,-3.5238,-3.4909,-3.4758,-3.4716,-3.4675,-3.4481,-3.4481,-3.4439,-3.4397,-3.4319,-3.4071,-3.3626,-3.3404,-3.3077,-3.2581,-3.1967,-3.1654,-3.1654,-3.1248,-3.0986,-3.0986,-3.0986,-3.0986,-3.0986,-3.0986,-3.0986,-3.1024,-3.1882,-3.2613,-3.3248,-3.4109,-3.4942,-3.5671,-3.5572,-3.5589,-3.5688,-3.5604,-3.5602,-3.5602,-3.5602,-3.5602,-3.5587,-3.5703,-3.5863,-3.6005,-3.6037,-3.6037,-3.6005,-3.6005,-3.6085,-3.6196,-3.6196,-3.6352,-3.6492,-3.6492,-3.6492,-3.6492,-3.6492,-3.6492,-3.6492,-3.6492,-3.6492,-3.6492,-3.6492,-3.6492,-3.6492,-3.6492,-3.6492,-3.6492,-3.6492,-3.6492,-3.6492,-3.6492,-3.6492,-3.6492,-3.6492,-3.6492,-3.6492,-3.6492,-3.6492,-3.6492,-3.6492,-3.6492,-3.6492,-3.6492,-3.6492,-3.6492,-3.6492,-3.6492,-3.6492,-3.6492,-3.6492,-3.6492,-3.6492,-3.6492,-3.6492,-3.6492,-3.6492,-3.6492,-3.6492,-3.6492,-3.6492,-3.6492,-3.6492,-3.6492,-3.646,-3.6492,-3.6383,-3.6211,-3.6414,-3.6492,-3.6492,-3.4813,-3.5676,-3.6339,-3.556,-3.6392,-3.6897,-3.6136,-3.6016,-3.5709,-3.4867,-3.4756,-3.4673,-3.4439,-3.3979,-3.3679,-3.36,-3.2659,-3.2006,-3.1928,-3.1418,-3.1104,-3.1104,-3.1026,-3.0986,-3.0986,-3.0986,-3.0986,-3.0986,-3.0986,-3.0986,-3.1024,-3.2412,-3.3108,-3.3262,-3.4706,-3.5424,-3.5522,-3.5621,-3.5688,-3.572,-3.5878,-3.5941,-3.5941,-3.5941,-3.5941,-3.5941,-3.5941,-3.5973,-3.6037,-3.6148,-3.61,-3.6005,-3.6005,-3.6085,-3.6196,-3.6196,-3.6352,-3.6492,-3.6492,-3.6492,-3.6492,-3.6492,-3.6492,-3.6492,-3.6492,-3.6492,-3.6492,-3.6492,-3.6492,-3.6492,-3.6492,-3.6492,-3.6492,-3.6492,-3.6492,-3.6492,-3.6492,-3.6492,-3.6492,-3.6492,-3.6492,-3.6492,-3.6492,-3.6492,-3.6492,-3.6492,-3.6492,-3.6492,-3.6492,-3.6492,-3.6492,-3.6492,-3.6492,-3.6492,-3.6492,-3.6492,-3.6492,-3.6492,-3.6492,-3.6492,-3.6492,-3.6492,-3.6492,-3.6492,-3.6492,-3.6492,-3.6492,-3.6492,-3.6383,-3.6274,-3.6414,-3.6383,-3.6211,-3.6414,-3.6492,-3.6492,-3.4623,-3.5348,-3.6049,-3.6014,-3.6182,-3.6297,-3.6292,-3.5924,-3.5467,-3.5044,-3.4962,-3.4788,-3.4335,-3.3793,-3.3252,-3.2791,-3.2292,-3.1769,-3.1378,-3.1117,-3.0986,-3.0986,-3.0986,-3.0986,-3.0986,-3.0986,-3.0986,-3.0986,-3.0986,-3.1222,-3.164,-3.2268,-3.3108,-3.4007,-3.4691,-3.5347,-3.5878,-3.5863,-3.5926,-3.5975,-3.599,-3.6005,-3.6005,-3.6005,-3.6005,-3.6005,-3.6085,-3.6195,-3.6289,-3.6352,-3.632,-3.6289,-3.6289,-3.632,-3.6383,-3.6383,-3.6414,-3.6492,-3.6492,-3.6492,-3.6492,-3.6492,-3.6492,-3.6492,-3.6492,-3.6492,-3.6492,-3.6492,-3.6492,-3.6492,-3.6492,-3.6492,-3.6492,-3.6492,-3.6492,-3.6492,-3.6492,-3.6492,-3.6492,-3.6492,-3.6492,-3.6492,-3.6492,-3.6492,-3.6492,-3.6492,-3.6492,-3.6492,-3.6492,-3.6492,-3.6492,-3.6492,-3.6492,-3.6492,-3.6492,-3.6492,-3.6492,-3.6492,-3.6492,-3.6492,-3.6492,-3.6492,-3.6492,-3.6492,-3.6492,-3.6492,-3.6492,-3.6383,-3.6352,-3.6383,-3.6352,-3.6352,-3.6352,-3.6352,-3.6383,-3.6445]},{"header":{"parameterUnit":"m.s-1","parameterCategory":1,"la1":30.6,"la2":28.766,"lo1":-90.7593,"lo2":-88.6598,"dy":0.0162,"dx":0.0183,"nx":116,"ny":114,"refTime":"2023-08-05T12:00:00:Z","depth":0,"parameterNumber":3,"parameterNumberName":"V-component_of_WINDS"},"data":[0.0,0.0,0.0,0.0,0.0,0.0,0.0,0.0,0.0,0.0,0.0,0.0,0.0,0.0,0.0,0.0,0.0,0.0,0.0,0.0,0.0,0.0,0.0,0.0,0.0,0.0,0.0,0.0,0.0,0.0,0.0,0.0,0.0,0.0,0.0,0.0,0.0,0.0,0.0,0.0,0.0,0.0,0.0,0.0,0.0,0.0,0.0,0.0,0.0,0.0,0.0,0.0,0.0,0.0,0.0,0.0,0.0,0.0,0.0,0.0,0.0,0.0,0.0,0.0,0.0,0.0,0.0,0.0,0.0,0.0,0.0,0.0,0.0,0.0,0.0,0.0,0.0,0.0,0.0,0.0,0.0,0.0,0.0,0.0,0.0,0.0,0.0,0.0,0.0,0.0,0.0,0.0,0.0,0.0,0.0,0.0,0.0,0.0,0.0,0.0,0.0,0.0,0.0,0.0,0.0,0.0,0.0,0.0,0.0,0.0,0.0,0.0,0.0,0.0,0.0,0.0,0.0,0.0,0.0,0.0,0.0,0.0,0.0,0.0,0.0,0.0,0.0,0.0,0.0,0.0,0.0,0.0,0.0,0.0,0.0,0.0,0.0,0.0,0.0,0.0,0.0,0.0,0.0,0.0,0.0,0.0,0.0,0.0,0.0,0.0,0.0,0.0,0.0,0.0,0.0,0.0,0.0,0.0,0.0,0.0,0.0,0.0,0.0,0.0,0.0,0.0,0.0,0.0,0.0,0.0,0.0,0.0,0.0,0.0,0.0,0.0,0.0,0.0,0.0,0.0,0.0,0.0,0.0,0.0,0.0,0.0,0.0,0.0,0.0,0.0,0.0,0.0,0.0,0.0,0.0,0.0,0.0,0.0,0.0,0.0,0.0,0.0,0.0,0.0,0.0,0.0,0.0,0.0,0.0,0.0,0.0,0.0,0.0,0.0,0.0,0.0,0.0,0.0,0.0,0.0,0.0,0.0,0.0,0.0,0.0,0.0,0.0,0.0,0.0,0.0,0.0,0.0,0.0,0.0,0.0,0.0,0.0,0.0,0.0,0.0,0.0,0.0,0.0,0.0,0.0,0.0,0.0,0.0,0.0,0.0,0.0,0.0,0.0,0.0,0.0,0.0,0.0,0.0,0.0,0.0,0.0,0.0,0.0,0.0,0.0,0.0,0.0,0.0,0.0,0.0,0.0,0.0,0.0,0.0,0.0,0.0,0.0,0.0,0.0,0.0,0.0,0.0,0.0,0.0,0.0,0.0,0.0,0.0,0.0,0.0,0.0,0.0,0.0,0.0,0.0,0.0,0.0,0.0,0.0,0.0,0.0,0.0,0.0,0.0,0.0,0.0,0.0,0.0,0.0,0.0,0.0,0.0,0.0,0.0,0.0,0.0,0.0,0.0,0.0,0.0,0.0,0.0,0.0,0.0,0.0,0.0,0.0,0.0,0.0,0.0,0.0,0.0,0.0,0.0,0.0,0.0,0.0,0.0,0.0,0.0,0.0,0.0,0.0,0.0,0.0,0.0,0.0,0.0,0.0,0.0,0.0,0.0,0.0,0.0,0.0,0.0,0.0,0.0,0.0,0.0,0.0,0.0,0.0,0.0,0.0,0.0,0.0,0.0,0.0,0.0,0.0,0.0,0.0,0.0,0.0,0.0,0.0,0.0,0.0,0.0,0.0,0.0,0.0,0.0,0.0,0.0,0.0,0.0,0.0,0.0,0.0,0.0,0.0,0.0,0.0,0.0,0.0,0.0,0.0,0.0,0.0,0.0,0.0,0.0,0.0,0.0,0.0,0.0,0.0,0.0,0.0,0.0,0.0,0.0,0.0,0.0,0.0,0.0,0.0,0.0,0.0,0.0,0.0,0.0,0.0,0.0,0.0,0.0,0.0,0.0,0.0,0.0,0.0,0.0,0.0,0.0,0.0,0.0,0.0,0.0,0.0,0.0,0.0,0.0,0.0,0.0,0.0,0.0,0.0,0.0,0.0,0.0,0.0,0.0,0.0,0.0,0.0,0.0,0.0,0.0,0.0,0.0,0.0,0.0,0.0,0.0,0.0,0.0,0.0,0.0,0.0,0.0,0.0,0.0,0.0,0.0,0.0,0.0,0.0,0.0,0.0,0.0,0.0,0.0,0.0,0.0,0.0,0.0,0.0,0.0,0.0,0.0,0.0,0.0,0.0,0.0,0.0,0.0,0.0,0.0,0.0,0.0,0.0,0.0,0.0,0.0,0.0,0.0,0.0,0.0,0.0,0.0,0.0,0.0,0.0,0.0,0.0,0.0,0.0,0.0,0.0,0.0,0.0,0.0,0.0,0.0,0.0,0.0,0.0,0.0,0.0,0.0,0.0,0.0,0.0,0.0,0.0,0.0,0.0,0.0,0.0,0.0,0.0,0.0,0.0,0.0,0.0,0.0,0.0,0.0,0.0,0.0,0.0,0.0,0.0,0.0,0.0,0.0,0.0,0.0,0.0,0.0,0.0,0.0,0.0,0.0,0.0,0.0,0.0,0.0,0.0,0.0,0.0,0.0,0.0,0.0,0.0,0.0,0.0,0.0,0.0,0.0,0.0,0.0,0.0,0.0,0.0,0.0,0.0,0.0,0.0,0.0,0.0,0.0,0.0,0.0,0.0,0.0,0.0,0.0,0.0,0.0,0.0,0.0,0.0,0.0,0.0,0.0,0.0,0.0,0.0,0.0,0.0,0.0,0.0,0.0,0.0,0.0,0.0,0.0,0.0,0.0,0.0,0.0,0.0,0.0,0.0,0.0,0.0,0.0,0.0,0.0,0.0,0.0,0.0,0.0,0.0,0.0,0.0,0.0,0.0,0.0,0.0,0.0,0.0,0.0,0.0,0.0,0.0,0.0,0.0,0.0,0.0,0.0,0.0,0.0,0.0,0.0,0.0,0.0,0.0,0.0,0.0,0.0,0.0,0.0,0.0,0.0,0.0,0.0,0.0,0.0,0.0,0.0,0.0,0.0,0.0,0.0,0.0,0.0,0.0,0.0,0.0,0.0,0.0,0.0,0.0,0.0,0.0,0.0,0.0,0.0,0.0,0.0,0.0,0.0,0.0,0.0,0.0,0.0,0.0,0.0,0.0,0.0,0.0,0.0,0.0,0.0,0.0,0.0,0.0,0.0,0.0,0.0,0.0,0.0,0.0,0.0,0.0,0.0,0.0,0.0,0.0,0.0,0.0,0.0,0.0,0.0,0.0,0.0,0.0,0.0,0.0,0.0,0.0,0.0,0.0,0.0,0.0,0.0,0.0,0.0,0.0,0.0,0.0,0.0,0.0,0.0,0.0,0.0,0.0,0.0,0.0,0.0,0.0,0.0,0.0,0.0,0.0,0.0,0.0,0.0,0.0,0.0,0.0,0.0,0.0,0.0,0.0,0.0,0.0,0.0,0.0,0.0,0.0,0.0,0.0,0.0,0.0,0.0,0.0,0.0,0.0,0.0,0.0,0.0,0.0,0.0,0.0,0.0,0.0,0.0,0.0,0.0,0.0,0.0,0.0,0.0,0.0,0.0,0.0,0.0,0.0,0.0,0.0,0.0,0.0,0.0,0.0,0.0,0.0,0.0,0.0,0.0,0.0,0.0,0.0,0.0,0.0,0.0,0.0,0.0,0.0,0.0,0.0,0.0,0.0,0.0,0.0,0.0,0.0,0.0,0.0,0.0,0.0,0.0,0.0,0.0,0.0,0.0,0.0,0.0,0.0,0.0,0.0,0.0,0.0,0.0,0.0,0.0,0.0,0.0,0.0,0.0,0.0,0.0,0.0,0.0,0.0,0.0,0.0,0.0,0.0,0.0,0.0,0.0,0.0,0.0,0.0,0.0,0.0,0.0,0.0,0.0,0.0,0.0,0.0,0.0,0.0,0.0,0.0,0.0,0.0,0.0,0.0,0.0,0.0,0.0,0.0,0.0,0.0,0.0,0.0,0.0,0.0,0.0,0.0,0.0,0.0,0.0,0.0,0.0,0.0,0.0,0.0,0.0,0.0,0.0,0.0,0.0,0.0,0.0,0.0,0.0,0.0,0.0,0.0,0.0,0.0,0.0,0.0,0.0,0.0,0.0,0.0,0.0,0.0,0.0,0.0,0.0,0.0,0.0,0.0,0.0,0.0,0.0,0.0,0.0,0.0,0.0,0.0,0.0,0.0,0.0,0.0,0.0,0.0,0.0,0.0,0.0,0.0,0.0,0.0,0.0,0.0,0.0,0.0,0.0,0.0,0.0,0.0,0.0,0.0,0.0,0.0,0.0,0.0,0.0,0.0,0.0,0.0,0.0,0.0,0.0,0.0,0.0,0.0,0.0,0.0,0.0,0.0,0.0,0.0,0.0,0.0,0.0,0.0,0.0,0.0,0.0,0.0,0.0,0.0,0.0,0.0,0.0,0.0,0.0,0.0,0.0,0.0,0.0,0.0,0.0,0.0,0.0,0.0,0.0,0.0,0.0,0.0,0.0,0.0,0.0,0.0,0.0,0.0,0.0,0.0,0.0,0.0,0.0,0.0,0.0,0.0,0.0,0.0,0.0,0.0,0.0,0.0,0.0,0.0,0.0,0.0,0.0,0.0,0.0,0.0,0.0,0.0,0.0,0.0,0.0,0.0,0.0,0.0,0.0,0.0,0.0,0.0,0.0,0.0,0.0,0.0,0.0,0.0,0.0,0.0,0.0,0.0,0.0,0.0,0.0,0.0,0.0,0.0,0.0,0.0,0.0,0.0,0.0,0.0,0.0,0.0,0.0,0.0,0.0,0.0,0.0,0.0,0.0,0.0,0.0,0.0,0.0,0.0,0.0,0.0,0.0,0.0,0.0,0.0,0.0,0.0,0.0,0.0,0.0,0.0,0.0,0.0,0.0,0.0,0.0,0.0,0.0,0.0,0.0,0.0,0.0,0.0,0.0,0.0,0.0,0.0,0.0,0.0,0.0,0.0,0.0,0.0,0.0,0.0,0.0,0.0,0.0,0.0,0.0,0.0,0.0,0.0,0.0,0.0,0.0,0.0,0.0,0.0,0.0,0.0,0.0,0.0,0.0,0.0,0.0,0.0,0.0,0.0,0.0,0.0,0.0,0.0,0.0,0.0,0.0,0.0,0.0,0.0,0.0,0.0,0.0,0.0,0.0,0.0,0.0,0.0,0.0,0.0,0.0,0.0,0.0,0.0,0.0,0.0,0.0,0.0,0.0,0.0,0.0,0.0,0.0,0.0,0.0,0.0,0.0,0.0,0.0,0.0,0.0,0.0,0.0,0.0,0.0,0.0,0.0,0.0,0.0,0.0,0.0,0.0,0.0,0.0,0.0,0.0,0.0,0.0,0.0,0.0,0.0,0.0,0.0,0.0,0.0,0.0,0.0,0.0,0.0,0.0,0.0,0.0,0.0,0.0,0.0,0.0,0.0,0.0,0.0,0.0,0.0,0.0,0.0,0.0,0.0,0.0,0.0,0.0,0.0,0.0,0.0,0.0,0.0,0.0,0.0,0.0,0.0,0.0,0.0,0.0,0.0,0.0,0.0,0.0,0.0,0.0,0.0,0.0,0.0,0.0,0.0,0.0,0.0,0.0,0.0,0.0,0.0,0.0,0.0,0.0,0.0,0.0,0.0,0.0,0.0,0.0,0.0,0.0,0.0,0.0,0.0,0.0,0.0,0.0,0.0,0.0,0.0,0.0,0.0,0.0,0.0,0.0,0.0,0.0,0.0,0.0,0.0,0.0,0.0,0.0,0.0,0.0,0.0,0.0,0.0,0.0,0.0,0.0,0.0,0.0,0.0,0.0,0.0,0.0,0.0,0.0,0.0,0.0,0.0,0.0,0.0,0.0,0.0,0.0,0.0,0.0,0.0,0.0,0.0,0.0,0.0,0.0,0.0,0.0,0.0,0.0,0.0,0.0,0.0,0.0,0.0,0.0,0.0,0.0,0.0,0.0,0.0,0.0,0.0,0.0,0.0,0.0,0.0,0.0,0.0,0.0,0.0,0.0,0.0,0.0,0.0,0.0,0.0,0.0,0.0,0.0,0.0,0.0,0.0,0.0,0.0,0.0,0.0,0.0,0.0,0.0,0.0,0.0,0.0,0.0,0.0,0.0,0.0,-2.0665,0.0,0.0,0.0,0.0,0.0,0.0,0.0,0.0,0.0,0.0,0.0,0.0,0.0,0.0,0.0,0.0,0.0,0.0,0.0,0.0,0.0,0.0,0.0,0.0,0.0,0.0,0.0,0.0,0.0,0.0,0.0,0.0,0.0,0.0,0.0,0.0,0.0,0.0,0.0,0.0,0.0,0.0,0.0,0.0,0.0,0.0,0.0,0.0,0.0,0.0,0.0,0.0,0.0,0.0,0.0,0.0,0.0,0.0,0.0,0.0,0.0,0.0,0.0,0.0,0.0,0.0,0.0,0.0,0.0,0.0,0.0,0.0,0.0,0.0,0.0,0.0,0.0,0.0,0.0,0.0,0.0,0.0,0.0,0.0,0.0,0.0,0.0,0.0,0.0,0.0,0.0,0.0,0.0,0.0,0.0,0.0,0.0,0.0,0.0,0.0,0.0,0.0,0.0,0.0,0.0,0.0,0.0,0.0,0.0,0.0,0.0,0.0,0.0,0.0,0.0,0.0,-2.0665,0.0,0.0,0.0,0.0,0.0,0.0,0.0,0.0,0.0,0.0,0.0,0.0,0.0,0.0,0.0,0.0,0.0,0.0,0.0,0.0,0.0,0.0,0.0,0.0,0.0,0.0,0.0,0.0,0.0,0.0,0.0,0.0,0.0,0.0,0.0,0.0,0.0,0.0,0.0,0.0,0.0,0.0,0.0,0.0,0.0,0.0,0.0,0.0,0.0,0.0,0.0,0.0,0.0,0.0,0.0,0.0,0.0,0.0,0.0,0.0,0.0,0.0,0.0,0.0,0.0,0.0,0.0,0.0,0.0,0.0,0.0,0.0,0.0,0.0,0.0,0.0,0.0,0.0,0.0,0.0,0.0,0.0,0.0,0.0,0.0,0.0,0.0,0.0,0.0,0.0,0.0,0.0,0.0,0.0,0.0,0.0,0.0,0.0,0.0,0.0,0.0,0.0,0.0,0.0,0.0,0.0,0.0,0.0,0.0,-2.0533,-2.0533,-2.0533,-2.0533,-2.0533,-2.0533,-2.0656,-2.0804,0.0,0.0,0.0,0.0,0.0,0.0,0.0,0.0,0.0,0.0,0.0,0.0,0.0,0.0,0.0,0.0,0.0,0.0,0.0,0.0,0.0,0.0,0.0,0.0,0.0,0.0,0.0,0.0,0.0,0.0,0.0,0.0,0.0,0.0,0.0,0.0,0.0,0.0,0.0,-2.8237,-2.8291,-2.813,-2.7853,0.0,0.0,0.0,0.0,0.0,0.0,0.0,0.0,0.0,0.0,0.0,0.0,0.0,0.0,0.0,0.0,0.0,0.0,0.0,0.0,0.0,0.0,0.0,0.0,0.0,0.0,0.0,0.0,0.0,0.0,0.0,0.0,0.0,0.0,0.0,0.0,0.0,0.0,0.0,0.0,0.0,0.0,0.0,0.0,-1.8576,-1.7431,0.0,0.0,0.0,0.0,0.0,0.0,0.0,0.0,0.0,0.0,0.0,0.0,0.0,0.0,-1.9935,-1.9941,-1.9953,-1.9989,-1.9989,-1.9989,-1.9989,-1.9989,-1.9989,-1.9989,-1.9989,0.0,-2.1144,-2.1144,0.0,0.0,0.0,0.0,0.0,0.0,0.0,0.0,0.0,0.0,0.0,0.0,0.0,0.0,0.0,0.0,0.0,0.0,0.0,0.0,0.0,0.0,0.0,0.0,0.0,0.0,0.0,0.0,0.0,0.0,0.0,0.0,0.0,0.0,0.0,0.0,-3.038,-2.9365,-2.8291,-2.8291,-2.8538,-2.9092,-3.0701,-3.1103,-3.0618,-3.2083,0.0,0.0,0.0,0.0,0.0,0.0,0.0,0.0,0.0,0.0,0.0,0.0,0.0,0.0,0.0,0.0,0.0,0.0,0.0,0.0,0.0,0.0,0.0,0.0,0.0,0.0,0.0,0.0,0.0,0.0,0.0,0.0,0.0,0.0,0.0,0.0,0.0,0.0,0.0,-1.7587,-1.7372,-1.6009,-1.5814,-1.5294,0.0,0.0,0.0,0.0,0.0,0.0,0.0,0.0,0.0,-1.4776,-1.5729,-1.6904,-1.8449,-1.9249,-1.973,-1.9887,-1.9887,-1.9887,-1.9887,-1.9887,-1.9887,-1.9887,-1.9887,-2.0343,-2.1025,-2.0829,-2.0761,-2.0761,0.0,0.0,0.0,0.0,0.0,-2.3183,0.0,0.0,0.0,0.0,0.0,0.0,0.0,0.0,0.0,0.0,0.0,0.0,0.0,0.0,0.0,0.0,0.0,0.0,0.0,0.0,0.0,0.0,0.0,0.0,0.0,0.0,0.0,0.0,-3.0182,-2.9618,-2.9112,-2.8548,-2.9006,-3.038,-3.1216,-3.1462,-3.1286,-3.2185,-3.2985,0.0,0.0,0.0,0.0,0.0,0.0,0.0,0.0,0.0,0.0,0.0,0.0,0.0,0.0,0.0,0.0,0.0,0.0,0.0,0.0,0.0,0.0,0.0,0.0,0.0,0.0,0.0,0.0,0.0,0.0,0.0,0.0,0.0,0.0,0.0,0.0,0.0,0.0,-1.6403,-1.5944,-1.4516,-1.4385,-1.3796,0.0,0.0,0.0,0.0,0.0,0.0,-1.0721,-1.0721,-1.1376,-1.275,-1.4189,-1.5638,-1.7254,-1.8705,-1.947,-1.9682,-1.9682,-1.9682,-1.9682,-1.9682,-1.9682,-1.9682,-1.9682,-2.0006,-2.0598,-2.0545,-2.0607,-2.0668,-2.1066,-2.1258,0.0,-2.1437,-2.1541,-2.1988,0.0,0.0,0.0,0.0,0.0,0.0,0.0,0.0,0.0,0.0,0.0,0.0,0.0,0.0,0.0,0.0,0.0,0.0,0.0,0.0,0.0,0.0,0.0,0.0,0.0,0.0,0.0,-3.3051,-3.0949,-3.0442,-3.137,-2.927,-2.9471,-3.1524,-3.1575,-3.1993,-3.275,-3.3595,-3.3878,-3.3679,0.0,0.0,0.0,0.0,0.0,0.0,0.0,0.0,0.0,0.0,0.0,0.0,0.0,0.0,0.0,0.0,0.0,0.0,0.0,0.0,0.0,0.0,0.0,0.0,0.0,0.0,0.0,0.0,0.0,0.0,0.0,0.0,0.0,0.0,0.0,0.0,0.0,0.0,0.0,-1.3079,-1.2882,0.0,0.0,0.0,0.0,-1.0721,-1.0721,-1.0721,-1.0721,-1.0721,-1.1376,-1.275,-1.4189,-1.5564,-1.6996,-1.8437,-1.9102,-1.912,-1.912,-1.912,-1.912,-1.912,-1.912,-1.912,-1.912,-1.9371,-1.9722,-2.0513,-2.1066,-2.139,-2.1786,-2.172,-2.1424,-2.1547,-2.1563,-2.1954,0.0,0.0,0.0,0.0,0.0,0.0,0.0,0.0,0.0,0.0,0.0,0.0,0.0,0.0,0.0,0.0,0.0,0.0,0.0,0.0,0.0,0.0,0.0,0.0,0.0,0.0,-3.3906,-3.3201,-3.2437,-3.1513,-3.0494,-2.9723,-3.0141,-3.1575,-3.1575,-3.2448,-3.3831,-3.4014,-3.3927,-3.3679,-3.3431,-3.3281,0.0,0.0,0.0,0.0,0.0,0.0,0.0,0.0,0.0,0.0,0.0,0.0,0.0,0.0,0.0,0.0,0.0,0.0,0.0,0.0,0.0,0.0,0.0,0.0,0.0,0.0,0.0,0.0,0.0,0.0,0.0,0.0,0.0,0.0,0.0,0.0,0.0,-1.2033,-1.1574,0.0,0.0,-1.0721,-1.0721,-1.0721,-1.0721,-1.0721,-1.0721,-1.0721,-1.0916,-1.1442,-1.2816,-1.4254,-1.5619,-1.705,-1.8221,-1.9078,-1.9078,-1.9078,-1.9142,-1.9328,-1.945,-1.945,-1.9654,-1.9909,-2.0304,-2.0567,-2.0786,-2.0909,-2.1295,-2.1352,-2.1217,-2.1239,-2.1269,-2.1497,0.0,0.0,0.0,0.0,0.0,0.0,0.0,0.0,0.0,0.0,0.0,0.0,0.0,0.0,0.0,0.0,0.0,0.0,0.0,0.0,0.0,0.0,0.0,0.0,0.0,-3.503,-3.4519,-3.3758,-3.3362,-3.2437,-3.1,-3.0639,-3.1062,-3.2134,-3.2044,-3.2862,-3.4298,-3.4075,-3.3878,-3.3679,-3.3656,-3.3645,-3.3744,0.0,0.0,0.0,0.0,0.0,0.0,0.0,0.0,0.0,0.0,0.0,0.0,0.0,0.0,0.0,0.0,0.0,0.0,0.0,0.0,0.0,0.0,0.0,0.0,0.0,0.0,0.0,0.0,0.0,0.0,0.0,0.0,0.0,0.0,0.0,-1.3468,-1.1446,-1.0982,-1.0853,-1.0721,-1.0721,-1.0721,-1.0721,-1.0721,-1.0721,-1.0721,-1.0721,-1.0721,-1.0721,-1.2095,-1.3301,-1.4283,-1.6186,-1.7603,-1.8611,-1.9149,-1.935,-1.935,-1.9727,-1.9856,-1.9856,-2.0257,-2.058,-2.0895,-2.0895,-2.096,-2.1069,-2.1062,-2.1109,-2.1109,-2.1109,-2.1109,-2.1355,0.0,0.0,0.0,0.0,0.0,0.0,0.0,0.0,0.0,0.0,0.0,0.0,0.0,0.0,0.0,0.0,0.0,0.0,0.0,0.0,0.0,0.0,0.0,0.0,-3.5223,-3.5223,-3.5078,-3.4823,-3.3758,-3.325,-3.3201,-3.2134,-3.2185,-3.3201,-3.2901,-3.3285,-3.4075,-3.3828,-3.3729,-3.3767,-3.4213,-3.4385,-3.4483,0.0,0.0,0.0,0.0,0.0,0.0,0.0,0.0,0.0,0.0,0.0,0.0,0.0,0.0,0.0,0.0,0.0,0.0,0.0,0.0,0.0,0.0,0.0,0.0,0.0,0.0,0.0,0.0,0.0,0.0,0.0,0.0,0.0,-1.3993,-1.2584,-1.1714,-1.1314,-1.1181,-1.1052,-1.0721,-1.0721,-1.0721,-1.0721,-1.0721,-1.0721,-1.0721,-1.0724,-1.0727,-1.0727,-1.2045,-1.2847,-1.3009,-1.5889,-1.747,-1.7618,-1.9195,-1.9954,-1.9954,-2.0281,-2.0408,-2.0474,-2.0879,-2.1204,-2.1529,-2.1529,-2.1727,-2.1931,-2.1356,-2.1136,-2.1136,-2.1136,-2.1129,-2.1495,0.0,0.0,0.0,0.0,0.0,0.0,0.0,0.0,0.0,0.0,0.0,0.0,0.0,0.0,0.0,0.0,0.0,0.0,0.0,0.0,0.0,0.0,0.0,0.0,-3.5764,-3.5416,-3.5175,-3.5078,-3.4617,-3.3967,-3.3201,-3.2901,-3.2901,-3.3201,-3.2901,-3.3285,-3.4075,-3.3828,-3.3904,-3.4213,-3.4337,-3.4385,-3.4532,0.0,0.0,0.0,0.0,0.0,0.0,0.0,0.0,0.0,0.0,0.0,0.0,0.0,0.0,0.0,0.0,0.0,0.0,0.0,0.0,0.0,0.0,0.0,0.0,0.0,0.0,0.0,0.0,0.0,0.0,0.0,0.0,-1.5919,-1.4189,-1.3808,-1.328,-1.2107,-1.1512,-1.1181,-1.1052,-1.0853,-1.0721,-1.0721,-1.0721,-1.0721,-1.0721,-1.0759,-1.082,-1.082,-1.1389,-1.2142,-1.3202,-1.5369,-1.6814,-1.7618,-1.9723,-2.0547,-2.0281,-2.0939,-2.1198,-2.1198,-2.1595,-2.1793,-2.1852,-2.1852,-2.1918,-2.1971,-2.181,-2.1744,-2.1744,-2.1744,-2.161,-2.1774,0.0,0.0,0.0,0.0,0.0,0.0,0.0,0.0,0.0,0.0,0.0,0.0,0.0,0.0,0.0,0.0,0.0,0.0,0.0,0.0,0.0,0.0,0.0,-3.5955,-3.6015,-3.5572,-3.532,-3.5223,-3.492,-3.4274,-3.3201,-3.3659,-3.356,-3.3051,-3.3273,-3.3744,-3.4359,-3.4089,-3.436,-3.4921,-3.5259,-3.5355,-3.5499,-3.6722,-3.7201,-3.7261,-3.7703,-3.79,-3.79,-3.79,0.0,0.0,0.0,0.0,0.0,0.0,0.0,0.0,0.0,0.0,0.0,0.0,0.0,0.0,0.0,0.0,0.0,0.0,0.0,0.0,0.0,0.0,0.0,0.0,-1.5415,-1.4827,-1.3512,-1.357,-1.335,-1.2441,-1.1912,-1.1582,-1.1449,-1.1118,-1.092,-1.092,-1.0845,-1.0749,-1.0749,-1.0955,-1.1036,-1.1036,-1.1255,-1.1811,-1.2778,-1.5243,-1.6724,-1.7227,-2.0047,-2.1154,-2.0749,-2.1485,-2.1821,0.0,-2.2217,-2.2352,-2.2352,-2.2352,-2.2352,0.0,0.0,0.0,0.0,0.0,-2.1877,-2.2093,0.0,0.0,0.0,0.0,0.0,0.0,0.0,0.0,0.0,0.0,0.0,0.0,0.0,0.0,0.0,0.0,0.0,0.0,0.0,0.0,0.0,-3.7808,-3.6989,-3.6417,-3.6063,-3.5764,-3.5476,-3.5223,-3.4932,-3.4311,-3.34,-3.4372,-3.4176,-3.3012,-3.3755,-3.4359,-3.4775,-3.4495,-3.4921,-3.5763,-3.6427,-3.6709,-3.6815,-3.7598,-3.79,-3.79,-3.79,-3.79,-3.79,-3.79,0.0,0.0,0.0,0.0,0.0,0.0,0.0,0.0,0.0,0.0,0.0,0.0,0.0,0.0,0.0,0.0,0.0,0.0,0.0,0.0,0.0,0.0,0.0,0.0,-1.482,-1.3734,-1.2518,-1.2625,-1.2704,-1.2375,-1.2309,-1.2177,-1.1912,-1.153,-1.1272,-1.1209,-1.1089,-1.0972,-1.0972,0.0,0.0,0.0,0.0,-1.1904,-1.2122,-1.545,-1.7001,-1.6775,-2.0283,-2.1697,-2.1352,-2.2035,-2.2379,-2.2379,-2.2722,-2.2928,-2.2928,-2.2928,-2.2928,-2.2881,-2.2291,-2.2084,-2.2078,-2.2044,-2.2038,0.0,0.0,0.0,0.0,0.0,0.0,0.0,0.0,0.0,0.0,0.0,0.0,0.0,0.0,0.0,0.0,0.0,0.0,0.0,0.0,0.0,-3.8554,-3.7808,-3.7625,-3.7129,-3.6323,-3.586,-3.5572,-3.5524,-3.503,-3.4677,-3.447,-3.4677,-3.4531,-3.4078,-3.4113,-3.4359,-3.4775,-3.4495,-3.521,-3.6521,-3.6615,-3.6709,-3.6815,-3.7598,-3.79,-3.79,-3.79,-3.79,-3.79,-3.79,-3.79,-3.79,-3.79,0.0,0.0,0.0,0.0,0.0,0.0,0.0,0.0,0.0,0.0,0.0,0.0,0.0,0.0,0.0,0.0,0.0,0.0,0.0,0.0,-1.5932,-1.4853,-1.378,-1.2683,-1.2698,-1.277,-1.2704,-1.2441,-1.2243,-1.2243,-1.1962,-1.1701,-1.1443,-1.1517,-1.1533,-1.1533,-1.1751,0.0,-1.226,-1.2451,-1.2603,-1.2637,-1.5999,-1.7487,-1.7263,0.0,0.0,-2.2104,-2.2585,-2.2791,-2.2791,-2.2859,-2.2928,-2.2928,-2.2928,-2.2928,-2.2921,-2.2739,-2.276,-2.2665,-2.2425,-2.2338,-2.2692,0.0,0.0,0.0,0.0,0.0,0.0,0.0,0.0,0.0,0.0,0.0,0.0,0.0,0.0,0.0,0.0,0.0,0.0,0.0,-3.9897,-3.9577,-3.9197,-3.8765,-3.8283,-3.7828,-3.6824,-3.632,-3.632,-3.5295,-3.4775,-3.4775,-3.4677,-3.4494,-3.4261,-3.4396,-3.4738,-3.5199,-3.5463,-3.6238,-3.7307,-3.7307,-3.7307,-3.7353,-3.7749,-3.79,-3.79,-3.79,-3.79,-3.79,-3.79,-3.79,-3.79,-3.79,-3.7353,-3.6427,0.0,0.0,0.0,0.0,0.0,0.0,0.0,0.0,0.0,0.0,0.0,0.0,0.0,0.0,-1.9424,0.0,0.0,-1.6433,-1.5887,-1.4481,-1.3216,-1.2681,-1.2722,-1.277,-1.277,-1.2638,-1.2604,-1.2692,-1.2436,-1.2255,-1.2142,-1.2091,-1.2113,-1.2113,-1.2266,-1.2495,-1.2634,-1.2926,-1.3392,-1.4169,-1.6761,-1.8309,-1.874,-2.1534,-2.2722,-2.231,-2.2722,-2.2928,-2.2928,-2.2928,-2.2928,-2.2928,-2.2928,-2.2928,-2.2928,-2.2928,-2.2928,-2.2914,-2.2692,-2.2639,-2.3018,0.0,0.0,0.0,0.0,0.0,0.0,0.0,0.0,0.0,0.0,0.0,0.0,0.0,0.0,0.0,0.0,0.0,0.0,0.0,-4.093,-4.0631,-4.0603,-3.9899,-3.9373,-3.921,-3.7939,-3.7296,-3.7296,-3.6023,-3.5295,-3.5114,-3.4811,-3.458,-3.431,-3.464,-3.5199,-3.5858,-3.6427,-3.7155,-3.79,-3.79,-3.79,-3.79,-3.79,-3.79,-3.79,-3.79,-3.79,-3.79,-3.79,-3.79,-3.79,-3.79,-3.7261,-3.6298,-3.5248,-3.4371,0.0,0.0,0.0,0.0,0.0,0.0,0.0,0.0,0.0,-2.2305,-2.1117,-2.0104,-1.9444,-1.9497,-1.747,-1.5814,-1.5905,-1.4064,-1.2641,-1.2613,-1.2743,-1.2782,-1.2881,-1.2885,-1.2942,-1.308,-1.2887,-1.2786,-1.2858,-1.2749,-1.2633,-1.2633,-1.2828,-1.2896,-1.3039,-1.3253,-1.4173,-1.565,-1.7474,-1.9019,-2.0219,-2.2029,-2.2722,-2.2448,-2.2722,-2.2928,-2.2928,-2.2928,-2.2928,-2.2928,-2.2928,-2.2928,-2.2928,-2.2928,-2.2928,-2.2928,-2.2928,-2.2928,-2.3331,0.0,0.0,0.0,0.0,0.0,0.0,0.0,0.0,0.0,0.0,0.0,0.0,0.0,0.0,0.0,0.0,0.0,0.0,-4.1396,-4.1704,-4.1493,-4.0646,-4.0504,-4.0029,-3.9197,-3.863,-3.8328,-3.8328,-3.775,-3.7023,-3.6131,-3.5833,-3.5523,-3.5078,-3.4884,-3.544,-3.6568,-3.6662,-3.7155,-3.79,-3.79,-3.79,-3.79,-3.79,-3.79,-3.79,-3.79,-3.79,-3.79,-3.79,-3.79,-3.79,-3.79,-3.6875,-3.5657,-3.55,0.0,-3.2431,-3.1442,-2.966,-2.8359,-2.9398,-2.7311,-2.4667,0.0,0.0,-2.106,-1.988,-1.9482,-1.9446,-1.97,-1.7589,-1.5926,-1.6348,-1.4248,-1.2621,-1.2783,-1.2758,-1.2893,-1.3047,-1.3068,-1.3072,-1.3092,-1.3324,-1.3382,-1.3122,-1.3133,-1.3226,-1.3226,-1.3242,-1.3396,-1.3757,-1.3829,-1.4533,-1.6013,-1.7614,-1.9083,-2.056,-2.2166,-2.2866,-2.2859,-2.2866,-2.2928,-2.2928,-2.2928,-2.2928,-2.2928,-2.2928,-2.2928,-2.2928,-2.2928,-2.2928,-2.2928,-2.2928,-2.2928,-2.3331,0.0,0.0,0.0,0.0,0.0,0.0,0.0,0.0,0.0,0.0,0.0,0.0,0.0,0.0,0.0,0.0,0.0,0.0,-4.1396,-4.1829,-4.1912,-4.1493,-4.1479,-4.1311,-4.0916,-3.9839,-3.9285,-3.9285,-3.8283,-3.7579,-3.715,-3.6624,-3.626,-3.6083,-3.5953,-3.6191,-3.6722,-3.7214,-3.7598,-3.79,-3.79,-3.79,-3.79,-3.79,-3.79,-3.7952,-3.8266,-3.837,0.0,0.0,-3.837,-3.8212,-3.7457,-3.6558,-3.5636,-3.5011,-3.4101,0.0,-3.1052,-2.9389,-2.8132,0.0,-2.6364,-2.4501,-2.3263,-2.2078,-2.0838,-1.9649,-1.9499,-1.9659,-1.978,-1.8477,-1.7258,0.0,-1.508,-1.3652,-1.289,-1.2921,-1.3011,-1.3084,-1.3283,-1.3413,-1.3413,-1.3555,-1.3615,-1.3574,-1.3646,-1.3686,-1.3686,-1.3686,-1.3757,-1.39,-1.39,-1.5079,-1.7668,-1.8306,-1.9939,-2.2461,-2.3106,-2.3387,-2.3387,-2.3387,-2.33,-2.3133,-2.3133,-2.3033,-2.2928,-2.2928,-2.2928,-2.2928,-2.2928,-2.2928,-2.2928,-2.2928,-2.2928,-2.3195,0.0,0.0,0.0,0.0,0.0,0.0,0.0,0.0,0.0,0.0,0.0,0.0,0.0,0.0,0.0,0.0,0.0,0.0,0.0,-4.1773,-4.1995,-4.2092,-4.2092,-4.2092,-4.2092,-4.0916,-4.0317,-4.0317,-3.9135,-3.8432,-3.816,-3.7448,-3.7078,-3.6998,-3.6803,-3.6815,-3.7062,-3.7657,-3.79,-3.79,-3.79,-3.79,-3.79,-3.79,-3.7991,-3.8174,-3.8566,-3.871,0.0,0.0,-3.8958,-3.8739,-3.7448,-3.6613,-3.5921,-3.5004,-3.402,-3.29,-3.1135,0.0,0.0,-2.7201,-2.5661,-2.4047,-2.3199,-2.1794,-2.0464,-1.9699,-1.9653,-1.9853,-2.0013,-1.9259,-1.816,-1.6838,-1.5644,-1.439,-1.303,-1.2986,-1.3112,-1.3165,-1.3453,-1.3594,-1.3709,-1.3713,-1.3766,-1.3892,-1.39,-1.39,-1.39,-1.39,-1.3924,-1.3977,-1.4399,-1.5977,-1.8832,-1.9333,-2.1013,-2.3774,-2.3774,-2.3774,-2.3774,-2.3774,-2.3654,-2.3447,-2.3447,-2.3273,-2.2993,-2.2993,-2.2939,-2.2928,-2.2928,-2.2928,-2.2928,-2.2928,-2.2928,-2.3133,0.0,0.0,0.0,0.0,0.0,0.0,0.0,0.0,0.0,0.0,0.0,0.0,0.0,0.0,0.0,0.0,0.0,0.0,0.0,-4.1591,-4.1841,-4.2092,-4.2092,-4.2092,-4.2092,-4.162,-4.1354,-4.1354,-4.0873,-4.0085,-3.9166,-3.8379,-3.7952,-3.7717,-3.7036,-3.7108,-3.7854,-3.79,-3.79,-3.79,-3.79,-3.79,-3.79,-3.79,-3.8227,-3.8697,-3.8697,0.0,0.0,0.0,-3.9586,-3.9381,-3.8222,-3.7307,0.0,-3.5964,-3.3791,-3.1698,0.0,0.0,-2.7401,-2.8018,-2.5608,-2.3038,-2.3038,-2.1174,-1.9504,-1.9726,-1.9793,-1.9973,-2.0541,-1.9524,-1.8224,-1.7183,-1.5809,-1.439,-1.303,-1.2986,-1.3161,-1.334,-1.3526,-1.3709,0.0,-1.3892,-1.3896,-1.39,-1.39,-1.39,-1.39,-1.39,-1.3985,-1.4164,-1.5669,-1.7342,-1.9085,-2.061,-2.2222,-2.3774,-2.3774,-2.3774,-2.3774,-2.3774,-2.3768,-2.3754,-2.3754,-2.3587,-2.3313,-2.3313,-2.3133,-2.2928,-2.2928,-2.2928,-2.2928,-2.2928,-2.2928,-2.3331,0.0,0.0,0.0,0.0,0.0,0.0,0.0,0.0,0.0,0.0,0.0,0.0,0.0,0.0,0.0,0.0,0.0,0.0,0.0,-4.1479,-4.1744,-4.1841,-4.1995,-4.1995,-4.1841,-4.1564,-4.1297,-4.1142,-4.0816,-4.0516,-4.0185,-3.9295,-3.8863,-3.8742,-3.7907,-3.7657,-3.79,-3.79,-3.79,-3.79,-3.79,-3.79,-3.7939,-3.8305,-3.8553,-3.8815,0.0,0.0,0.0,0.0,-4.0148,-3.9777,-3.7755,-3.7138,-3.6988,-3.5853,-3.3669,-3.1568,-3.1345,0.0,-2.7188,-2.7155,-2.5661,-2.4047,-2.3424,-2.2188,-2.1008,-2.0305,-2.0468,-2.0747,-2.0697,-2.0453,-1.9834,-1.8506,-1.7941,-1.6845,-1.452,-1.441,-1.4303,-1.3497,-1.3632,0.0,0.0,0.0,0.0,-1.39,-1.39,-1.39,-1.39,-1.4018,-1.4115,-1.4176,-1.5876,-1.7638,-1.9327,-2.1023,-2.2664,-2.4342,-2.4342,-2.4342,-2.4342,-2.4342,-2.4242,-2.4062,-2.4062,-2.3895,-2.3621,-2.3621,-2.3447,-2.3173,-2.3173,-2.3046,-2.2928,-2.2928,-2.2928,-2.3195,0.0,0.0,0.0,0.0,0.0,0.0,0.0,0.0,0.0,0.0,0.0,0.0,0.0,0.0,0.0,0.0,0.0,0.0,0.0,0.0,-4.1479,-4.1591,-4.1773,-4.1773,-4.1591,-4.1297,-4.1086,-4.0887,-4.0702,-4.0587,-4.0587,-3.9703,-3.9305,-3.9261,-3.8344,-3.79,-3.79,-3.79,-3.8018,-3.8187,-3.8187,-3.8331,-3.8553,-3.8893,-3.9155,0.0,0.0,0.0,0.0,-4.0102,-4.0214,-3.985,-3.7475,-3.6792,-3.6585,-3.5141,-3.3281,-3.1558,-3.0569,-2.879,-2.7077,-2.6683,-2.5789,-2.465,-2.3648,-2.278,-2.1905,-2.0872,-2.0942,-2.1135,-2.1058,-2.1045,-2.0652,-1.9228,-1.9114,-1.8172,-1.5308,-1.5261,-1.5069,-1.3582,-1.3685,0.0,0.0,0.0,0.0,-1.39,-1.39,-1.3932,-1.3997,-1.4115,-1.4237,-1.4363,-1.6591,-1.8374,-1.9575,-2.181,-2.3468,-2.4636,-2.4636,-2.4636,-2.4636,-2.4636,-2.4536,-2.4356,-2.4356,-2.4195,-2.3928,-2.3928,-2.3688,-2.3327,-2.3327,-2.314,-2.2928,-2.2928,-2.3195,-2.387,0.0,0.0,0.0,0.0,0.0,0.0,0.0,0.0,0.0,0.0,0.0,0.0,0.0,0.0,0.0,0.0,0.0,0.0,0.0,0.0,0.0,-4.1396,-4.1396,-4.1396,-4.1396,-4.0915,-4.0702,-4.073,-4.0515,-4.0399,-4.0428,-3.9703,-3.9349,-3.9247,-3.8376,-3.7946,-3.79,-3.7926,-3.824,-3.871,-3.8736,-3.9102,-3.9612,-3.9638,0.0,0.0,0.0,0.0,0.0,0.0,0.0,0.0,-3.7335,-3.6174,-3.5342,-3.3813,-3.264,-3.1414,-2.9495,-2.8129,-2.7114,-2.6738,-2.5935,-2.4965,-2.3776,-2.3024,-2.2374,-2.1438,-2.1223,-2.1341,0.0,0.0,-2.0652,-1.9297,-1.9382,-1.8545,-1.5533,-1.5711,-1.5482,0.0,0.0,0.0,0.0,0.0,0.0,-1.39,0.0,-1.3981,-1.4168,-1.4188,-1.4424,-1.4847,-1.7907,-1.9649,-1.9887,-2.3054,-2.4636,-2.4636,-2.4636,-2.4636,-2.4636,-2.4636,-2.4636,-2.4636,-2.4636,-2.4482,-2.4222,-2.4222,-2.3881,-2.3347,-2.3347,-2.3146,-2.2928,-2.2928,-2.3734,-2.5075,0.0,0.0,0.0,0.0,0.0,0.0,0.0,0.0,0.0,0.0,0.0,0.0,0.0,0.0,0.0,0.0,0.0,0.0,0.0,0.0,0.0,0.0,0.0,0.0,0.0,0.0,0.0,0.0,0.0,-4.0416,-4.1071,-4.0388,-3.9648,-3.9011,-3.8895,-3.8517,-3.7926,-3.8331,-3.8579,-3.8749,0.0,-3.9468,-3.9651,0.0,0.0,0.0,0.0,0.0,0.0,0.0,0.0,0.0,0.0,-3.4937,-3.3442,-3.3246,-3.1542,-2.9664,-2.9119,-2.8029,-2.702,-2.6909,-2.6881,-2.6391,-2.4839,-2.4499,-2.4101,-2.2243,-2.1899,-2.1832,0.0,0.0,0.0,-2.0589,-2.0654,0.0,-1.8528,-1.8616,0.0,-1.5542,0.0,-1.5097,-1.4043,-1.39,0.0,0.0,-1.39,-1.3981,-1.4168,-1.4298,-1.4984,-1.6408,-1.8581,-2.0353,-2.1544,-2.358,-2.4636,-2.4636,-2.4636,-2.4636,-2.4636,-2.4636,-2.4636,-2.4636,-2.4636,-2.4596,-2.4523,-2.4523,-2.4182,-2.3654,-2.3654,-2.3333,-2.2928,-2.2928,-2.3133,-2.3802,0.0,0.0,0.0,0.0,0.0,0.0,0.0,0.0,0.0,0.0,0.0,0.0,0.0,0.0,0.0,0.0,0.0,0.0,0.0,0.0,0.0,0.0,0.0,0.0,0.0,0.0,0.0,0.0,0.0,0.0,0.0,-4.0388,-3.9823,-3.8908,-3.8729,-3.8349,-3.7939,0.0,0.0,0.0,0.0,0.0,0.0,0.0,0.0,0.0,0.0,0.0,0.0,0.0,0.0,-3.5159,-3.4849,-3.3854,-3.2663,-3.1633,0.0,-2.8857,-2.8292,-2.7592,-2.7043,-2.7152,-2.7422,-2.7255,-2.5916,-2.5551,-2.5052,-2.3505,-2.2624,0.0,0.0,0.0,0.0,0.0,0.0,0.0,-1.9677,-1.9772,-1.919,0.0,-1.6443,0.0,-1.4955,-1.4252,-1.39,0.0,-1.39,-1.4014,-1.4274,-1.4379,-1.5287,-1.7138,-1.8914,-2.0945,-2.3203,-2.4179,-2.4636,-2.4636,-2.4636,-2.4636,-2.4636,-2.4636,-2.4636,-2.4636,0.0,-2.4636,-2.4636,-2.4636,-2.4295,-2.3774,-2.3774,-2.34,-2.2928,-2.2928,-2.3665,-2.4993,0.0,0.0,0.0,0.0,0.0,0.0,0.0,0.0,0.0,0.0,0.0,0.0,0.0,0.0,0.0,0.0,0.0,0.0,0.0,0.0,0.0,0.0,0.0,0.0,0.0,0.0,0.0,0.0,0.0,0.0,0.0,0.0,0.0,0.0,0.0,0.0,0.0,0.0,0.0,0.0,0.0,0.0,0.0,0.0,0.0,0.0,0.0,0.0,0.0,0.0,-3.4035,-3.3862,-3.3129,-3.2714,-3.1987,-2.9613,-2.8809,-2.8468,-2.73,-2.7043,-2.7152,-2.7431,-2.7739,-2.7819,-2.6984,-2.6241,-2.552,-2.4831,0.0,-2.2111,-2.2111,-2.1607,-2.1172,-2.1109,0.0,-2.1123,-2.0005,-2.016,-1.9867,-1.8353,-1.7082,-1.6221,-1.5872,-1.4675,-1.3971,-1.4181,-1.4181,-1.4343,-1.4703,-1.4724,-1.5782,-1.7991,-1.9585,-2.1769,-2.4562,-2.4636,-2.4636,-2.4636,-2.4636,-2.4636,-2.4636,-2.4636,-2.4636,-2.4636,0.0,0.0,-2.4636,-2.4596,-2.4262,-2.3768,-2.3728,-2.336,-2.2928,-2.2928,-2.4595,-2.6847,0.0,0.0,0.0,0.0,0.0,0.0,0.0,0.0,0.0,0.0,-4.2092,0.0,0.0,0.0,0.0,0.0,0.0,0.0,0.0,0.0,0.0,0.0,0.0,0.0,0.0,0.0,0.0,0.0,0.0,0.0,0.0,0.0,0.0,0.0,0.0,0.0,0.0,0.0,0.0,0.0,0.0,0.0,0.0,0.0,0.0,0.0,0.0,0.0,0.0,0.0,-3.267,-3.2267,-3.1957,-3.0559,-2.8963,-2.8466,-2.7876,-2.729,-2.7062,-2.7368,-2.7745,-2.7799,-2.8275,-2.8468,-2.7639,-2.6635,0.0,0.0,-2.3489,-2.2111,-2.2111,-2.1796,-2.1418,-2.1172,0.0,0.0,0.0,0.0,-2.0881,0.0,0.0,0.0,0.0,0.0,0.0,0.0,0.0,0.0,-1.6452,-1.6471,-1.799,-2.1227,-2.2899,-2.4031,-2.4562,-2.4636,-2.4636,-2.4636,-2.4636,-2.4636,-2.4636,-2.4636,-2.4636,-2.4636,0.0,0.0,-2.4542,-2.4376,-2.4075,-2.3748,-2.35,-2.318,-2.2928,-2.2928,-2.3931,-2.5532,0.0,0.0,0.0,0.0,0.0,0.0,0.0,0.0,0.0,-4.2092,-4.2092,-4.2092,0.0,0.0,0.0,0.0,0.0,0.0,0.0,0.0,0.0,0.0,0.0,0.0,0.0,0.0,0.0,0.0,0.0,0.0,0.0,0.0,0.0,0.0,0.0,0.0,0.0,0.0,0.0,0.0,0.0,0.0,0.0,0.0,0.0,0.0,0.0,0.0,0.0,0.0,-3.1932,-3.0212,-2.9951,-2.9061,-2.8116,-2.7707,-2.7295,-2.7098,-2.7368,-2.7691,-2.7906,-2.8067,-2.8495,-2.8859,-2.8661,0.0,0.0,0.0,-2.4131,-2.2299,-2.2111,-2.1859,0.0,0.0,0.0,0.0,0.0,0.0,0.0,0.0,0.0,0.0,0.0,0.0,0.0,0.0,0.0,0.0,-1.8051,-1.9033,-2.0461,-2.2142,-2.3729,-2.4636,-2.4636,-2.4636,-2.4636,-2.4636,-2.4636,-2.4636,-2.4636,-2.4636,-2.4636,-2.4636,0.0,0.0,-2.4402,-2.4262,-2.3941,-2.3527,-2.338,-2.314,-2.2996,-2.3734,-2.4865,-2.6329,0.0,0.0,0.0,0.0,0.0,0.0,0.0,-4.2746,-4.2392,-4.2216,-4.2175,-4.2133,-4.2092,-4.2092,-4.2092,0.0,0.0,0.0,0.0,0.0,0.0,0.0,0.0,0.0,0.0,0.0,0.0,0.0,0.0,0.0,0.0,0.0,0.0,0.0,0.0,0.0,0.0,0.0,0.0,0.0,0.0,0.0,0.0,0.0,0.0,0.0,0.0,0.0,0.0,0.0,-3.1254,-2.8972,-2.8327,-2.807,-2.7841,-2.7283,-2.7174,-2.7319,-2.7774,-2.796,-2.8014,-2.8237,-2.8682,-2.915,-2.9492,-2.8152,0.0,0.0,-2.4855,-2.2856,-2.2292,0.0,0.0,0.0,0.0,0.0,0.0,0.0,0.0,0.0,0.0,0.0,0.0,0.0,0.0,0.0,0.0,0.0,0.0,-2.1505,-2.2614,-2.2744,-2.3957,-2.4636,-2.4636,-2.4636,-2.4636,-2.4636,-2.4636,-2.4603,-2.4543,-2.4543,-2.4509,-2.4449,0.0,0.0,0.0,-2.4042,-2.3741,-2.332,-2.3253,-2.308,-2.3065,-2.4474,-2.586,-2.7312,0.0,0.0,0.0,0.0,0.0,0.0,0.0,-4.3075,-4.2622,-4.2392,-4.2351,-4.2325,-4.2133,-4.2092,-4.2092,0.0,0.0,0.0,0.0,0.0,0.0,0.0,0.0,0.0,0.0,0.0,0.0,0.0,0.0,0.0,0.0,0.0,0.0,0.0,0.0,0.0,0.0,0.0,0.0,0.0,0.0,0.0,0.0,0.0,0.0,0.0,0.0,0.0,0.0,0.0,0.0,-2.9791,-2.8333,-2.7576,-2.7336,-2.7512,0.0,0.0,-2.7905,-2.8067,-2.8291,-2.8291,-2.8906,-2.9521,-2.9616,0.0,0.0,-2.7151,-2.5591,-2.4015,-2.2793,0.0,0.0,0.0,0.0,0.0,0.0,0.0,0.0,0.0,0.0,0.0,0.0,0.0,0.0,0.0,0.0,0.0,0.0,-2.303,-2.4143,-2.4401,-2.4488,-2.4636,-2.4636,-2.4636,-2.4636,-2.4636,-2.4636,-2.4496,-2.4242,-2.4242,-2.4102,-2.3848,0.0,0.0,0.0,-2.3521,-2.3374,-2.33,-2.3013,-2.2886,-2.3065,-2.4474,-2.586,-2.7312,0.0,0.0,0.0,0.0,0.0,0.0,0.0,-4.3815,-4.3268,-4.2666,-4.2474,-4.2351,-4.2284,-4.2175,-4.2092,0.0,0.0,0.0,0.0,0.0,0.0,0.0,0.0,0.0,0.0,0.0,0.0,-3.8814,-3.8517,0.0,0.0,0.0,0.0,0.0,0.0,0.0,0.0,0.0,0.0,0.0,0.0,0.0,0.0,0.0,0.0,0.0,0.0,0.0,0.0,0.0,0.0,0.0,-2.8646,-2.8232,0.0,0.0,-2.8056,-2.8291,-2.8193,-2.8237,-2.8291,-2.8291,-2.8935,-2.9626,-2.9626,0.0,0.0,-2.7237,-2.5851,-2.4456,-2.2856,0.0,0.0,0.0,0.0,0.0,0.0,0.0,0.0,0.0,0.0,0.0,0.0,0.0,0.0,0.0,0.0,0.0,0.0,-2.3489,-2.3995,-2.4115,-2.4115,-2.4115,-2.4115,-2.4115,-2.4115,-2.4115,-2.4115,-2.4055,-2.3941,-2.3941,-2.3881,-2.3774,0.0,0.0,0.0,-2.3374,-2.3213,-2.3033,-2.2913,-2.2928,-2.3195,-2.5457,-2.6655,-2.7445,0.0,0.0,0.0,0.0,0.0,0.0,-4.5243,-4.454,-4.3842,-4.3164,-4.278,-4.2541,-4.2392,-4.2284,-4.2175,-4.2092,0.0,0.0,0.0,0.0,0.0,0.0,0.0,0.0,0.0,0.0,-3.8805,-3.7959,-3.7625,-3.7183,0.0,0.0,0.0,0.0,0.0,0.0,0.0,0.0,0.0,0.0,0.0,0.0,0.0,0.0,0.0,0.0,0.0,0.0,0.0,0.0,0.0,0.0,0.0,0.0,0.0,0.0,-2.8452,-2.8548,-2.8495,-2.8389,-2.8291,-2.8291,-2.8935,-2.9626,0.0,0.0,0.0,-2.7315,-2.6286,-2.5063,-2.3106,0.0,0.0,0.0,0.0,0.0,0.0,0.0,0.0,0.0,0.0,0.0,0.0,0.0,0.0,0.0,0.0,0.0,0.0,-2.3387,-2.3587,-2.3761,-2.3774,-2.3774,-2.3774,-2.3774,-2.3774,-2.3774,-2.3774,-2.3728,-2.3641,-2.3641,-2.3587,0.0,0.0,0.0,0.0,-2.3193,-2.306,-2.2928,-2.2928,-2.2928,-2.3263,-2.6054,-2.7113,-2.7511,0.0,0.0,0.0,0.0,0.0,0.0,0.0,-4.5128,-4.4236,-4.3991,-4.3411,-4.2835,-4.2433,-4.2392,-4.2325,-4.2133,0.0,0.0,0.0,0.0,0.0,0.0,0.0,0.0,0.0,0.0,-3.7415,-3.7415,-3.6938,-3.6718,-3.6718,-3.6153,-3.5881,0.0,0.0,0.0,0.0,0.0,0.0,0.0,0.0,0.0,0.0,0.0,0.0,0.0,0.0,0.0,0.0,0.0,0.0,0.0,0.0,0.0,0.0,0.0,-2.8956,-2.8643,-2.8813,-2.8613,-2.8291,-2.8291,-2.8935,-2.9626,0.0,0.0,-3.0157,-2.7564,-2.7013,-2.6164,-2.3596,-2.2543,0.0,0.0,0.0,0.0,0.0,0.0,0.0,0.0,0.0,0.0,0.0,0.0,0.0,0.0,0.0,0.0,0.0,0.0,-2.3146,-2.3754,-2.3774,-2.3774,-2.3774,-2.3774,-2.3774,-2.3774,-2.3774,-2.3614,-2.3333,-2.3333,0.0,0.0,0.0,0.0,0.0,-2.2934,-2.2934,-2.2928,-2.2928,-2.2928,-2.3263,-2.6054,-2.7113,-2.7511,0.0,0.0,0.0,0.0,0.0,0.0,0.0,-4.5963,-4.5323,-4.4314,-4.3757,-4.3271,-4.2666,-4.2351,-4.2175,-4.2092,0.0,0.0,0.0,0.0,0.0,0.0,0.0,0.0,0.0,0.0,-3.7103,-3.6414,-3.5928,-3.5415,-3.4908,-3.4372,-3.3709,-3.3017,-3.372,0.0,0.0,0.0,0.0,0.0,0.0,0.0,0.0,0.0,0.0,0.0,0.0,0.0,0.0,0.0,0.0,0.0,0.0,0.0,0.0,-3.0004,0.0,0.0,-2.9427,-2.9268,-2.916,-2.916,-2.958,-3.0,-3.0,0.0,-3.0401,-2.8632,-2.7615,-2.6468,-2.4764,-2.3161,0.0,0.0,0.0,0.0,0.0,0.0,0.0,0.0,0.0,0.0,0.0,0.0,0.0,0.0,0.0,0.0,0.0,0.0,-2.3021,-2.3209,-2.3146,-2.3146,-2.3146,-2.3146,-2.3146,-2.3146,-2.3146,-2.31,-2.3006,-2.3006,0.0,0.0,0.0,0.0,0.0,-2.2928,-2.2928,-2.2928,-2.2928,-2.3468,-2.4535,-2.6388,-2.7718,-2.8863,0.0,0.0,0.0,0.0,0.0,0.0,0.0,-4.6444,-4.598,-4.5185,-4.4385,-4.3704,-4.3142,-4.262,-4.2284,-4.2092,0.0,0.0,0.0,0.0,0.0,0.0,0.0,0.0,-3.6998,-3.6624,-3.6118,-3.5536,-3.5054,-3.4531,-3.4075,-3.3097,-3.2269,-3.1626,-3.1902,0.0,0.0,0.0,0.0,0.0,0.0,0.0,-3.0567,0.0,0.0,0.0,0.0,0.0,0.0,0.0,0.0,0.0,0.0,0.0,0.0,0.0,-3.0558,-3.0361,0.0,-2.9744,-2.9626,-2.9626,-2.9883,0.0,0.0,0.0,-3.0518,-2.9166,-2.7907,-2.6589,-2.5317,-2.3464,0.0,0.0,0.0,0.0,0.0,0.0,0.0,0.0,0.0,0.0,0.0,0.0,0.0,0.0,0.0,0.0,0.0,0.0,-2.2928,-2.2928,-2.2928,-2.2928,-2.2928,-2.2928,-2.2928,-2.2928,-2.2928,-2.2928,-2.2928,0.0,0.0,0.0,0.0,0.0,0.0,-2.2928,-2.2928,-2.2928,-2.3468,-2.4203,-2.527,-2.7195,-2.8526,-2.9509,0.0,0.0,0.0,0.0,0.0,0.0,0.0,0.0,0.0,0.0,-4.5188,-4.4218,-4.3744,-4.3116,-4.2544,0.0,0.0,0.0,0.0,0.0,0.0,0.0,0.0,0.0,-3.6178,-3.5295,-3.4775,-3.4775,-3.4261,-3.4014,-3.3965,-3.2297,-3.1472,-3.1319,-3.0338,-2.9869,0.0,0.0,0.0,0.0,0.0,-2.8909,0.0,0.0,0.0,0.0,0.0,0.0,0.0,0.0,0.0,0.0,0.0,0.0,0.0,0.0,0.0,0.0,0.0,-2.9961,0.0,0.0,0.0,0.0,0.0,-3.0576,0.0,-2.9285,-2.7966,-2.665,-2.5431,-2.3534,0.0,0.0,0.0,0.0,0.0,0.0,0.0,0.0,0.0,0.0,0.0,0.0,0.0,0.0,0.0,0.0,0.0,0.0,0.0,-2.2928,-2.2928,-2.2928,-2.2928,-2.2928,-2.2928,-2.2928,-2.2928,-2.2928,-2.2928,0.0,0.0,0.0,0.0,0.0,0.0,-2.2928,-2.2928,-2.3065,-2.4474,-2.5075,-2.5465,-2.8238,-2.9296,-2.9514,0.0,0.0,0.0,0.0,0.0,0.0,0.0,0.0,0.0,0.0,-4.5726,-4.4879,-4.3806,-4.3224,-4.2711,0.0,0.0,0.0,0.0,0.0,0.0,0.0,0.0,0.0,-3.5163,-3.492,-3.4775,-3.4775,-3.3671,-3.3012,-3.2789,-3.1297,-3.0005,-2.9009,-2.965,-2.944,0.0,0.0,0.0,0.0,-2.7986,-2.8299,0.0,0.0,0.0,0.0,-2.9272,-2.945,0.0,0.0,0.0,0.0,0.0,0.0,0.0,0.0,-3.0889,-3.0869,-3.0762,0.0,-3.0576,-3.0576,-3.0654,-3.0732,0.0,0.0,-3.083,-3.0518,-2.8582,-2.6892,-2.6589,0.0,0.0,0.0,0.0,0.0,0.0,0.0,0.0,0.0,0.0,0.0,0.0,0.0,0.0,0.0,0.0,0.0,0.0,0.0,0.0,-2.2934,-2.3482,-2.3482,-2.2934,-2.2928,-2.2928,-2.2928,-2.2928,-2.2928,-2.2928,0.0,0.0,0.0,0.0,0.0,0.0,-2.2928,-2.2928,-2.3065,-2.4474,-2.5667,-2.6823,-2.829,-2.9497,-3.042,0.0,0.0,0.0,0.0,0.0,0.0,0.0,0.0,0.0,0.0,0.0,0.0,0.0,0.0,0.0,0.0,0.0,0.0,0.0,0.0,0.0,0.0,0.0,-3.5631,-3.4835,-3.4775,-3.458,-3.4066,-3.3212,-3.2387,-3.1593,-3.0224,-2.9081,-2.8223,-2.8349,-2.8048,-2.7403,-2.6845,-2.682,-2.727,-2.7666,0.0,0.0,0.0,0.0,0.0,-2.9627,-2.9804,0.0,-3.0098,-3.0333,-3.0635,0.0,0.0,0.0,0.0,-3.0889,-3.0889,-3.0889,-3.0889,-3.0889,-3.0889,-3.0889,-3.0889,-3.0889,0.0,0.0,0.0,0.0,0.0,0.0,0.0,0.0,0.0,0.0,0.0,0.0,0.0,0.0,0.0,0.0,0.0,0.0,0.0,0.0,0.0,0.0,0.0,0.0,0.0,0.0,0.0,-2.3823,-2.3754,-2.3133,-2.3133,-2.3133,-2.3133,-2.2996,-2.2928,-2.2928,0.0,0.0,0.0,0.0,0.0,-2.2928,-2.2928,-2.2928,-2.3119,-2.4966,-2.6156,-2.704,-2.878,-2.9879,-3.0461,0.0,0.0,0.0,0.0,0.0,0.0,0.0,0.0,0.0,0.0,0.0,0.0,0.0,0.0,0.0,0.0,0.0,0.0,0.0,0.0,0.0,0.0,0.0,-3.5066,-3.4835,-3.4628,-3.4115,-3.3201,-3.265,-3.1717,-3.0504,-2.9134,-2.8305,-2.7921,-2.6999,-2.6591,-2.6591,-2.6591,-2.6784,-2.7179,-2.7574,0.0,0.0,0.0,0.0,0.0,0.0,0.0,0.0,-3.045,-3.0694,-3.0889,-3.0889,0.0,0.0,0.0,0.0,0.0,-3.0889,-3.084,-3.0801,-3.0869,-3.0889,-3.0889,-3.0889,0.0,0.0,0.0,0.0,0.0,0.0,-2.59,0.0,0.0,0.0,0.0,0.0,0.0,0.0,0.0,0.0,0.0,0.0,0.0,0.0,0.0,0.0,0.0,0.0,0.0,0.0,0.0,-2.3975,-2.3819,-2.3398,-2.3447,-2.3406,-2.3406,-2.3018,-2.2862,-2.2862,-2.2794,0.0,0.0,0.0,0.0,-2.2726,-2.2726,-2.2726,-2.3039,-2.5464,-2.646,-2.6745,-2.9217,-3.0103,-3.0048,0.0,0.0,0.0,0.0,0.0,0.0,0.0,0.0,0.0,0.0,0.0,0.0,0.0,0.0,0.0,0.0,0.0,0.0,0.0,0.0,0.0,-3.5835,-3.5416,-3.5066,-3.4835,-3.3918,-3.335,-3.3201,-3.1308,-3.012,-2.964,-2.8252,-2.7323,-2.6845,-2.6691,-2.6591,-2.6591,-2.6591,-2.6628,-2.6765,-2.7391,0.0,0.0,0.0,0.0,0.0,0.0,0.0,0.0,-3.0704,-3.083,-3.0889,-3.0889,0.0,0.0,0.0,0.0,0.0,-3.0889,-3.0605,-3.04,-3.0791,-3.0889,-3.0889,-3.0889,-3.0889,0.0,0.0,0.0,0.0,0.0,0.0,0.0,0.0,0.0,0.0,0.0,0.0,0.0,0.0,0.0,0.0,0.0,0.0,0.0,0.0,0.0,0.0,0.0,0.0,0.0,0.0,0.0,-2.3898,-2.3497,-2.35,-2.3493,-2.3493,-2.2837,-2.2581,-2.2581,-2.225,-2.2118,0.0,0.0,0.0,-2.2118,-2.2118,-2.2118,-2.2442,-2.5096,-2.6168,-2.6448,-2.8809,-2.9663,-2.9608,0.0,0.0,0.0,0.0,0.0,0.0,0.0,0.0,0.0,0.0,0.0,0.0,0.0,0.0,0.0,0.0,0.0,0.0,0.0,0.0,0.0,-3.5416,-3.4568,-3.4066,-3.3967,-3.3461,-3.2588,-3.141,-3.038,-2.9345,-2.8349,-2.7422,-2.6854,-2.6591,-2.6591,-2.6591,-2.6591,-2.6736,-2.6965,-2.7197,0.0,0.0,0.0,0.0,0.0,0.0,0.0,0.0,0.0,0.0,-3.0889,-3.0889,-3.0889,0.0,0.0,0.0,0.0,0.0,-3.0889,-3.0732,-3.0566,-3.0527,-3.0342,-3.0176,-3.0176,-3.0351,0.0,0.0,0.0,0.0,0.0,0.0,0.0,0.0,0.0,0.0,0.0,0.0,0.0,0.0,0.0,0.0,0.0,0.0,0.0,0.0,0.0,0.0,0.0,0.0,0.0,0.0,0.0,0.0,-2.3818,-2.3659,-2.3535,-2.3502,-2.3032,-2.2766,-2.2766,-2.2438,-2.2247,0.0,0.0,-2.1984,-2.1984,-2.1984,-2.2445,-2.3268,-2.507,-2.6197,-2.7035,-2.8653,-2.9259,-2.9232,0.0,0.0,0.0,0.0,0.0,0.0,0.0,0.0,0.0,0.0,0.0,0.0,0.0,0.0,0.0,0.0,0.0,0.0,0.0,0.0,-3.5647,-3.5332,-3.3956,-3.3201,-3.3201,-3.2689,-3.1615,-2.9922,-2.967,-2.8784,-2.7377,-2.6954,-2.6745,-2.6591,-2.6691,-2.6691,-2.6691,-2.7101,-2.7425,-2.7799,0.0,0.0,0.0,0.0,0.0,0.0,0.0,0.0,0.0,0.0,0.0,0.0,0.0,0.0,0.0,-3.0889,-3.0889,-3.0889,-3.0889,-3.081,-3.0644,-3.0283,-3.0039,-2.9824,-2.9675,-2.998,-3.0332,0.0,0.0,0.0,0.0,0.0,0.0,0.0,0.0,0.0,0.0,0.0,0.0,0.0,0.0,0.0,0.0,0.0,0.0,0.0,0.0,0.0,0.0,0.0,0.0,0.0,0.0,0.0,-2.3859,-2.361,-2.3512,-2.3501,-2.3105,-2.294,-2.2876,-2.2551,-2.2363,-2.2298,-2.2038,-2.1842,-2.1784,-2.1784,-2.2551,-2.3872,-2.4944,-2.6393,-2.7913,-2.8727,-2.8984,-2.8984,0.0,0.0,0.0,0.0,0.0,0.0,0.0,0.0,0.0,0.0,0.0,0.0,0.0,0.0,0.0,0.0,0.0,0.0,0.0,0.0,-3.61,-3.5585,-3.4054,-3.3201,-3.3201,-3.1206,-3.0078,-2.9922,-2.891,-2.8077,-2.7377,-2.7377,-2.7062,-2.6591,-2.6836,-2.6989,-2.7017,-2.7738,-2.8037,-2.8094,-2.8791,0.0,0.0,0.0,0.0,0.0,0.0,0.0,0.0,0.0,0.0,0.0,0.0,0.0,-3.0889,-3.0889,-3.0889,-3.0889,-3.0889,-3.0576,-3.0234,-3.0205,-3.0498,-3.0576,-2.9756,-3.0234,-3.0723,-3.0283,0.0,0.0,0.0,0.0,0.0,0.0,0.0,0.0,0.0,0.0,0.0,0.0,0.0,0.0,0.0,0.0,0.0,0.0,0.0,0.0,0.0,0.0,0.0,0.0,0.0,0.0,-2.3179,-2.3157,-2.331,-2.3561,-2.2947,-2.2614,-2.2614,-2.23,-2.1992,-2.1669,-2.1613,-2.1423,-2.1169,-2.1169,-2.1978,-2.3267,-2.4548,-2.6631,-2.8902,-2.8993,-2.8984,-2.8984,0.0,0.0,0.0,0.0,0.0,0.0,0.0,0.0,0.0,0.0,0.0,0.0,0.0,0.0,0.0,0.0,0.0,0.0,0.0,-3.7307,-3.6427,-3.5346,-3.3862,-3.271,-3.1975,-3.0622,-2.9565,-2.89,-2.8335,-2.7906,-2.7701,-2.7806,-2.7578,-2.7126,-2.7488,-2.7505,-2.7269,-2.7755,-2.8236,-2.8734,-2.9223,-2.983,0.0,0.0,0.0,0.0,0.0,0.0,0.0,0.0,-3.0889,0.0,0.0,0.0,-3.0518,-3.0801,-3.0684,-3.0518,-3.081,-3.0547,-3.0195,-3.0195,-3.0332,0.0,0.0,-2.9834,-3.041,-3.0234,-3.0771,0.0,0.0,0.0,0.0,0.0,0.0,0.0,0.0,0.0,0.0,0.0,0.0,0.0,0.0,0.0,0.0,0.0,0.0,0.0,0.0,0.0,0.0,0.0,0.0,0.0,0.0,-2.3106,-2.3171,-2.3288,-2.3046,-2.2926,-2.2918,-2.2543,-2.2237,-2.1922,-2.167,-2.1425,-2.1109,-2.1109,-2.2341,-2.4502,-2.665,-2.8122,-2.8984,-2.8984,-2.8984,-2.8984,0.0,0.0,0.0,0.0,0.0,0.0,0.0,0.0,0.0,0.0,0.0,0.0,0.0,0.0,0.0,0.0,0.0,0.0,-3.8552,-3.785,-3.6783,-3.5132,-3.3738,-3.2459,-3.1223,-3.0302,-2.947,-2.8691,-2.8529,-2.8356,-2.8257,-2.8389,-2.8138,-2.764,-2.8043,-2.7993,-2.7593,-2.8051,-2.8546,-2.9051,-2.9456,-2.9932,0.0,0.0,0.0,0.0,0.0,0.0,0.0,0.0,0.0,0.0,0.0,0.0,0.0,0.0,-3.0244,-3.0068,-3.0381,-3.0342,-3.0166,-3.0029,0.0,0.0,-2.9326,-2.9795,-3.0371,-3.0225,-3.0898,-3.1611,-3.1904,0.0,0.0,0.0,0.0,0.0,0.0,0.0,0.0,0.0,0.0,0.0,0.0,0.0,0.0,0.0,0.0,0.0,0.0,0.0,0.0,0.0,0.0,0.0,0.0,-2.372,-2.3542,-2.3106,-2.3106,-2.3106,-2.3106,-2.2863,-2.2543,-2.223,-2.1922,-2.1544,-2.1235,-2.1172,-2.2654,-2.524,-2.7933,-2.8984,-2.8984,-2.8984,-2.8902,-2.8792,0.0,0.0,0.0,0.0,0.0,0.0,0.0,0.0,0.0,0.0,0.0,0.0,0.0,0.0,0.0,0.0,0.0,0.0,-3.845,-3.8208,-3.7182,-3.508,-3.3685,-3.2416,-3.1233,-3.0173,-2.9636,-2.9626,-2.9626,-2.9402,-2.9076,-2.9132,-2.8743,-2.8121,-2.8406,-2.8276,-2.7935,-2.8622,-2.8916,-2.8955,-2.9394,-2.9626,-2.9675,0.0,0.0,0.0,0.0,0.0,0.0,0.0,-3.0889,0.0,0.0,0.0,0.0,0.0,-2.9626,-2.9626,-2.957,-2.9873,-3.0098,-2.9687,0.0,0.0,-2.9785,-3.0264,-3.0762,-3.0303,-3.0908,-3.1514,-3.1514,0.0,0.0,0.0,0.0,0.0,0.0,0.0,0.0,0.0,0.0,0.0,0.0,0.0,0.0,0.0,0.0,0.0,0.0,0.0,0.0,0.0,0.0,0.0,0.0,-2.5133,-2.4456,-2.3106,-2.3098,-2.3106,-2.3106,-2.3106,-2.2918,-2.2613,-2.223,-2.1915,-2.1607,-2.1292,-2.2647,-2.5293,-2.7924,-2.8975,-2.8975,-2.8975,-2.8728,-2.8388,0.0,0.0,0.0,0.0,0.0,0.0,0.0,0.0,0.0,0.0,0.0,0.0,0.0,0.0,0.0,0.0,0.0,0.0,-3.9073,-3.7996,-3.6684,-3.4982,-3.3569,-3.2215,-3.0995,-3.0671,-3.0195,-2.9626,-2.9626,-2.957,-2.9468,-2.976,-2.9616,-2.9162,-2.9218,-2.903,-2.8612,-2.8491,-2.8652,-2.8955,-2.9394,-2.9746,-3.0059,0.0,0.0,0.0,0.0,0.0,0.0,0.0,0.0,0.0,0.0,0.0,0.0,0.0,-2.9626,-2.9629,-2.9932,-2.9883,0.0,-3.0371,0.0,0.0,0.0,-3.0703,0.0,0.0,0.0,-3.1514,-3.1514,0.0,0.0,0.0,0.0,0.0,0.0,0.0,0.0,0.0,0.0,0.0,0.0,0.0,0.0,0.0,0.0,0.0,0.0,0.0,0.0,0.0,0.0,0.0,0.0,0.0,-2.4524,-2.4152,-2.3036,-2.2689,-2.3106,-2.3106,-2.2918,-2.2598,-2.2066,-2.2091,-2.2678,-2.3873,-2.4844,-2.5738,-2.7468,-2.818,-2.818,-2.818,-2.8107,-2.7957,0.0,0.0,0.0,0.0,0.0,0.0,0.0,0.0,0.0,0.0,-4.4957,-4.3923,0.0,0.0,0.0,0.0,0.0,0.0,0.0,-3.7566,-3.6197,-3.4101,-3.3176,-3.2133,-3.0947,-3.0889,-3.0625,-3.0098,-3.0098,-3.0098,-3.0098,-3.0351,-3.0146,-2.9626,-2.9626,-2.9238,-2.8652,-2.8398,-2.8535,-2.8945,-2.9209,-2.956,-3.0,0.0,0.0,0.0,0.0,0.0,0.0,0.0,0.0,0.0,0.0,0.0,0.0,-2.916,-2.918,-2.9336,-2.9414,-2.9629,0.0,-3.0059,-3.0098,-3.0234,-3.0771,0.0,0.0,0.0,0.0,0.0,0.0,0.0,0.0,0.0,0.0,0.0,0.0,0.0,0.0,0.0,0.0,0.0,0.0,0.0,0.0,0.0,0.0,0.0,0.0,0.0,0.0,0.0,0.0,0.0,0.0,0.0,0.0,-2.503,-2.4067,-2.3769,-2.4098,-2.3154,-2.2617,-2.2425,-2.2277,-2.2365,-2.2758,-2.4918,-2.5825,-2.5941,-2.7299,-2.7822,-2.7822,-2.7822,-2.7721,-2.7583,0.0,0.0,0.0,0.0,0.0,0.0,0.0,0.0,0.0,0.0,-4.4851,-4.3782,0.0,0.0,0.0,0.0,0.0,0.0,0.0,0.0,-3.5542,-3.2799,-3.2571,-3.2008,-3.0947,-3.0889,-3.0889,-3.0889,-3.0889,-3.0889,-3.0889,-3.085,-3.04,-2.9629,-2.9646,-2.9141,-2.8408,-2.8408,-2.8633,-2.8984,-2.9014,-2.9268,-2.9678,-3.0098,0.0,0.0,0.0,0.0,0.0,0.0,0.0,0.0,0.0,0.0,-2.946,-2.8545,-2.8584,-2.8848,-2.8506,0.0,0.0,-2.9277,-3.0,0.0,-3.0889,-3.0889,-3.0889,0.0,0.0,0.0,0.0,0.0,0.0,0.0,0.0,0.0,0.0,0.0,0.0,0.0,0.0,0.0,0.0,0.0,0.0,0.0,0.0,0.0,0.0,0.0,0.0,0.0,0.0,0.0,0.0,0.0,0.0,0.0,-2.5656,-2.5581,-2.5532,-2.3366,-2.2222,-2.214,-2.281,-2.2713,-2.2268,-2.4845,-2.5895,-2.601,-2.7182,-2.7711,-2.7711,-2.7711,-2.7435,-2.7123,0.0,0.0,0.0,0.0,0.0,0.0,0.0,0.0,0.0,0.0,0.0,0.0,0.0,0.0,0.0,0.0,0.0,0.0,0.0,0.0,-3.3596,-3.2742,-3.1787,-3.117,-3.0898,-3.0889,-3.0889,-3.0889,-3.0889,-3.0889,-3.0889,-3.0518,-3.0244,-3.0049,-2.9717,-2.9518,-2.9297,-2.9297,-2.9346,-2.9453,-2.9785,-2.998,-3.0107,-3.0566,-3.0742,0.0,0.0,0.0,0.0,0.0,0.0,0.0,-2.9853,-2.9626,-2.946,-2.8545,-2.8584,-2.8975,0.0,-2.9492,0.0,0.0,0.0,0.0,0.0,0.0,0.0,0.0,0.0,0.0,0.0,0.0,0.0,0.0,0.0,0.0,0.0,0.0,0.0,0.0,0.0,0.0,0.0,0.0,0.0,0.0,0.0,0.0,0.0,0.0,0.0,0.0,0.0,0.0,-2.9169,-2.7931,-2.7149,0.0,-2.5569,-2.4911,-2.4872,-2.3935,-2.2653,-2.1192,-2.322,-2.3574,-2.2969,-2.5418,-2.6443,-2.6443,-2.6728,-2.6839,-2.6839,-2.6839,-2.6784,-2.6719,0.0,0.0,0.0,0.0,0.0,0.0,0.0,0.0,0.0,0.0,0.0,0.0,0.0,0.0,0.0,0.0,0.0,0.0,0.0,0.0,0.0,-3.1903,-3.1228,-3.0889,-3.0889,-3.0889,-3.0889,-3.0889,-3.0889,-3.0889,-3.0889,-3.0644,-3.041,-3.0185,-2.9971,-2.9756,-2.9626,-2.9626,-2.9687,-2.9893,-3.0107,-3.0332,-3.0557,-3.0801,-3.0889,-3.0889,-3.0889,0.0,0.0,0.0,0.0,0.0,0.0,0.0,-2.9131,-2.8486,-2.874,-2.9238,0.0,0.0,0.0,0.0,0.0,0.0,0.0,0.0,0.0,0.0,0.0,0.0,0.0,0.0,0.0,0.0,0.0,0.0,0.0,0.0,0.0,0.0,0.0,0.0,0.0,0.0,0.0,0.0,0.0,0.0,0.0,0.0,0.0,0.0,0.0,0.0,-2.8965,-2.8122,-2.7734,-2.7734,-2.6837,-2.6118,-2.5525,-2.4695,-2.3632,-2.2551,-2.4273,-2.467,-2.4197,-2.5907,-2.6591,-2.6591,-2.6591,-2.6591,-2.6591,-2.6591,-2.6591,-2.6591,0.0,0.0,0.0,0.0,0.0,0.0,0.0,0.0,0.0,0.0,0.0,0.0,0.0,0.0,0.0,0.0,0.0,0.0,0.0,0.0,0.0,-3.0947,-3.0889,-3.0889,-3.0889,-3.0889,-3.0889,-3.0889,-3.0889,-3.085,-3.0771,-3.0771,-3.0527,-3.0098,-3.0166,-3.0,-2.9687,-2.9766,-3.0,-3.0322,-3.0322,-3.0547,-3.0889,-3.0889,-3.0889,-3.0889,-3.0889,-3.0889,-3.0889,-3.0889,0.0,0.0,0.0,0.0,-2.8838,-2.8418,-2.8848,-2.9394,0.0,0.0,0.0,0.0,0.0,0.0,0.0,0.0,0.0,0.0,0.0,0.0,0.0,0.0,0.0,0.0,0.0,0.0,0.0,0.0,0.0,0.0,0.0,0.0,0.0,0.0,0.0,0.0,0.0,0.0,0.0,0.0,0.0,0.0,0.0,-2.8643,-2.8301,-2.8291,-2.8291,-2.8291,-2.8291,-2.7799,-2.6799,-2.5781,-2.4948,-2.4339,-2.5322,-2.5551,-2.5296,-2.6282,-2.6636,-2.6591,-2.6591,-2.6591,-2.6591,-2.6591,-2.6591,-2.6591,0.0,0.0,0.0,0.0,0.0,0.0,0.0,0.0,0.0,0.0,-4.0985,0.0,0.0,0.0,0.0,0.0,0.0,0.0,-3.3519,0.0,0.0,-3.0889,-3.0889,-3.0889,-3.0889,-3.0889,-3.0889,-3.0889,-3.0889,-3.0684,-3.0293,-3.0293,-3.0059,-2.9724,-3.0029,-3.0166,-3.0137,-3.0547,-3.0752,-3.0801,-3.0801,-3.083,-3.0889,-3.0889,-3.0889,-3.0889,-3.0889,-3.0889,-3.0889,-3.0889,-3.0586,0.0,0.0,0.0,-2.8838,-2.8418,-2.8633,-2.9072,0.0,0.0,0.0,0.0,0.0,0.0,0.0,0.0,0.0,0.0,0.0,0.0,0.0,0.0,0.0,0.0,0.0,0.0,0.0,0.0,0.0,0.0,0.0,0.0,0.0,0.0,0.0,0.0,0.0,0.0,0.0,0.0,-2.8437,-2.8379,-2.8379,0.0,-2.8291,-2.8291,-2.8291,-2.8291,-2.8291,-2.8237,-2.8067,-2.7897,-2.6509,-2.4394,-2.5525,-2.5698,-2.5296,-2.6482,-2.6791,-2.6591,-2.6591,-2.6591,-2.6591,-2.6591,-2.6591,-2.6591,0.0,0.0,0.0,0.0,0.0,0.0,0.0,0.0,0.0,0.0,0.0,-3.988,0.0,0.0,0.0,-3.7624,-3.6162,-3.4303,-3.2045,-3.1276,-3.0889,-3.0889,-3.0889,-3.0889,-3.0889,-3.0889,-3.0889,-3.0889,-3.0889,-3.0654,-3.0205,-3.0459,-3.0351,-2.9941,-3.0391,-3.0586,-3.0605,-3.0801,-3.0889,-3.0889,-3.0889,-3.0732,-3.0537,-3.0791,-3.0732,-3.0537,-3.0801,-3.0723,-3.0508,-3.0508,-3.0049,-2.9443,-2.9268,0.0,0.0,0.0,-2.8945,0.0,0.0,0.0,0.0,0.0,0.0,0.0,0.0,0.0,0.0,0.0,0.0,0.0,0.0,0.0,0.0,0.0,0.0,0.0,0.0,0.0,0.0,0.0,0.0,0.0,0.0,0.0,0.0,0.0,0.0,0.0,0.0,-2.8291,-2.8291,-2.8291,-2.8291,0.0,-2.8291,-2.8291,-2.8291,-2.8291,-2.8291,-2.8291,-2.8291,-2.8291,-2.7682,-2.6563,-2.6744,-2.6699,-2.6472,-2.6673,-2.6691,-2.6591,-2.6591,-2.6591,-2.6591,-2.6591,-2.6591,-2.6591,0.0,0.0,0.0,0.0,0.0,0.0,0.0,0.0,0.0,0.0,0.0,0.0,0.0,0.0,0.0,0.0,-3.5945,-3.4035,-3.1112,-3.0889,-3.0889,-3.0889,-3.0889,-3.0889,-3.0889,-3.0889,-3.083,-3.0713,-3.0713,-3.0478,-3.0049,-3.0508,-3.0527,-3.0215,-3.0684,-3.0889,-3.0889,-3.0889,-3.0889,-3.0937,-3.11,-3.0958,-3.067,-3.1184,-3.1167,-3.0896,-3.0926,-3.0769,-3.0416,-3.0152,-2.9541,-2.8916,-2.8916,-2.8633,0.0,0.0,0.0,0.0,0.0,0.0,0.0,0.0,0.0,0.0,0.0,0.0,0.0,0.0,0.0,0.0,0.0,0.0,0.0,0.0,0.0,0.0,0.0,0.0,0.0,0.0,0.0,0.0,0.0,0.0,0.0,0.0,0.0,0.0,-2.8291,-2.8291,-2.8291,-2.8291,-2.8291,-2.8291,-2.8291,-2.8291,-2.8291,-2.8291,-2.8291,-2.8291,-2.8291,-2.8291,-2.8291,-2.8291,-2.7755,-2.7485,-2.7377,-2.6899,-2.6636,-2.6591,-2.6591,-2.6591,-2.6591,-2.6591,-2.6591,-2.6591,0.0,0.0,0.0,0.0,0.0,0.0,0.0,0.0,0.0,0.0,0.0,0.0,-3.9697,-3.9697,-3.8647,-3.5999,-3.5508,-3.4035,-3.1112,-3.0889,-3.0889,-3.0889,-3.0889,0.0,-3.0889,-3.0889,-3.0674,-3.0234,-3.0234,-3.0019,-2.9665,-3.0039,-3.0215,-3.0215,-3.0684,-3.0889,-3.0889,-3.0889,-3.0889,-3.0966,-3.1578,-3.1824,-3.1864,-3.2543,-3.2792,-3.2609,-3.1558,-3.1175,-3.099,-2.998,-2.9297,-2.8916,-2.8916,-2.8633,-2.8301,0.0,0.0,0.0,0.0,0.0,0.0,0.0,0.0,0.0,0.0,0.0,0.0,0.0,0.0,0.0,0.0,0.0,0.0,0.0,0.0,0.0,0.0,0.0,0.0,0.0,0.0,0.0,0.0,0.0,0.0,0.0,0.0,0.0,-2.8291,-2.8291,-2.8291,-2.8291,-2.8291,-2.8291,-2.8291,-2.8291,-2.8291,-2.8291,-2.8291,-2.8291,-2.8291,-2.8291,-2.8291,-2.8291,-2.8014,-2.7691,-2.7377,-2.7107,-2.6845,-2.6591,-2.6591,-2.6591,-2.6591,-2.6591,-2.6591,-2.6591,0.0,0.0,0.0,0.0,0.0,0.0,0.0,0.0,0.0,0.0,0.0,0.0,0.0,-3.9484,-3.8647,-3.5945,-3.3866,-3.2217,-3.1005,-3.0889,-3.0889,-3.0889,-3.0889,-3.0889,-3.0889,-3.0596,-3.0361,-3.0195,-2.9932,-2.9717,-2.957,-2.9726,-2.9941,-3.0215,-3.0684,-3.0889,-3.0889,-3.0889,-3.1344,-3.2025,-3.1943,-3.2172,-3.2673,-3.3171,-3.2964,-3.2454,-3.2685,-3.1929,-3.0745,-3.0377,-2.9445,-2.8516,-2.8516,-2.8418,-2.834,-2.8613,-2.9111,0.0,0.0,0.0,0.0,0.0,0.0,0.0,0.0,0.0,0.0,0.0,0.0,0.0,0.0,0.0,0.0,0.0,0.0,0.0,0.0,0.0,0.0,0.0,0.0,0.0,0.0,0.0,0.0,0.0,0.0,0.0,-2.8291,-2.8291,-2.8291,-2.8291,-2.8291,-2.8291,-2.8291,-2.8291,-2.8291,-2.8291,-2.8291,-2.8291,-2.8291,-2.8291,-2.8291,-2.8291,-2.8014,-2.7691,-2.7377,-2.6899,-2.6691,-2.6591,-2.6591,-2.6591,-2.6591,-2.6591,-2.6691,-2.6836,0.0,0.0,0.0,0.0,0.0,0.0,0.0,0.0,0.0,-3.7688,0.0,0.0,0.0,0.0,-3.8439,-3.5934,-3.3098,-3.1325,-3.1054,-3.0947,-3.0889,-3.0889,-3.0742,-3.0664,-3.0664,-3.0215,0.0,0.0,0.0,0.0,0.0,-2.9355,-2.9658,-3.0205,-3.0518,-3.0742,-3.0947,-3.1344,-3.196,-3.269,-3.2749,-3.3204,-3.3812,-3.4131,-3.3712,-3.3052,0.0,0.0,0.0,-3.0535,-2.9662,-2.8751,-2.8388,-2.8291,-2.8369,-2.8789,-2.9121,-2.9385,-2.9587,0.0,0.0,0.0,0.0,0.0,0.0,0.0,0.0,0.0,0.0,0.0,0.0,0.0,0.0,0.0,0.0,0.0,0.0,0.0,0.0,0.0,0.0,0.0,0.0,0.0,0.0,0.0,0.0,0.0,-2.9428,-2.9059,-2.8644,-2.8291,-2.8291,-2.8291,-2.8291,-2.8291,-2.8291,-2.8291,-2.8291,-2.8291,-2.8291,-2.8291,-2.8291,-2.8291,-2.8014,-2.7691,-2.7377,-2.6899,-2.6736,-2.6736,-2.6736,-2.6791,-2.6854,-2.6854,-2.7008,-2.7152,0.0,0.0,0.0,0.0,0.0,0.0,0.0,0.0,-3.7161,-3.7161,0.0,0.0,0.0,0.0,0.0,-3.5799,-3.3226,-3.1632,-3.1285,-3.1014,-3.085,-3.085,-3.042,-3.0176,-3.0176,0.0,0.0,0.0,0.0,0.0,0.0,0.0,-2.9355,-3.0233,-3.0233,-3.0497,-3.1054,0.0,-3.2742,-3.2943,0.0,-3.4927,-3.5419,-3.5536,0.0,0.0,-3.417,-3.3258,0.0,-3.0485,0.0,0.0,-2.8654,-2.8291,-2.8369,-2.8779,-2.8896,-2.8994,0.0,0.0,0.0,0.0,0.0,0.0,0.0,0.0,0.0,0.0,0.0,0.0,0.0,0.0,0.0,0.0,0.0,0.0,0.0,0.0,0.0,0.0,0.0,0.0,0.0,0.0,0.0,0.0,0.0,-3.1575,-3.1575,-3.0546,-2.9418,-2.8344,-2.8291,-2.8291,-2.8291,-2.8291,-2.8291,-2.8291,-2.8291,-2.8291,-2.8291,-2.8291,-2.8291,-2.8291,-2.8014,-2.7691,-2.7377,-2.7098,-2.6989,-2.6989,-2.6989,-2.7152,-2.7377,-2.7377,-2.7431,-2.7431,0.0,0.0,0.0,0.0,0.0,0.0,-3.6909,-3.6672,-3.6631,0.0,0.0,0.0,-3.7412,-3.6507,-3.5196,-3.3581,-3.1847,-3.072,-3.0393,-3.0101,-2.9941,-2.9941,-2.9814,-2.9746,-2.9746,0.0,0.0,0.0,0.0,0.0,0.0,0.0,0.0,0.0,-3.0888,-3.1686,-3.2804,-3.2918,0.0,-3.5211,-3.5012,-3.542,0.0,0.0,0.0,0.0,0.0,-3.4183,-3.287,0.0,-3.1206,-2.9723,-2.8654,-2.8291,-2.831,-2.8428,-2.8467,-2.8496,-2.8613,0.0,0.0,0.0,0.0,0.0,0.0,0.0,0.0,0.0,0.0,0.0,0.0,0.0,0.0,0.0,0.0,0.0,0.0,0.0,0.0,0.0,0.0,0.0,0.0,0.0,0.0,0.0,0.0,-3.1575,-3.1575,-3.0546,-2.9418,-2.8344,-2.8291,-2.8291,-2.8291,-2.8291,-2.8291,-2.8291,-2.8291,-2.8291,-2.8291,-2.8291,-2.8291,-2.8291,-2.8237,-2.8014,-2.7745,-2.7422,-2.7269,-2.7269,-2.7269,-2.7314,-2.7377,-2.7377,-2.753,-2.7745,0.0,0.0,0.0,0.0,0.0,0.0,-3.6499,-3.6405,-3.6405,0.0,0.0,0.0,-3.7161,-3.547,-3.4141,-3.3557,-3.1734,-3.057,-3.0404,-3.0127,-2.9951,-2.9951,-2.9782,-2.9683,-2.9683,0.0,0.0,0.0,0.0,0.0,0.0,0.0,0.0,0.0,0.0,0.0,0.0,0.0,0.0,0.0,-3.5968,0.0,0.0,-3.5905,-3.5246,0.0,0.0,0.0,-3.3426,-3.3269,-3.2033,0.0,0.0,-2.8953,-2.891,-2.8451,-2.8291,-2.8291,-2.8291,-2.8654,-2.8953,0.0,0.0,0.0,0.0,-2.9601,0.0,0.0,0.0,0.0,0.0,0.0,0.0,0.0,0.0,0.0,0.0,0.0,0.0,0.0,0.0,0.0,0.0,0.0,0.0,0.0,-3.27,-3.275,-3.2286,-3.1615,-3.0587,-2.9006,-2.8953,-2.8751,-2.8291,-2.8291,-2.8291,-2.8291,-2.8291,-2.8291,-2.8291,-2.8291,-2.8291,-2.8291,-2.8291,-2.8237,-2.8077,-2.7862,-2.7691,-2.7584,-2.7584,-2.7701,-2.7755,-2.7755,-2.7916,-2.8077,0.0,0.0,0.0,0.0,0.0,0.0,0.0,-3.6405,-3.6405,0.0,-3.6405,-3.6546,-3.6891,-3.5087,-3.3948,-3.4308,-3.2159,-3.0748,-3.0748,-3.0464,-3.0244,-3.0244,-2.9937,-2.9725,-2.9725,0.0,0.0,0.0,0.0,0.0,0.0,0.0,0.0,0.0,0.0,0.0,0.0,0.0,0.0,-3.6707,-3.6934,-3.7054,0.0,0.0,-3.5242,-3.4722,-3.5327,-3.4849,-3.3837,-3.335,-3.2488,0.0,0.0,0.0,0.0,-2.8751,-2.8548,-2.8654,-2.8495,-2.926,-3.0078,-3.0078,0.0,0.0,-3.0401,-3.0214,-3.0245,0.0,0.0,0.0,0.0,0.0,0.0,0.0,0.0,0.0,0.0,0.0,0.0,0.0,0.0,0.0,0.0,0.0,0.0,-3.335,-3.4274,-3.4323,-3.325,-3.3201,-3.2185,-2.9974,-2.9922,-2.9355,-2.8291,-2.8291,-2.8291,-2.8291,-2.8291,-2.8291,-2.8291,-2.8291,-2.8291,-2.8291,-2.8291,-2.8291,-2.8291,-2.8291,-2.8184,-2.796,-2.796,-2.8067,-2.8291,-2.8291,-2.8291,-2.8291,-3.8251,0.0,0.0,0.0,0.0,0.0,0.0,-3.6405,-3.6405,-3.6405,-3.6405,-3.6111,-3.5369,-3.4096,-3.3032,-3.2247,-3.0779,-2.9862,-2.9862,-2.9553,-2.933,-2.933,-2.9303,-2.9263,-2.9263,-2.9172,0.0,0.0,0.0,0.0,0.0,0.0,0.0,0.0,0.0,0.0,0.0,0.0,0.0,-3.7449,-3.7987,0.0,-3.7103,-3.6467,-3.5758,-3.5112,-3.5211,-3.498,-3.4454,-3.3545,-3.2488,-3.1575,0.0,0.0,0.0,-2.967,0.0,-3.0753,-2.9828,-3.039,-3.1268,0.0,0.0,0.0,-3.1733,-3.2145,-3.2386,0.0,0.0,0.0,0.0,0.0,0.0,0.0,0.0,0.0,0.0,0.0,0.0,0.0,0.0,0.0,0.0,0.0,-3.356,-3.4421,-3.4677,-3.4323,-3.325,-3.3201,-3.2185,-2.9974,-2.9922,-2.9355,-2.8291,-2.8291,-2.8291,-2.8291,-2.8291,-2.8291,-2.8291,-2.8291,-2.8291,-2.8291,-2.8291,-2.8291,-2.8291,-2.8291,-2.8291,-2.8237,-2.8237,-2.8237,-2.8291,-2.8291,-2.8291,-2.8291,-3.79,0.0,0.0,0.0,0.0,0.0,0.0,-3.6405,-3.6405,-3.6405,-3.6405,-3.6216,-3.5667,-3.4141,-3.3001,-3.2437,-3.0836,-2.9774,-2.9774,-2.9669,-2.9564,-2.9564,-2.9564,-2.9564,-2.9564,-3.0057,0.0,0.0,0.0,0.0,0.0,0.0,0.0,0.0,0.0,0.0,0.0,0.0,-3.7804,-3.7805,-3.7966,0.0,-3.6714,-3.6235,-3.5757,-3.5416,-3.5416,-3.5223,-3.4932,-3.4372,-3.3758,0.0,0.0,-3.2033,-3.1462,0.0,-3.1165,-3.1472,0.0,0.0,0.0,-3.2387,0.0,0.0,0.0,-3.2971,-3.3119,0.0,0.0,0.0,0.0,0.0,0.0,0.0,0.0,0.0,0.0,0.0,0.0,0.0,0.0,0.0,0.0,0.0,-3.4225,-3.4775,-3.4775,-3.458,-3.4017,-3.4017,-3.3001,-3.0794,-3.0753,-2.9984,-2.8291,-2.8291,-2.8291,-2.8291,-2.8291,-2.8291,-2.8291,-2.8291,-2.8291,-2.8291,-2.8291,-2.8291,-2.8291,-2.8291,-2.8291,-2.8291,-2.8291,-2.8291,-2.8291,-2.8291,-2.8291,-2.8291,-3.7533,-3.6909,0.0,0.0,0.0,0.0,0.0,0.0,-3.6405,-3.6405,-3.6405,-3.6405,-3.6405,-3.4678,-3.3499,-3.3499,-3.175,-3.0547,-3.0339,-3.0495,-3.0495,-3.0339,-3.0495,-3.0599,-3.0599,-3.1432,0.0,0.0,0.0,0.0,0.0,0.0,0.0,0.0,0.0,0.0,0.0,0.0,0.0,-3.7701,0.0,-3.7134,-3.6517,-3.6073,-3.5803,-3.5668,-3.5572,-3.5368,-3.5175,-3.5126,-3.4823,-3.4372,-3.3709,-3.3362,0.0,0.0,0.0,0.0,0.0,0.0,0.0,0.0,0.0,-3.458,0.0,0.0,0.0,0.0,0.0,0.0,0.0,0.0,0.0,0.0,0.0,0.0,0.0,0.0,0.0,0.0,0.0,0.0,0.0,0.0,-3.4667,-3.4775,-3.4643,-3.4571,-3.4619,-3.4534,-3.3515,-3.1403,-3.1302,-3.0282,-2.8047,-2.8047,-2.8047,-2.8047,-2.8047,-2.8047,-2.8047,-2.8047,-2.8047,-2.8047,-2.8047,-2.8047,-2.8047,-2.8047,-2.8047,-2.8066,-2.8223,-2.8291,-2.8281,-2.8203,-2.8174,-2.8164,-3.6546,-3.6452,-3.6405,0.0,0.0,0.0,0.0,0.0,-3.6405,-3.6405,-3.6405,-3.6405,-3.6405,-3.5319,-3.4629,-3.4629,-3.3549,-3.2448,-3.1483,-3.2297,-3.2398,-3.1483,0.0,-3.2851,-3.2851,-3.2951,-3.3001,0.0,0.0,0.0,0.0,0.0,0.0,0.0,-3.6216,0.0,0.0,0.0,-3.6935,0.0,-3.7086,-3.7188,0.0,-3.7014,-3.6557,-3.5908,-3.5428,-3.5223,-3.5175,0.0,-3.4164,-3.3511,0.0,-3.3967,-3.3201,-3.3051,0.0,0.0,0.0,0.0,0.0,0.0,-3.4726,0.0,0.0,0.0,0.0,0.0,0.0,0.0,0.0,0.0,0.0,0.0,0.0,0.0,0.0,0.0,0.0,0.0,0.0,0.0,0.0,0.0,0.0,-3.4751,-3.3982,-3.3657,-3.4054,-3.3705,-3.2475,-3.0346,-3.0248,-2.9271,-2.7158,-2.7158,-2.7158,-2.7158,-2.7158,-2.7158,-2.7158,-2.7158,-2.7158,-2.7158,-2.7158,-2.7158,-2.7158,-2.7158,-2.7158,-2.7236,-2.7998,-2.8291,-2.8252,-2.7881,-2.7787,-2.7738,-3.6405,-3.6405,-3.6405,0.0,0.0,0.0,0.0,0.0,-3.6405,-3.6405,-3.6405,-3.6405,-3.6405,-3.5415,-3.4775,-3.4775,-3.3796,-3.3001,0.0,-3.2951,-3.3001,-3.2538,0.0,0.0,-3.3201,-3.3796,-3.4141,0.0,-3.5223,0.0,0.0,0.0,0.0,0.0,-3.6405,0.0,-3.6417,0.0,-3.6619,0.0,0.0,0.0,0.0,-3.6757,-3.6523,-3.6181,-3.5812,-3.5572,-3.5368,0.0,-3.4628,0.0,0.0,0.0,0.0,0.0,0.0,0.0,0.0,0.0,0.0,0.0,0.0,0.0,-3.4775,0.0,-3.4775,0.0,0.0,0.0,0.0,0.0,0.0,0.0,0.0,0.0,0.0,0.0,0.0,0.0,0.0,0.0,0.0,0.0,0.0,0.0,0.0,-3.338,-3.3585,-3.3404,-3.23,-3.0182,-3.0084,-2.9112,-2.7012,-2.7012,-2.7012,-2.7012,-2.7012,-2.7012,-2.7012,-2.7012,-2.7012,-2.7012,-2.7012,-2.7012,-2.7012,-2.7012,-2.7012,-2.7051,-2.7412,-2.7549,-2.7529,-2.7353,-2.7285,-2.7266,-3.6405,-3.6405,-3.6405,0.0,0.0,0.0,0.0,0.0,0.0,0.0,0.0,0.0,-3.6405,-3.5715,-3.5223,-3.5223,-3.4532,-3.3944,0.0,0.0,-3.3944,0.0,0.0,0.0,0.0,0.0,0.0,0.0,0.0,0.0,0.0,0.0,0.0,0.0,0.0,-3.6405,-3.6405,0.0,0.0,-3.6405,-3.6405,-3.6405,-3.6405,-3.6405,-3.6405,-3.6358,-3.6098,-3.5824,-3.5572,-3.538,-3.5078,0.0,-3.4884,0.0,0.0,0.0,0.0,0.0,-3.4775,0.0,0.0,0.0,0.0,0.0,0.0,0.0,0.0,0.0,0.0,0.0,0.0,0.0,0.0,-3.4775,0.0,0.0,0.0,0.0,0.0,0.0,0.0,0.0,0.0,0.0,0.0,0.0,-3.3224,0.0,-3.3068,-3.2923,-3.1868,-2.9777,-2.974,-2.8733,-2.666,-2.667,-2.667,-2.667,-2.667,-2.667,-2.667,-2.667,-2.667,-2.667,-2.667,-2.667,-2.667,-2.667,-2.667,-2.667,-2.667,-2.667,-2.668,-2.6797,-2.6846,-2.6877,-3.6405,-3.6405,-3.6405,0.0,0.0,0.0,0.0,0.0,0.0,0.0,0.0,0.0,0.0,0.0,0.0,0.0,0.0,-3.587,-3.4836,0.0,-3.581,0.0,0.0,-3.631,0.0,0.0,0.0,0.0,0.0,0.0,0.0,0.0,0.0,0.0,0.0,-3.6405,-3.6405,-3.6405,-3.6405,-3.6405,-3.6405,-3.6405,-3.6405,0.0,-3.6405,-3.6358,-3.6098,0.0,0.0,-3.5572,-3.5223,0.0,0.0,0.0,0.0,0.0,0.0,0.0,0.0,0.0,0.0,-3.4775,0.0,0.0,0.0,0.0,-3.4775,0.0,0.0,0.0,0.0,-3.4775,-3.4775,-3.4775,-3.4775,0.0,0.0,0.0,0.0,0.0,0.0,0.0,0.0,0.0,0.0,0.0,-3.2367,0.0,-3.2491,-3.201,-3.0826,-2.8817,-2.8724,-2.7762,-2.5781,-2.5732,-2.5732,-2.5732,-2.5732,-2.5732,-2.5732,-2.5732,-2.5732,-2.5732,-2.5732,-2.5732,-2.5732,-2.5732,-2.5732,-2.5732,-2.5732,-2.5732,-2.5781,-2.625,-2.6406,-2.6487,-3.6405,-3.6405,-3.6405,0.0,0.0,0.0,0.0,-3.6405,0.0,0.0,0.0,0.0,0.0,-3.6405,-3.6405,0.0,0.0,-3.6263,-3.587,-3.6216,0.0,0.0,0.0,-3.6405,0.0,0.0,0.0,0.0,0.0,0.0,0.0,0.0,0.0,0.0,0.0,-3.6405,0.0,0.0,0.0,0.0,0.0,-3.6405,-3.6405,0.0,0.0,-3.6358,-3.6098,-3.5968,0.0,-3.5464,-3.5223,-3.5078,-3.4981,-3.4884,-3.4775,-3.4775,-3.4775,0.0,0.0,0.0,-3.4775,-3.4775,0.0,0.0,0.0,0.0,0.0,0.0,0.0,0.0,0.0,-3.4775,-3.4775,-3.4775,-3.4775,-3.4775,0.0,0.0,0.0,0.0,0.0,0.0,0.0,0.0,0.0,-3.2767,-3.2126,-3.1789,0.0,-3.1813,-3.0767,-2.8773,-2.868,-2.7709,-2.5742,-2.5693,-2.5693,-2.5693,-2.5693,-2.5693,-2.5693,-2.5693,-2.5693,-2.5693,-2.5693,-2.5693,-2.5693,-2.5693,-2.5693,-2.5693,-2.5693,-2.5693,-2.5703,-2.5908,-2.5957,-2.6172,-3.6405,-3.6405,0.0,0.0,0.0,0.0,0.0,0.0,0.0,0.0,-3.6405,0.0,-3.6405,0.0,-3.6405,0.0,-3.6405,-3.6405,-3.6405,-3.6405,0.0,-3.6405,-3.6405,0.0,0.0,0.0,0.0,0.0,0.0,-3.6405,0.0,0.0,0.0,0.0,0.0,0.0,-3.6405,0.0,-3.6405,0.0,0.0,-3.6405,0.0,0.0,-3.6405,0.0,0.0,-3.6098,-3.5968,-3.5704,-3.5512,-3.532,-3.5271,-3.5078,-3.492,-3.492,-3.4872,-3.4775,-3.4775,-3.4775,0.0,0.0,-3.4775,0.0,-3.4775,0.0,0.0,0.0,0.0,0.0,0.0,0.0,-3.4775,-3.4775,-3.4775,-3.4775,0.0,-3.4619,0.0,0.0,0.0,0.0,0.0,0.0,-3.2418,-3.2214,-3.191,-3.1705,0.0,0.0,-3.0767,-2.8773,-2.868,-2.7709,-2.5742,-2.5693,-2.5693,-2.5693,-2.5693,-2.5693,-2.5693,-2.5693,-2.5693,-2.5693,-2.5693,-2.5693,-2.5693,-2.5693,-2.5693,-2.5693,-2.5693,-2.5693,-2.5693,-2.5693,-2.6149,-2.6982,-3.6405,0.0,0.0,0.0,-3.6405,0.0,0.0,0.0,-3.6405,0.0,-3.6405,-3.6405,-3.6405,-3.6405,-3.6405,-3.6405,-3.6405,-3.6405,-3.6405,-3.6405,0.0,0.0,-3.6405,-3.6405,-3.6405,0.0,0.0,0.0,0.0,0.0,0.0,0.0,0.0,0.0,-3.6405,0.0,-3.6405,-3.6405,-3.6405,-3.6405,-3.6405,-3.6405,-3.6405,-3.6405,0.0,-3.6405,-3.6405,-3.6228,-3.6051,-3.6323,-3.6038,-3.5668,-3.5908,-3.562,-3.5223,-3.5223,-3.503,-3.4775,-3.4775,-3.4775,-3.4775,-3.4775,0.0,0.0,0.0,0.0,-3.4775,0.0,0.0,0.0,0.0,0.0,-3.4775,-3.4775,-3.4775,-3.4775,-3.4751,-3.4306,0.0,0.0,0.0,0.0,0.0,-3.2767,-3.2238,-3.1753,-3.1705,-3.1705,0.0,0.0,0.0,-2.8819,-2.8727,-2.7757,-2.5781,-2.5732,-2.5693,-2.5693,-2.5693,-2.5693,-2.5693,-2.5693,-2.5693,-2.5693,-2.5693,-2.5693,-2.5693,-2.5693,-2.5693,-2.5693,-2.5693,-2.5732,-2.5781,-2.5781,-2.703,-2.8912,-3.6405,-3.6405,-3.6405,0.0,-3.6405,-3.6405,0.0,0.0,0.0,0.0,-3.6405,-3.6405,-3.6405,-3.6405,-3.6405,-3.6405,-3.6405,0.0,0.0,0.0,0.0,-3.6405,-3.6405,-3.6405,-3.6405,-3.6405,0.0,-3.6405,0.0,0.0,-3.6405,0.0,0.0,0.0,0.0,0.0,-3.6405,-3.6405,-3.6405,-3.6405,-3.6405,-3.6405,0.0,0.0,-3.6405,-3.6405,-3.6405,-3.6358,-3.6275,-3.6146,-3.6003,-3.586,-3.5716,-3.5476,-3.5223,-3.5223,-3.503,-3.4775,-3.4775,-3.4775,-3.4775,-3.4775,-3.4775,-3.4775,0.0,0.0,0.0,0.0,0.0,0.0,0.0,0.0,0.0,-3.4775,-3.4775,-3.4643,-3.4246,0.0,0.0,-3.3525,0.0,0.0,0.0,-3.2202,-3.1862,-3.1717,-3.1705,0.0,0.0,0.0,0.0,-2.9841,-2.9096,-2.8075,-2.6829,-2.6052,-2.5693,-2.5693,-2.5693,-2.5693,-2.5693,-2.5693,-2.5693,-2.5693,-2.5693,-2.5693,-2.5693,-2.5693,-2.5693,-2.5693,-2.5693,-2.6149,-2.6819,-2.6819,-2.8075,-2.9841,-3.6405,0.0,0.0,-3.6405,0.0,0.0,-3.6405,0.0,0.0,-3.6405,-3.6405,0.0,-3.6405,-3.6405,-3.6405,-3.6405,-3.6405,0.0,-3.6405,0.0,0.0,-3.6405,-3.6405,-3.6405,-3.6405,-3.6405,0.0,-3.6405,0.0,0.0,-3.6405,0.0,0.0,0.0,0.0,-3.6405,0.0,-3.6405,-3.6405,-3.6405,-3.6405,0.0,0.0,-3.6405,-3.6405,-3.6405,-3.6405,-3.6405,-3.6358,-3.6228,-3.6193,-3.6133,-3.5991,-3.5752,-3.5572,-3.5572,-3.5271,-3.4981,-3.4981,-3.4872,-3.4775,-3.4775,-3.4775,-3.4775,-3.4775,-3.4775,-3.4775,0.0,0.0,0.0,0.0,0.0,0.0,-3.4474,-3.4438,-3.4258,0.0,0.0,0.0,0.0,0.0,0.0,0.0,0.0,0.0,0.0,0.0,0.0,0.0,0.0,0.0,0.0,-2.9658,-2.868,-2.7237,-2.6648,-2.6149,-2.5693,-2.5693,-2.5693,-2.5693,-2.5693,-2.5693,-2.5693,-2.5693,-2.5693,-2.5693,-2.5693,-2.5693,-2.5732,-2.6187,-2.7247,-2.8495,-2.8495,-2.9235,-3.026,-3.6405,0.0,0.0,0.0,0.0,0.0,0.0,-3.6405,0.0,-3.6405,0.0,-3.6405,-3.6405,-3.6405,-3.6405,-3.6405,0.0,-3.6405,-3.6405,-3.6405,-3.6405,-3.6405,-3.6405,-3.6405,-3.6405,-3.6405,-3.6405,0.0,0.0,0.0,0.0,0.0,0.0,0.0,0.0,0.0,0.0,-3.6405,-3.6405,0.0,-3.6405,-3.6405,-3.6405,-3.6405,-3.6405,-3.6405,-3.6405,-3.6405,-3.6405,-3.6405,-3.6405,-3.6405,-3.6405,-3.6228,-3.5968,-3.5968,-3.5572,-3.5175,-3.5175,-3.4981,-3.4775,-3.4775,-3.4775,-3.4775,-3.4775,-3.4775,-3.4775,-3.4775,-3.4775,0.0,0.0,0.0,0.0,0.0,0.0,0.0,0.0,0.0,0.0,0.0,0.0,0.0,0.0,0.0,0.0,0.0,0.0,0.0,0.0,0.0,0.0,0.0,-3.026,0.0,-2.7605,0.0,-2.6867,-2.5917,-2.5917,-2.583,-2.5693,-2.5693,-2.5693,-2.5693,-2.5693,-2.5781,-2.5917,-2.5917,-2.5965,-2.6197,-2.7057,-2.8541,-3.0215,-3.0215,-3.026,-3.0543,0.0,0.0,0.0,0.0,0.0,-3.6405,-3.6405,-3.6405,-3.6405,-3.6405,-3.6405,-3.6405,-3.6405,-3.6405,-3.6405,-3.6405,-3.6405,0.0,0.0,0.0,0.0,-3.6405,-3.6405,-3.6405,-3.6405,-3.6405,-3.6405,0.0,0.0,0.0,0.0,0.0,0.0,0.0,0.0,0.0,-3.6405,-3.6405,0.0,-3.6405,-3.6405,-3.6405,-3.6405,-3.6405,-3.6405,-3.6405,-3.6405,-3.6405,-3.6405,-3.6405,-3.6405,-3.6405,-3.6405,-3.6228,-3.5968,-3.5716,-3.5464,-3.5126,-3.492,-3.4823,-3.4775,-3.4775,-3.4775,-3.4775,-3.4775,-3.4775,-3.4775,-3.4775,-3.4775,-3.4643,-3.421,0.0,0.0,0.0,0.0,0.0,0.0,0.0,0.0,0.0,0.0,0.0,0.0,0.0,0.0,0.0,0.0,0.0,0.0,0.0,0.0,0.0,0.0,0.0,0.0,0.0,0.0,-2.6962,-2.6962,-2.6504,-2.5693,-2.5693,-2.5693,-2.5693,-2.5693,-2.6187,-2.6962,-2.6962,-2.7426,-2.8179,-2.8355,-2.9143,-3.0215,-3.0215,-3.0734,-3.1472,0.0,0.0,0.0,0.0,0.0,0.0,0.0,-3.6405,0.0,-3.6405,-3.6405,-3.6405,-3.6405,-3.6405,-3.6405,-3.6405,-3.6405,-3.6405,-3.6405,-3.6405,-3.6405,-3.6405,-3.6405,0.0,-3.6405,-3.6405,-3.6405,-3.6405,0.0,0.0,0.0,0.0,0.0,0.0,0.0,-3.6405,0.0,0.0,0.0,-3.6405,-3.6405,-3.6405,-3.6405,-3.6405,-3.6405,-3.6405,-3.6405,-3.6405,-3.6405,-3.6405,-3.6405,-3.6405,-3.6405,-3.6323,-3.6181,-3.6038,-3.5704,-3.538,-3.5271,-3.503,-3.4775,-3.4775,-3.4775,-3.4775,-3.4775,-3.4775,-3.4703,-3.4426,-3.4366,-3.421,-3.3741,-3.3452,0.0,0.0,0.0,0.0,0.0,0.0,0.0,0.0,0.0,0.0,0.0,0.0,0.0,0.0,0.0,0.0,0.0,0.0,0.0,0.0,0.0,0.0,0.0,0.0,0.0,-2.7981,-2.7463,-2.6962,-2.6466,-2.6466,-2.6466,-2.6514,-2.702,-2.7531,-2.7981,-2.7981,-2.8588,-2.9464,-2.9464,-3.0068,-3.0958,-3.0958,-3.1282,-3.1705,0.0,-3.6405,0.0,0.0,-3.6405,0.0,0.0,-3.6405,-3.6405,-3.6405,-3.6405,-3.6405,-3.6405,-3.6405,-3.6405,-3.6405,-3.6405,-3.6405,-3.6405,-3.6405,-3.6405,-3.6405,-3.6405,-3.6405,-3.6405,-3.6405,-3.6405,0.0,0.0,0.0,0.0,0.0,0.0,0.0,0.0,0.0,0.0,0.0,-3.6405,-3.6405,-3.6405,-3.6405,-3.6405,-3.6405,-3.6405,-3.6405,-3.6405,-3.6405,-3.6405,-3.6405,-3.6405,-3.6405,-3.6405,-3.6358,-3.631,-3.6275,-3.5895,-3.5512,-3.5476,-3.5126,-3.4775,-3.4775,-3.4691,-3.4619,-3.4619,-3.4534,-3.4342,-3.3922,-3.3742,-3.3585,-3.3188,-3.3032,0.0,0.0,0.0,0.0,0.0,0.0,0.0,0.0,0.0,0.0,0.0,0.0,0.0,0.0,0.0,0.0,0.0,0.0,0.0,0.0,0.0,0.0,-3.0543,0.0,-3.0022,0.0,-2.8215,-2.7746,-2.751,-2.751,-2.751,-2.7558,-2.8247,-2.8611,-2.8695,-2.8923,-2.9477,-3.0173,-3.0173,-3.0673,-3.1368,-3.1368,-3.1368,-3.1368,0.0,0.0,0.0,0.0,0.0,0.0,0.0,-3.6405,-3.6405,-3.6405,-3.6405,-3.6405,-3.6405,-3.6405,-3.6405,-3.6405,-3.6405,-3.6405,-3.6405,-3.6405,-3.6405,-3.6405,-3.6405,-3.6405,-3.6405,-3.6405,-3.6405,0.0,0.0,0.0,0.0,0.0,0.0,0.0,0.0,0.0,0.0,-3.6405,-3.6405,-3.6405,-3.6405,-3.6405,-3.6405,-3.6405,-3.6405,-3.6405,-3.6405,-3.6405,-3.6405,-3.6405,-3.6405,-3.6405,-3.6405,-3.6228,-3.6015,-3.5764,-3.5464,-3.5175,-3.492,-3.4823,-3.4775,-3.4775,-3.4414,-3.4066,-3.4066,-3.3765,-3.3416,-3.3368,-3.2984,-3.2635,-3.2587,-3.2166,-3.1849,0.0,0.0,0.0,0.0,0.0,0.0,0.0,0.0,0.0,0.0,0.0,0.0,0.0,0.0,0.0,0.0,0.0,0.0,0.0,0.0,-3.1661,-3.156,-3.156,0.0,-3.0068,-2.9977,-2.9418,-2.8588,-2.8588,-2.8588,-2.8566,-2.8176,-2.8233,-2.8674,-2.9612,-3.0006,-3.0103,-3.0103,-3.0188,-3.0242,-3.0242,-3.0242,-3.0242,0.0,0.0,0.0,0.0,0.0,0.0,0.0,-3.6405,-3.6405,-3.6405,-3.6405,-3.6405,-3.6405,-3.6405,-3.6405,-3.6405,-3.6405,-3.6405,-3.6405,-3.6405,-3.6405,-3.6405,-3.6405,-3.6405,-3.6405,-3.6405,-3.6405,0.0,0.0,0.0,0.0,0.0,0.0,0.0,0.0,-3.6405,-3.6405,-3.6405,-3.6405,-3.6405,-3.6405,-3.6405,-3.6405,-3.6405,-3.6405,-3.6405,-3.6405,-3.6405,-3.6405,-3.6405,-3.6405,-3.6405,-3.6405,-3.6323,-3.6228,-3.6133,-3.5565,-3.4939,-3.4844,-3.4376,-3.3909,-3.3909,-3.3753,-3.3585,-3.3585,-3.3428,-3.32,-3.2887,-3.2382,-3.1997,-3.1997,-3.1862,-3.1705,0.0,0.0,0.0,0.0,0.0,0.0,0.0,0.0,0.0,0.0,0.0,0.0,0.0,0.0,0.0,0.0,0.0,0.0,-3.1705,0.0,-3.1705,-3.1705,-3.1705,-3.1516,-3.1092,-3.0498,-2.9977,-2.9601,-2.9252,-2.9272,-2.9526,-2.9329,-2.9347,-2.9513,-2.9947,-3.0086,-3.0086,-3.0086,-3.0086,-3.0086,-3.0086,-3.0086,-3.0037,-3.6405,0.0,-3.6405,0.0,-3.6405,-3.6405,-3.6405,-3.6405,-3.6405,-3.6405,-3.6405,-3.6405,-3.6405,-3.6405,-3.6405,-3.6405,-3.6405,-3.6405,-3.6405,-3.6405,-3.6405,-3.6405,-3.6405,0.0,-3.6405,-3.6405,-3.6405,-3.6405,-3.6405,0.0,0.0,0.0,0.0,0.0,-3.6405,-3.6405,-3.6405,-3.6405,-3.6405,-3.6405,-3.6405,-3.6405,-3.6405,-3.6405,-3.6304,-3.6119,-3.6119,-3.6019,-3.5881,-3.5881,-3.5881,-3.5906,-3.6069,-3.6072,-3.6,-3.5825,-3.5139,-3.4436,-3.4436,-3.3888,-3.3284,-3.3284,-3.3176,-3.3056,-3.3056,-3.2935,-3.2707,-3.2334,-3.1982,-3.1705,-3.1705,-3.1705,-3.1705,0.0,0.0,0.0,0.0,0.0,0.0,0.0,-3.1705,-3.1705,-3.1705,0.0,0.0,0.0,0.0,0.0,0.0,0.0,0.0,0.0,0.0,0.0,0.0,0.0,-3.1705,-3.1705,-3.0805,-3.0411,-3.0388,-2.9831,-2.9687,-2.9857,-2.9857,-2.9773,-2.9629,-2.9629,-2.9629,-2.9629,-2.9629,-2.9629,-2.9629,-2.9629,-2.9629,-2.9569,-3.6405,-3.6405,-3.6405,-3.6405,-3.6405,-3.6405,-3.6405,-3.6405,-3.6405,-3.6405,-3.6405,-3.6405,-3.6405,-3.6405,-3.6405,-3.6405,-3.6405,-3.6405,-3.6405,-3.6405,-3.6405,0.0,0.0,-3.6405,-3.6405,-3.6405,-3.6405,-3.6405,0.0,0.0,-3.5508,0.0,0.0,-3.6405,-3.6405,-3.6405,-3.6405,-3.6405,-3.6405,-3.6405,-3.6405,-3.6405,-3.6405,-3.6405,-3.6031,-3.5508,-3.5508,-3.5157,-3.4738,-3.4738,-3.4738,-3.4793,-3.5332,-3.5381,-3.5096,-3.4479,-3.3998,-3.3596,-3.3596,-3.3458,-3.3284,-3.3284,-3.2899,-3.2515,-3.2515,-3.2082,-3.1729,-3.1717,-3.1717,-3.1705,-3.1705,-3.1705,-3.1705,-3.1705,0.0,0.0,0.0,0.0,0.0,0.0,-3.1705,-3.1705,-3.1705,0.0,0.0,0.0,0.0,0.0,0.0,0.0,0.0,-3.1705,-3.1705,0.0,-3.1705,-3.1705,-3.1705,-3.1705,-3.1132,-3.0879,-3.0867,-3.0338,-2.9809,-2.9304,-2.9304,-2.9015,-2.8522,-2.8522,-2.8522,-2.8522,-2.8522,-2.8522,-2.8522,-2.8522,-2.8522,-2.8522,-3.6405,-3.6405,-3.6405,-3.6405,-3.6405,-3.6405,-3.6405,-3.6405,-3.6405,-3.6405,-3.6405,-3.6405,-3.6405,-3.6405,-3.6405,0.0,-3.6405,-3.6405,0.0,-3.6405,-3.6675,-3.7315,-3.7348,-3.7658,-3.827,-3.8315,-3.8011,-3.7348,0.0,0.0,0.0,-3.6094,-3.5994,-3.5805,-3.5805,-3.5592,-3.524,-3.524,-3.524,-3.524,-3.524,-3.524,-3.524,-3.524,-3.514,-3.4944,-3.4944,-3.4818,-3.468,-3.468,-3.468,-3.4688,-3.4487,-3.4643,-3.4815,-3.464,-3.3967,-3.3322,-3.3322,-3.2771,-3.2223,-3.2223,-3.2102,-3.1925,-3.1925,-3.1837,-3.1705,-3.1705,-3.1705,-3.1705,-3.1705,-3.1705,-3.1705,-3.1705,0.0,0.0,0.0,0.0,0.0,0.0,0.0,-3.1705,0.0,-3.1705,0.0,0.0,0.0,0.0,0.0,0.0,0.0,0.0,-3.1705,0.0,-3.1705,-3.1705,-3.1524,-3.1163,-3.0995,-3.0494,-2.9797,-2.9629,-2.9256,-2.8763,-2.8763,-2.8667,-2.851,-2.851,-2.851,-2.851,-2.851,-2.851,-2.851,-2.851,-2.851,-2.851,-3.6056,-3.6267,-3.6405,-3.6405,-3.6405,-3.6405,-3.6405,-3.6405,-3.6546,-3.6862,-3.6956,-3.7036,-3.7428,-3.7428,0.0,-3.6956,-3.7256,0.0,-3.7428,-3.7428,-3.7704,-3.8283,-3.8328,-3.8419,-3.8675,0.0,0.0,-3.6959,-3.7033,-3.667,-3.5789,-3.6087,-3.5864,-3.5194,-3.5194,-3.4994,-3.468,-3.468,-3.468,-3.468,-3.468,-3.468,-3.468,-3.468,-3.4587,-3.4412,-3.4412,-3.4274,-3.411,-3.411,-3.411,-3.4048,-3.3709,-3.3822,-3.411,-3.411,-3.3594,-3.298,-3.2936,-3.2381,-3.1805,-3.1705,-3.1705,-3.1705,-3.1705,-3.1705,-3.1705,-3.1705,-3.1705,-3.1705,-3.1705,-3.1705,-3.1705,-3.1705,0.0,-3.1705,0.0,0.0,0.0,0.0,0.0,0.0,0.0,-3.1705,0.0,0.0,0.0,0.0,0.0,0.0,0.0,-3.1705,-3.1705,0.0,-3.1416,-3.1404,-3.1151,-3.0621,-3.0386,-2.9833,-2.9003,-2.9003,-2.8823,-2.851,-2.851,-2.851,-2.851,-2.851,-2.851,-2.851,-2.851,-2.851,-2.851,-2.851,-2.851,-2.851,-3.5445,-3.5893,0.0,0.0,-3.6292,0.0,-3.6292,-3.6339,-3.6701,-3.7554,-3.7736,-3.8087,-3.8955,-3.9119,-3.8822,-3.7951,0.0,0.0,0.0,-3.9102,-3.9074,-3.9163,-3.9163,0.0,-3.7996,-3.7469,-3.6714,-3.5696,-3.5902,-3.56,-3.4803,-3.5556,-3.5454,-3.4618,-3.4618,-3.4638,-3.4613,-3.4613,-3.4613,-3.4613,-3.4613,-3.4613,-3.4613,-3.4613,-3.4286,-3.3847,-3.3847,-3.3508,-3.3124,-3.3124,-3.3124,-3.3124,-3.3124,-3.3124,-3.3124,-3.3124,-3.2896,-3.268,-3.2431,-3.2213,-3.1937,-3.1761,-3.1705,-3.1705,-3.1705,-3.1705,-3.1705,-3.1705,-3.1705,-3.1705,-3.1705,-3.1705,-3.1705,-3.1705,-3.1705,-3.1705,-3.1705,0.0,0.0,0.0,0.0,0.0,0.0,-3.1657,-3.1633,0.0,0.0,0.0,0.0,0.0,0.0,-3.1657,-3.1621,-3.1356,-3.0874,-3.0819,-3.0597,-3.0025,-2.9496,-2.8979,-2.851,-2.851,-2.851,-2.851,-2.851,-2.851,-2.851,-2.851,-2.851,-2.851,-2.851,-2.851,-2.851,-2.851,-2.851,-2.851,0.0,0.0,-3.5115,-3.5115,-3.5115,-3.5115,-3.5115,-3.5666,-3.6165,-3.6387,-3.7003,-3.751,-3.7725,-3.8405,-3.8741,-3.8532,-3.8519,-3.8532,-3.8532,-3.8011,-3.8067,-3.8783,-3.8825,-3.9033,-3.9527,-3.9426,-3.8891,-3.7919,-3.6631,-3.5895,-3.5675,-3.5226,-3.4666,-3.4098,-3.4098,-3.3859,-3.347,-3.347,-3.347,-3.347,-3.347,-3.347,-3.347,-3.347,-3.3382,-3.3269,-3.3269,-3.3224,-3.3124,-3.3124,-3.3124,-3.3124,-3.3124,-3.3124,-3.3124,-3.3124,-3.2896,-3.268,-3.2431,-3.2213,-3.1937,-3.1761,-3.1705,-3.1705,-3.1705,-3.1705,-3.1705,-3.1705,-3.1705,-3.1705,-3.1705,-3.1705,-3.1705,-3.1705,-3.1705,-3.1705,-3.1705,0.0,0.0,0.0,-3.1705,-3.1548,-3.1151,-3.1103,-3.0934,0.0,0.0,0.0,0.0,0.0,-3.0694,-3.1091,-3.0675,-3.0398,-3.0278,-3.0278,-3.0013,-2.9484,-2.8955,-2.8631,-2.851,-2.851,-2.851,-2.851,-2.851,-2.851,-2.851,-2.851,-2.851,-2.851,-2.851,-2.851,-2.851,-2.851,-2.851,-2.851,-3.4349,-3.455,-3.4848,-3.5226,-3.497,-3.4983,-3.5789,-3.5939,-3.6305,-3.7122,-3.763,-3.8104,-3.8517,-3.9021,-3.9344,-3.9344,-3.9195,-3.913,-3.913,-3.8781,-3.8804,-3.9304,-3.9344,-3.9384,-3.9465,-3.9233,-3.8481,-3.7302,-3.6688,-3.6231,-3.5812,-3.5316,-3.4757,-3.4114,-3.3694,-3.3357,-3.3124,-3.3124,-3.3124,-3.3124,-3.3124,-3.3124,-3.3124,-3.3124,-3.3124,-3.3124,-3.3124,-3.3124,-3.3124,-3.3124,-3.3124,-3.3124,-3.3124,-3.3124,-3.3124,-3.3124,-3.2896,-3.268,-3.2431,-3.2213,-3.1937,-3.1761,-3.1705,-3.1705,-3.1705,-3.1705,-3.1705,-3.1705,-3.1705,-3.1705,-3.1705,-3.1705,-3.1633,-3.138,-3.1344,-3.1259,-3.1019,-3.0995,0.0,-3.0995,-3.0995,-3.0874,-3.0543,-3.0506,-3.0398,-3.011,0.0,0.0,-3.0086,-2.9857,-2.9965,-3.0494,-3.0242,-2.9965,-2.9737,-2.9484,-2.922,-2.8931,-2.8643,-2.851,-2.851,-2.851,-2.851,-2.851,-2.851,-2.851,-2.851,-2.851,-2.851,-2.851,-2.851,-2.851,-2.851,-2.851,-2.851,-2.851,-3.3771,-3.4161,-3.4673,-3.5417,-3.5059,-3.5148,-3.6625,-3.6441,-3.6684,-3.8238,-3.8522,-3.8939,-3.9735,-3.9813,-3.9813,-3.9813,-3.9813,-3.9857,-3.9958,-3.9871,-3.9813,-3.9813,-3.9813,-3.9445,-3.8644,-3.8175,-3.731,-3.5975,-3.6596,-3.6439,-3.5615,-3.5467,-3.4965,-3.4189,-3.3411,-3.3124,-3.3124,-3.3124,-3.3124,-3.3124,-3.3124,-3.3124,-3.3124,-3.3124,-3.3124,-3.3124,-3.3124,-3.3124,-3.3124,-3.3124,-3.3124,-3.3124,-3.3124,-3.3124,-3.3124,-3.3124,-3.2896,-3.268,-3.2431,-3.2169,-3.1893,-3.1749,-3.1705,-3.1705,-3.1705,-3.1645,-3.1585,-3.1585,-3.1524,-3.1476,-3.1476,-3.1476,-3.132,-3.0874,-3.0802,-3.0603,-3.0146,0.0,-3.0086,-3.0086,-3.0086,-3.0062,-2.9977,-2.9965,-2.9941,-2.9857,-2.9845,0.0,0.0,-2.9424,-2.9388,-2.9833,-2.9845,-2.9629,-2.9184,-2.8739,-2.851,-2.851,-2.851,-2.851,-2.851,-2.851,-2.851,-2.851,-2.851,-2.851,-2.851,-2.851,-2.851,-2.851,-2.851,-2.851,-2.851,-2.851,-2.851,-2.851,-3.3206,-3.3269,-3.3375,-3.3536,-3.4037,-3.4533,-3.4826,-3.594,-3.6849,-3.7139,-3.7815,-3.8341,-3.8492,-3.8492,-3.8492,-3.8492,-3.8492,-3.8739,-3.9305,-3.8812,-3.8492,-3.8492,-3.8492,-3.8417,-3.8303,-3.8202,-3.8025,-3.7796,-3.7208,-3.6439,-3.5588,-3.4883,-3.4147,-3.3283,-3.3154,-3.3124,-3.3124,-3.3124,-3.3124,-3.3124,-3.3124,-3.3124,-3.3124,-3.3124,-3.3124,-3.3124,-3.3124,-3.3124,-3.3124,-3.3124,-3.3124,-3.3124,-3.3124,-3.3124,-3.3124,-3.3124,-3.2896,-3.268,-3.2431,-3.2069,-3.1749,-3.1705,-3.1705,-3.1705,-3.1705,-3.1356,-3.0999,-3.0999,-3.0639,-3.0338,-3.0338,-3.0338,-3.0302,-3.0218,-3.0206,-3.0182,0.0,0.0,-3.0086,-3.0086,-3.0086,-2.9917,-2.946,-2.9424,-2.9232,-2.8787,-2.8751,-2.8751,-2.8751,-2.8679,-2.8667,-2.8751,-2.8751,-2.8715,-2.8631,-2.8546,-2.851,-2.851,-2.851,-2.851,-2.851,-2.851,-2.851,-2.851,-2.851,-2.851,-2.851,-2.851,-2.851,-2.851,-2.851,-2.851,-2.851,-2.851,-2.851,-2.851,-3.4358,-3.447,-3.4594,-3.5047,-3.5087,-3.5372,-3.6294,-3.6702,-3.7053,-3.7529,-3.7962,-3.8202,-3.8202,-3.8202,-3.8202,-3.8202,-3.8202,-3.8333,-3.8638,-3.8376,-3.8202,-3.8202,-3.8202,-3.8202,-3.8202,-3.8202,-3.8202,-3.8202,-3.781,-3.74,-3.6986,-3.6136,-3.5291,-3.4428,-3.4008,-3.3526,-3.3124,-3.3124,-3.3124,-3.3124,-3.3124,-3.3124,-3.3124,-3.3124,-3.3124,-3.3124,-3.3124,-3.3124,-3.3124,-3.3124,-3.3124,-3.3018,-3.2717,-3.2616,-3.2554,-3.2252,-3.2421,-3.2562,-3.192,-3.1619,-3.1329,-3.0934,-3.0862,-3.0862,-3.0862,-3.0669,-3.0446,-3.0446,-3.0254,-3.0086,-3.0086,-3.0086,-2.9989,-2.9713,-2.9665,0.0,0.0,-2.9232,-2.9232,-2.9232,-2.9232,-2.9136,-2.8895,-2.8871,-2.8775,-2.8522,-2.851,-2.851,-2.851,-2.851,-2.851,-2.851,-2.851,-2.851,-2.851,-2.851,-2.851,-2.851,-2.851,-2.851,-2.851,-2.851,-2.851,-2.851,-2.851,-2.851,-2.851,-2.851,-2.851,-2.851,-2.851,-2.851,-2.851,-2.851,-2.851,-2.851,-3.5156,-3.5305,-3.5588,-3.6439,-3.6188,-3.6346,-3.7682,-3.7491,-3.7453,-3.8127,-3.8202,-3.8202,-3.8202,-3.8202,-3.8202,-3.8202,-3.8202,-3.8202,-3.8202,-3.8202,-3.8202,-3.8202,-3.8202,-3.8202,-3.8202,-3.8202,-3.8202,-3.8202,-3.8202,-3.8089,-3.7886,-3.7014,-3.6175,-3.5278,-3.4454,-3.3738,-3.3124,-3.3124,-3.3124,-3.3124,-3.3124,-3.3124,-3.3056,-3.293,-3.288,-3.2855,-3.2729,-3.2679,-3.2679,-3.2679,-3.2679,-3.2604,-3.2164,-3.2026,-3.1938,-3.1512,-3.1876,-3.2196,-3.1339,-3.1059,-3.0877,-3.0266,-3.0086,-3.0086,-3.0086,-2.9989,-2.9905,-2.9905,-2.9797,-2.9725,-2.9725,-2.9725,-2.9593,-2.9184,0.0,0.0,0.0,-2.851,-2.851,-2.851,-2.851,-2.851,-2.851,-2.851,-2.851,-2.851,-2.851,-2.851,-2.851,-2.851,-2.851,-2.851,-2.851,-2.851,-2.851,-2.851,-2.851,-2.851,-2.851,-2.851,-2.851,-2.851,-2.851,-2.851,-2.851,-2.851,-2.851,-2.851,-2.851,-2.851,-2.851,-2.851,-2.851,-2.851,-2.851,-2.851,-3.4314,-3.4468,-3.4744,-3.5548,-3.632,-3.6858,-3.6975,-3.7644,-3.8127,-3.8202,-3.8202,-3.8202,-3.8202,-3.8202,-3.8202,-3.8202,-3.8202,-3.8202,-3.8202,-3.8202,-3.8202,-3.8202,-3.8202,-3.8202,-3.8202,-3.8202,-3.8202,-3.8202,-3.8202,-3.781,-3.6975,-3.6175,-3.5305,-3.4426,-3.3569,-3.3154,-3.3124,-3.3124,-3.3124,-3.3124,-3.3124,-3.3124,-3.3061,-3.2478,-3.2277,-3.2202,-3.17,-3.1512,-3.1512,-3.1512,-3.1512,-3.1512,-3.1461,-3.1449,-3.1436,-3.1399,-3.1449,-3.1389,-3.0964,-3.066,-3.0398,-3.014,-3.0086,-3.0086,-3.0086,-2.9713,-2.9352,-2.9352,-2.8967,-2.8631,-2.8631,-2.8631,-2.8607,-2.857,0.0,0.0,-2.8522,-2.851,-2.851,-2.851,-2.851,-2.851,-2.851,-2.851,-2.851,-2.851,-2.851,-2.851,-2.851,-2.851,-2.851,-2.851,-2.851,-2.851,-2.851,-2.851,-2.851,-2.851,-2.851,-2.851,-2.851,-2.851,-2.851,-2.851,-2.851,-2.851,-2.851,-2.851,-2.851,-2.851,-2.851,-2.851,-2.851,-2.851,-2.851,-2.851,-3.4965,-3.5156,-3.5237,-3.5548,-3.632,-3.6897,-3.6897,-3.7644,-3.8202,-3.8202,-3.8202,-3.8202,-3.8202,-3.8202,-3.8202,-3.8202,-3.8202,-3.8202,-3.8202,-3.8202,-3.8202,-3.8202,-3.8202,-3.8202,-3.8202,-3.8202,-3.8202,-3.8202,-3.8202,-3.8037,-3.7682,-3.7414,-3.6492,-3.5102,-3.4457,-3.3535,-3.2516,-3.2177,-3.2026,-3.2026,-3.2026,-3.2026,-3.2001,-3.1788,-3.17,-3.1675,-3.1461,-3.1386,-3.1386,-3.1386,-3.1386,-3.1336,-3.1009,-3.0909,-3.0846,-3.0495,-3.0394,-3.0315,-2.9878,-2.9935,-2.9996,-2.9277,-2.9112,-2.9112,-2.9112,-2.8955,-2.8811,-2.8811,-2.8655,-2.851,-2.851,-2.851,-2.851,-2.851,0.0,-2.851,-2.851,-2.851,-2.851,-2.851,-2.851,-2.851,-2.851,-2.851,-2.851,-2.851,-2.851,-2.851,-2.851,-2.851,-2.851,-2.851,-2.851,-2.851,-2.851,-2.851,-2.851,-2.851,-2.851,-2.851,-2.851,-2.851,-2.851,-2.851,-2.851,-2.851,-2.851,-2.851,-2.851,-2.851,-2.851,-2.851,-2.851,-2.851,-2.851,-2.851,-3.5829,-3.6029,-3.6108,-3.6385,-3.6922,-3.7323,-3.7323,-3.781,-3.8202,-3.8202,-3.8202,-3.8202,-3.8202,-3.8202,-3.8202,-3.8202,-3.8202,-3.8202,-3.8202,-3.8202,-3.8202,-3.8202,-3.8202,-3.8202,-3.8202,-3.8202,-3.8202,-3.8202,-3.8014,-3.7926,-3.7912,-3.7195,-3.6231,-3.5019,-3.4126,-3.3087,-3.1926,-3.1549,-3.1386,-3.1386,-3.1386,-3.1386,-3.1373,-3.121,-3.1148,-3.1122,-3.0947,-3.0884,-3.0884,-3.0884,-3.0884,-3.0821,-3.047,-3.0357,-3.0281,-2.9905,-2.9792,-2.9714,-2.9221,-2.9413,-2.9502,-2.8686,-2.851,-2.851,-2.851,-2.851,-2.851,-2.851,-2.851,-2.851,-2.851,-2.851,-2.851,-2.851,-2.851,-2.851,-2.851,-2.851,-2.851,-2.851,-2.851,-2.851,-2.851,-2.851,-2.851,-2.851,-2.851,-2.851,-2.851,-2.851,-2.851,-2.851,-2.851,-2.851,-2.851,-2.851,-2.851,-2.851,-2.851,-2.851,-2.851,-2.851,-2.851,-2.851,-2.851,-2.851,-2.851,-2.851,-2.851,-2.851,-2.851,-2.851,-2.851,-2.851,-2.851,-2.851,-3.6727,-3.6897,-3.7169,-3.8037,-3.8202,-3.8202,-3.8202,-3.8202,-3.8202,-3.8202,-3.8202,-3.8202,-3.8202,-3.8202,-3.8202,-3.8202,-3.8202,-3.8202,-3.8202,-3.8202,-3.8202,-3.8188,-3.8202,-3.8202,-3.8188,-3.8188,-3.8188,-3.8188,-3.7593,-3.7302,-3.7237,-3.4978,-3.3892,-3.3829,-3.2169,-3.1386,-3.1386,-3.1386,-3.1386,-3.1386,-3.1386,-3.1386,-3.1323,-3.0809,-3.0608,-3.0532,-2.9993,-2.9792,-2.9792,-2.9792,-2.9792,-2.9792,-2.9792,-2.9792,-2.9792,-2.9792,-2.9792,-2.9702,-2.9209,-2.9091,-2.9013,-2.859,-2.851,-2.851,-2.851,-2.851,-2.851,-2.851,-2.851,-2.851,-2.851,-2.851,-2.851,-2.851,-2.851,-2.851,-2.851,-2.851,-2.851,-2.851,-2.851,-2.851,-2.851,-2.851,-2.851,-2.851,-2.851,-2.851,-2.851,-2.851,-2.851,-2.851,-2.851,-2.851,-2.851,-2.851,-2.851,-2.851,-2.851,-2.851,-2.851,-2.851,-2.851,-2.851,-2.851,-2.851,-2.851,-2.851,-2.851,-2.851,-2.851,-2.851,-2.851,-2.851,-2.851,-2.851,-3.5829,-3.5989,-3.6068,-3.6346,-3.6883,-3.7285,-3.7285,-3.781,-3.8202,-3.8202,-3.8202,-3.8202,-3.8202,-3.8202,-3.8202,-3.8202,-3.8202,-3.8202,-3.8202,-3.8202,-3.8014,-3.7593,-3.797,-3.7999,-3.7593,-3.7578,-3.7346,-3.6881,-3.6693,-3.6606,-3.657,-3.5379,-3.4499,-3.384,-3.2371,-3.1405,-3.0821,-3.0432,-3.0269,-3.0269,-3.0269,-3.0269,-3.0256,-3.0093,-3.0043,-3.0018,-2.9854,-2.9792,-2.9792,-2.9792,-2.9792,-2.9792,-2.9792,-2.9792,-2.9753,-2.956,-2.9509,-2.9431,-2.9,-2.8882,-2.8843,-2.859,-2.851,-2.851,-2.851,-2.851,-2.851,-2.851,-2.851,-2.851,-2.851,-2.851,-2.851,-2.851,-2.851,-2.851,-2.851,-2.851,-2.851,-2.851,-2.851,-2.851,-2.851,-2.851,-2.851,-2.851,-2.851,-2.851,-2.851,-2.851,-2.851,-2.851,-2.851,-2.851,-2.851,-2.851,-2.851,-2.851,-2.851,-2.851,-2.851,-2.851,-2.851,-2.851,-2.851,-2.851,-2.851,-2.851,-2.851,-2.851,-2.851,-2.851,-2.851,-2.851,-2.851,-2.851,-3.5494,-3.5869,-3.6108,-3.6108,-3.6844,-3.7414,-3.7414,-3.7848,-3.8202,-3.8202,-3.8202,-3.8202,-3.8202,-3.8202,-3.8202,-3.8202,-3.8202,-3.8202,-3.8202,-3.7984,-3.768,-3.7317,-3.7404,-3.7288,-3.6925,-3.691,-3.6722,-3.6301,-3.6054,-3.5923,-3.5923,-3.4586,-3.3693,-3.3135,-3.169,-3.0764,-3.0269,-2.993,-2.9792,-2.9792,-2.9792,-2.9792,-2.9792,-2.9792,-2.9792,-2.9792,-2.9792,-2.9792,-2.9792,-2.9792,-2.9792,-2.9792,-2.9792,-2.974,-2.9611,-2.947,-2.9341,-2.9223,-2.8882,-2.8791,-2.8764,-2.855,-2.851,-2.851,-2.851,-2.851,-2.851,-2.851,-2.851,-2.851,-2.851,-2.851,-2.851,-2.851,-2.851,-2.851,-2.851,-2.851,-2.851,-2.851,-2.851,-2.851,-2.851,-2.851,-2.851,-2.851,-2.851,-2.851,-2.851,-2.851,-2.851,-2.851,-2.851,-2.851,-2.851,-2.851,-2.851,-2.851,-2.851,-2.851,-2.851,-2.851,-2.851,-2.851,-2.851,-2.851,-2.851,-2.851,-2.851,-2.851,-2.851,-2.851,-2.851,-2.851,-2.851,-2.851,-3.5775,-3.636,-3.6805,-3.6897,-3.7477,-3.8,-3.8089,-3.8089,-3.8127,-3.8202,-3.8202,-3.8202,-3.8202,-3.8202,-3.8202,-3.8202,-3.8159,-3.813,-3.813,-3.7549,-3.7201,-3.7128,-3.6548,-3.6199,-3.6141,-3.6199,-3.6199,-3.6141,-3.5595,-3.5319,-3.5256,-3.3104,-3.211,-3.2051,-3.047,-2.9792,-2.9792,-2.9792,-2.9792,-2.9792,-2.9792,-2.9792,-2.9792,-2.9792,-2.9792,-2.9792,-2.9792,-2.9792,-2.9753,-2.9753,-2.9792,-2.9792,-2.9792,-2.9611,-2.9419,-2.938,-2.9236,-2.9013,-2.8843,-2.8764,-2.8724,-2.855,-2.851,-2.851,-2.851,-2.851,-2.851,-2.851,-2.851,-2.851,-2.851,-2.851,-2.851,-2.851,-2.851,-2.851,-2.851,-2.851,-2.851,-2.851,-2.851,-2.851,-2.851,-2.851,-2.851,-2.851,-2.851,-2.851,-2.851,-2.851,-2.851,-2.851,-2.851,-2.851,-2.851,-2.851,-2.851,-2.851,-2.851,-2.851,-2.851,-2.851,-2.851,-2.851,-2.851,-2.851,-2.851,-2.851,-2.851,-2.851,-2.851,-2.851,-2.851,-2.851,-2.851,-2.851,-3.7133,-3.6674,-3.6108,-3.6766,-3.6478,-3.6385,-3.7092,-3.7169,-3.7453,-3.8127,-3.8202,-3.8202,-3.8202,-3.8202,-3.8202,-3.8202,-3.7781,-3.7506,-3.7506,-3.6881,-3.6301,-3.5842,-3.5683,-3.5328,-3.4835,-3.5314,-3.5328,-3.482,-3.469,-3.4617,-3.4583,-3.2909,-3.211,-3.2051,-3.047,-2.9792,-2.9792,-2.9792,-2.9792,-2.9792,-2.9792,-2.9792,-2.9792,-2.9792,-2.9792,-2.9792,-2.9792,-2.9663,-2.947,-2.947,-2.9611,-2.9792,-2.9792,-2.9611,-2.938,-2.9197,-2.9,-2.8803,-2.8618,-2.8578,-2.855,-2.851,-2.851,-2.851,-2.851,-2.851,-2.851,-2.851,-2.851,-2.851,-2.851,-2.851,-2.851,-2.851,-2.851,-2.851,-2.851,-2.851,-2.851,-2.851,-2.851,-2.851,-2.851,-2.851,-2.851,-2.851,-2.851,-2.851,-2.851,-2.851,-2.851,-2.851,-2.851,-2.851,-2.851,-2.851,-2.851,-2.851,-2.851,-2.851,-2.851,-2.851,-2.851,-2.851,-2.851,-2.851,-2.851,-2.851,-2.851,-2.851,-2.851,-2.851,-2.851,-2.851,-2.851,-2.851,-3.62,-3.6362,-3.636,-3.6805,-3.6883,-3.6986,-3.7438,-3.7529,-3.7682,-3.8127,-3.8202,-3.8202,-3.8202,-3.8202,-3.8086,-3.7796,-3.7491,-3.7172,-3.6852,-3.6228,-3.5741,-3.5407,-3.5101,-3.4762,-3.4428,-3.4733,-3.4748,-3.4414,-3.4414,-3.4414,-3.4366,-3.3157,-3.2434,-3.2051,-3.0859,-3.005,-2.9611,-2.9753,-2.974,-2.9611,-2.9753,-2.9792,-2.9792,-2.9792,-2.9792,-2.9792,-2.965,-2.9443,-2.9275,-2.9275,-2.9365,-2.9468,-2.9468,-2.9287,-2.9106,-2.9,-2.8803,-2.8618,-2.855,-2.851,-2.851,-2.851,-2.851,-2.851,-2.851,-2.851,-2.851,-2.851,-2.851,-2.851,-2.851,-2.851,-2.851,-2.851,-2.851,-2.851,-2.851,-2.851,-2.851,-2.851,-2.851,-2.851,-2.851,-2.851,-2.851,-2.851,-2.851,-2.851,-2.851,-2.851,-2.851,-2.851,-2.851,-2.851,-2.851,-2.851,-2.851,-2.851,-2.851,-2.851,-2.851,-2.851,-2.851,-2.851,-2.851,-2.851,-2.851,-2.851,-2.851,-2.851,-2.851,-2.8538,-2.8618,-2.855,-2.851,-2.851,-3.4572,-3.5611,-3.6456,-3.6612,-3.7214,-3.7682,-3.7848,-3.7886,-3.7924,-3.8127,-3.8127,-3.8165,-3.8202,-3.8115,-3.7839,-3.7346,-3.7099,-3.6736,-3.6185,-3.5581,-3.5232,-3.5232,-3.4704,-3.4414,-3.4414,-3.4414,-3.4414,-3.4414,-3.4414,-3.4414,-3.438,-3.3451,-3.2684,-3.2037,-3.1119,-3.0241,-2.947,-2.965,-2.9599,-2.9419,-2.9611,-2.9675,-2.9675,-2.9675,-2.9675,-2.9663,-2.9431,-2.9236,-2.9091,-2.9052,-2.9052,-2.9091,-2.9091,-2.8961,-2.8791,-2.8791,-2.8657,-2.851,-2.851,-2.851,-2.851,-2.851,-2.851,-2.851,-2.851,-2.851,-2.851,-2.851,-2.851,-2.851,-2.851,-2.851,-2.851,-2.851,-2.851,-2.851,-2.851,-2.851,-2.851,-2.851,-2.851,-2.851,-2.851,-2.851,-2.851,-2.851,-2.851,-2.851,-2.851,-2.851,-2.851,-2.851,-2.851,-2.851,-2.851,-2.851,-2.851,-2.851,-2.851,-2.851,-2.851,-2.851,-2.851,-2.851,-2.851,-2.851,-2.851,-2.851,-2.851,-2.855,-2.851,-2.8618,-2.8803,-2.8578,-2.851,-2.851,-3.421,-3.4528,-3.4712,-3.5482,-3.5529,-3.5709,-3.6452,-3.657,-3.6897,-3.7801,-3.7929,-3.8005,-3.8165,-3.7738,-3.7404,-3.7317,-3.6272,-3.5625,-3.5537,-3.4893,-3.4545,-3.4545,-3.4457,-3.4414,-3.4414,-3.4414,-3.4414,-3.4414,-3.4414,-3.4414,-3.438,-3.2911,-3.2182,-3.2051,-3.057,-2.9856,-2.974,-2.956,-2.9419,-2.938,-2.9248,-2.917,-2.917,-2.917,-2.917,-2.917,-2.917,-2.9131,-2.9052,-2.8882,-2.8973,-2.9091,-2.9091,-2.8961,-2.8791,-2.8791,-2.8657,-2.851,-2.851,-2.851,-2.851,-2.851,-2.851,-2.851,-2.851,-2.851,-2.851,-2.851,-2.851,-2.851,-2.851,-2.851,-2.851,-2.851,-2.851,-2.851,-2.851,-2.851,-2.851,-2.851,-2.851,-2.851,-2.851,-2.851,-2.851,-2.851,-2.851,-2.851,-2.851,-2.851,-2.851,-2.851,-2.851,-2.851,-2.851,-2.851,-2.851,-2.851,-2.851,-2.851,-2.851,-2.851,-2.851,-2.851,-2.851,-2.851,-2.851,-2.851,-2.8618,-2.8724,-2.8578,-2.8618,-2.8803,-2.8578,-2.851,-2.851,-3.3144,-3.3544,-3.3911,-3.4627,-3.5017,-3.5514,-3.6213,-3.6716,-3.7211,-3.7663,-3.7739,-3.7634,-3.7388,-3.6798,-3.6367,-3.61,-3.5551,-3.5128,-3.4849,-3.4559,-3.4414,-3.4414,-3.4414,-3.4414,-3.4414,-3.4414,-3.4414,-3.4414,-3.4414,-3.4147,-3.3707,-3.3052,-3.2182,-3.123,-3.0558,-2.9857,-2.9248,-2.9236,-2.9157,-2.9067,-2.9079,-2.9091,-2.9091,-2.9091,-2.9091,-2.9091,-2.8961,-2.8855,-2.8736,-2.8657,-2.8697,-2.8736,-2.8736,-2.8697,-2.8618,-2.8618,-2.8578,-2.851,-2.851,-2.851,-2.851,-2.851,-2.851,-2.851,-2.851,-2.851,-2.851,-2.851,-2.851,-2.851,-2.851,-2.851,-2.851,-2.851,-2.851,-2.851,-2.851,-2.851,-2.851,-2.851,-2.851,-2.851,-2.851,-2.851,-2.851,-2.851,-2.851,-2.851,-2.851,-2.851,-2.851,-2.851,-2.851,-2.851,-2.851,-2.851,-2.851,-2.851,-2.851,-2.851,-2.851,-2.851,-2.851,-2.851,-2.851,-2.851,-2.851,-2.8618,-2.8657,-2.8618,-2.8657,-2.8657,-2.8657,-2.8657,-2.8618,-2.8474]}]]